[[{"header":{"parameterUnit":"m.s-1","parameterCategory":1,"la1":30.6,"la2":29.2853,"lo1":-89.7004,"lo2":-87.6739,"dy":0.0162,"dx":0.0183,"nx":112,"ny":82,"refTime":"2025-07-04T12:00:00:Z","depth":0,"parameterNumber":2,"parameterNumberName":"U-component_of_WINDS"},"data":[0.0,0.0,0.0,0.0,0.0,0.0,0.0,0.0,0.0,0.0,0.0,0.0,0.0,0.0,0.0,0.0,0.0,0.0,0.0,0.0,0.0,0.0,0.0,0.0,0.0,0.0,0.0,0.0,0.0,0.0,0.0,0.0,0.0,0.0,0.0,0.0,0.0,0.0,0.0,0.0,0.0,0.0,0.0,0.0,0.0,0.0,0.0,0.0,0.0,0.0,0.0,0.0,0.0,0.0,0.0,0.0,0.0,0.0,0.0,0.0,0.0,0.0,0.0,0.0,0.0,0.0,0.0,0.0,0.0,0.0,0.0,0.0,0.0,0.0,0.0,0.0,0.0,0.0,0.0,0.0,0.0,0.0,0.0,0.0,0.0,0.0,0.0,0.0,0.0,0.0,0.0,-0.2751,-0.3267,-0.3542,-0.3439,-0.3395,-0.314,-0.2593,0.0,0.0,0.0,0.0,0.0,0.0,0.0,0.0,0.0,0.0,0.0,0.0,0.0,0.0,0.0,0.0,0.0,0.0,0.0,0.0,0.0,0.0,0.0,0.0,0.0,0.0,0.0,0.0,0.0,0.0,0.0,0.0,0.0,0.0,0.0,0.0,0.0,0.0,0.0,0.0,0.0,0.0,0.0,0.0,0.0,0.0,0.0,0.0,0.0,0.0,0.0,0.0,0.0,0.0,0.0,0.0,0.0,0.0,0.0,0.0,0.0,0.0,0.0,0.0,0.0,0.0,0.0,0.0,0.0,0.0,0.0,0.0,0.0,0.0,0.0,0.0,0.0,0.0,0.0,0.0,0.0,0.0,0.0,0.0,0.0,0.0,0.0,0.0,0.0,0.0,0.0,0.0,0.0,0.0,0.0,0.0,0.0,0.0,0.0,0.0,0.0,0.0,0.0,0.0,-0.2518,-0.3221,-0.3468,-0.3577,-0.3558,-0.3365,-0.3121,-0.2874,0.0,0.0,0.0,0.0,0.0,0.0,0.0,0.0,0.0,0.0,0.0,0.0,0.0,0.0,0.0,0.0,0.0,0.0,0.0,0.0,0.0,0.0,0.0,0.0,0.0,0.0,0.0,0.0,0.0,0.0,0.0,0.0,0.0,0.0,0.0,0.0,0.0,0.0,0.0,0.0,0.0,0.0,0.0,0.0,0.0,0.0,0.0,0.0,0.0,0.0,0.0,0.0,0.0,0.0,0.0,0.0,0.0,0.0,0.0,0.0,0.0,0.0,0.0,0.0,0.0,0.0,0.0,0.0,0.0,0.0,0.0,0.0,0.0,0.0,0.0,0.0,0.0,0.0,0.0,0.0,0.0,0.0,0.0,0.0,0.0,0.0,0.0,0.0,0.0,0.0,0.0,0.0,0.0,0.0,0.0,0.0,0.0,0.0,0.0,0.0,0.0,0.0,0.0,-0.2455,-0.2748,-0.3338,-0.3512,-0.3585,-0.3585,-0.336,-0.3118,-0.2929,-0.2468,0.0,0.0,0.0,0.0,0.0,0.0,0.0,0.0,0.0,0.0,0.0,0.0,0.0,0.0,0.0,0.0,0.0,0.0,0.0,0.0,0.0,0.0,0.0,0.0,0.0,0.0,0.0,0.0,0.0,0.0,0.0,0.0,0.0,0.0,0.0,0.0,0.0,0.0,0.0,0.0,0.0,0.0,0.0,0.0,0.0,0.0,0.0,0.0,0.0,0.0,0.0,0.0,0.0,0.0,0.0,0.0,0.0,0.0,0.0,0.0,0.0,0.0,0.0,0.0,0.0,0.0,0.0,0.0,0.0,0.0,0.0,0.0,0.0,0.0,0.0,0.0,0.0,0.0,0.0,0.0,0.0,0.0,0.0,0.0,0.0,0.0,0.0,0.0,0.0,0.0,0.0,0.0,0.0,0.0,0.0,0.0,0.0,0.0,0.0,0.0,0.0,0.0,-0.274,-0.2974,-0.3398,-0.3528,-0.3585,-0.3585,-0.3335,-0.3088,-0.2926,-0.2389,0.0,0.0,0.0,0.0,0.0,0.0,0.0,0.0,0.0,0.0,0.0,0.0,0.0,0.0,0.0,0.0,0.0,0.0,0.0,0.0,0.0,0.0,0.0,0.0,0.0,0.0,0.0,0.0,0.0,0.0,0.0,0.0,0.0,0.0,0.0,0.0,0.0,0.0,0.0,0.0,0.0,0.0,0.0,0.0,0.0,0.0,0.0,0.0,0.0,0.0,0.0,0.0,0.0,0.0,0.0,0.0,0.0,0.0,0.0,0.0,0.0,0.0,0.0,0.0,0.0,0.0,0.0,0.0,0.0,0.0,0.0,0.0,0.0,0.0,0.0,0.0,0.0,0.0,0.0,0.0,0.0,0.0,0.0,0.0,0.0,0.0,0.0,0.0,0.0,0.0,0.0,0.0,0.0,0.0,0.0,0.0,0.0,0.0,0.0,0.0,0.0,0.0,-0.2906,-0.3281,-0.3545,-0.3577,-0.3585,-0.3585,-0.3262,-0.296,-0.2921,-0.2382,0.0,0.0,0.0,0.0,0.0,0.0,0.0,0.0,0.0,0.0,0.0,0.0,0.0,0.0,0.0,0.0,0.0,0.0,0.0,0.0,0.0,0.0,0.0,0.0,0.0,0.0,0.0,0.0,0.0,0.0,0.0,0.0,0.0,0.0,0.0,0.0,0.0,0.0,0.0,0.0,0.0,0.0,0.0,0.0,0.0,0.0,0.0,0.0,0.0,0.0,0.0,0.0,0.0,0.0,0.0,0.0,0.0,0.0,0.0,0.0,0.0,0.0,0.0,0.0,0.0,0.0,0.0,0.0,0.0,0.0,0.0,0.0,0.0,0.0,0.0,0.0,0.0,0.0,0.0,0.0,0.0,0.0,0.0,0.0,0.0,0.0,0.0,0.0,0.0,0.0,0.0,0.0,0.0,0.0,0.0,0.0,0.0,0.0,0.0,0.0,0.0,0.0,-0.2792,-0.315,0.0,-0.3585,-0.3585,-0.3585,-0.3319,-0.3072,-0.2926,0.0,0.0,0.0,0.0,0.0,0.0,0.0,0.0,0.0,0.0,0.0,0.0,0.0,0.0,0.0,0.0,0.0,0.0,0.0,0.0,0.0,0.0,0.0,0.0,0.0,0.0,0.0,0.0,0.0,0.0,0.0,0.0,0.0,0.0,0.0,0.0,0.0,0.0,0.0,0.0,0.0,0.0,0.0,0.0,0.0,0.0,0.0,0.0,0.0,0.0,0.0,0.0,0.0,0.0,0.0,0.0,0.0,0.0,0.0,0.0,0.0,0.0,0.0,0.0,0.0,0.0,0.0,0.0,0.0,0.0,0.0,0.0,0.0,0.0,0.0,0.0,0.0,0.0,0.0,0.0,0.0,0.0,0.0,0.0,0.0,0.0,0.0,0.0,0.0,0.0,0.0,0.0,0.0,0.0,0.0,0.0,0.0,0.0,0.0,0.0,0.0,0.0,-0.2449,-0.2781,-0.3134,0.0,-0.3585,-0.3585,-0.3585,-0.3327,-0.3063,-0.2868,0.0,0.0,0.0,0.0,0.0,0.0,0.0,0.0,0.0,0.0,0.0,0.0,0.0,0.0,0.0,0.0,0.0,0.0,0.0,0.0,0.0,0.0,0.0,0.0,0.0,0.0,0.0,0.0,0.0,0.0,0.0,0.0,0.0,0.0,0.0,0.0,0.0,0.0,0.0,0.0,0.0,0.0,0.0,0.0,0.0,0.0,0.0,0.0,0.0,0.0,0.0,0.0,0.0,0.0,0.0,0.0,0.0,0.0,0.0,0.0,0.0,0.0,0.0,0.0,0.0,0.0,0.0,0.0,0.0,0.0,0.0,0.0,0.0,0.0,0.0,0.0,0.0,0.0,0.0,0.0,0.0,0.0,0.0,0.0,0.0,0.0,0.0,0.0,0.0,0.0,0.0,0.0,0.0,0.0,0.0,0.0,0.0,0.0,0.0,0.0,0.0,0.0,-0.2474,-0.2922,-0.3314,-0.3558,-0.3585,-0.3585,-0.3585,-0.3256,-0.2901,0.0,0.0,0.0,0.0,0.0,0.0,0.0,0.0,0.0,0.0,0.0,0.0,0.0,0.0,0.0,0.0,0.0,0.0,0.0,0.0,0.0,0.0,0.0,0.0,0.0,0.0,0.0,0.0,0.0,0.0,0.0,0.0,0.0,0.0,0.0,0.0,0.0,0.0,0.0,0.0,0.0,0.0,0.0,0.0,0.0,0.0,0.0,0.0,0.0,0.0,0.0,0.0,0.0,0.0,0.0,0.0,0.0,0.0,0.0,0.0,0.0,0.0,0.0,0.0,0.0,0.0,0.0,0.0,0.0,0.0,0.0,0.0,0.0,0.0,0.0,0.0,0.0,0.0,0.0,0.0,0.0,0.0,0.0,0.0,0.0,0.0,0.0,0.0,0.0,0.0,0.0,0.0,0.0,0.0,0.0,0.0,0.0,0.0,0.0,0.0,0.0,0.0,0.0,-0.2588,-0.2976,-0.3314,-0.3558,-0.3585,-0.3585,-0.3585,-0.3327,-0.3066,-0.2871,0.0,0.0,0.0,0.0,0.0,0.0,0.0,0.0,0.0,0.0,0.0,0.0,0.0,0.0,0.0,0.0,0.0,0.0,0.0,0.0,0.0,0.0,0.0,0.0,0.0,0.0,0.0,0.0,0.0,0.0,0.0,0.0,0.0,0.0,0.0,0.0,0.0,0.0,0.0,0.0,0.0,0.0,0.0,0.0,0.0,0.0,0.0,0.0,0.0,0.0,0.0,0.0,0.0,0.0,0.0,0.0,0.0,0.0,0.0,0.0,0.0,0.0,0.0,0.0,0.0,0.0,0.0,0.0,0.0,0.0,0.0,0.0,0.0,0.0,0.0,0.0,0.0,0.0,0.0,0.0,0.0,0.0,0.0,0.0,0.0,0.0,0.0,0.0,0.0,0.0,0.0,0.0,0.0,0.0,0.0,0.0,0.0,0.0,0.0,0.0,0.0,0.0,-0.2645,-0.3039,-0.3365,-0.3564,-0.3585,-0.3585,-0.3585,-0.3403,-0.3169,-0.2932,0.0,0.0,0.0,0.0,0.0,0.0,0.0,0.0,0.0,0.0,0.0,0.0,0.0,0.0,0.0,0.0,0.0,0.0,0.0,0.0,0.0,0.0,0.0,0.0,0.0,0.0,0.0,0.0,0.0,0.0,0.0,0.0,0.0,0.0,0.0,0.0,0.0,0.0,0.0,0.0,0.0,0.0,0.0,0.0,0.0,0.0,0.0,0.0,0.0,0.0,0.0,0.0,0.0,0.0,0.0,0.0,0.0,0.0,0.0,0.0,0.0,0.0,0.0,0.0,0.0,0.0,0.0,0.0,0.0,0.0,0.0,0.0,0.0,0.0,0.0,0.0,0.0,0.0,0.0,0.0,0.0,0.0,0.0,0.0,0.0,0.0,0.0,0.0,0.0,0.0,0.0,0.0,0.0,0.0,0.0,0.0,0.0,0.0,0.0,0.0,0.0,0.0,-0.2669,-0.3112,-0.3447,-0.3572,-0.3585,-0.3585,-0.3585,-0.3471,-0.3256,-0.2922,0.0,0.0,0.0,0.0,0.0,0.0,0.0,0.0,0.0,0.0,0.0,0.0,0.0,0.0,0.0,0.0,0.0,0.0,0.0,0.0,0.0,0.0,0.0,0.0,0.0,0.0,0.0,0.0,0.0,0.0,0.0,0.0,0.0,0.0,0.0,0.0,0.0,0.0,0.0,0.0,0.0,0.0,0.0,0.0,0.0,0.0,0.0,0.0,0.0,0.0,0.0,0.0,0.0,0.0,0.0,0.0,0.0,0.0,0.0,0.0,0.0689,0.0,0.0,0.0,0.0,0.0,0.0,0.0,0.0,0.0,0.0,0.0,0.0,0.0,0.0,0.0,0.0,0.0,0.0,0.0,0.0,0.0,0.0,0.0,0.0,0.0,0.0,0.0,0.0,0.0,0.0,0.0,0.0,0.0,0.0,0.0,0.0,0.0,0.0,0.0,0.0,0.0,-0.2829,-0.3164,-0.3447,-0.3572,-0.3585,-0.3585,-0.3585,-0.3471,-0.3226,-0.2864,-0.2677,0.0,0.0,0.0,0.0,0.0,0.0,0.0,0.0,0.0,0.0,0.0,0.0,0.0,0.0,0.0,0.0,0.0,0.0,0.0,0.0,0.0,0.0,0.0,0.0,0.0,0.0,0.0,0.0,0.0,0.0,0.0,0.0,0.0,0.0,0.0,0.0,0.0,0.0,0.0,0.0,0.0,0.0,0.0,0.0,0.0,0.0,0.0,0.0,0.0,0.0,0.0,0.0,0.0,0.0,0.0,0.0,0.0,0.0,0.0,0.0,0.0785,0.0,0.0,0.0,0.0,0.0,0.0,0.0,0.0,0.0,0.0,0.0,0.0,0.0,0.0,0.0,0.0,0.0,0.0,0.0,0.0,0.0,0.0,0.0,0.0,0.0,0.0,0.0,0.0,0.0,0.0,0.0,0.0,0.0,0.0,0.0,0.0,0.0,0.0,0.0,0.0,-0.2917,-0.3267,-0.3515,-0.3577,-0.3585,-0.3585,-0.3585,-0.3526,-0.3385,-0.311,-0.2934,0.0,0.0,0.0,0.0,0.0,0.0,0.0,0.0,0.0,0.0,0.0,0.0,0.0,0.0,0.0,0.0,0.0,0.0,0.0,0.0,0.0,0.0,0.0,0.0,0.0,0.0,0.0,0.0,0.0,0.0,0.0,0.0,0.0,0.0,0.0,0.0,0.0,0.0,0.0,0.0,0.0,0.0,0.0,0.0,0.0,0.0,0.0,0.0,0.0,0.0,0.0,0.0,0.0,0.0981,0.1024,0.1073,0.1073,0.1099,0.1136,0.0987,0.0942,0.0907,0.0876,0.0,0.0,0.0,0.0,0.0,0.0,0.0,0.0,0.0,0.0,0.0,0.0,0.0,0.0,0.0,0.0,0.0,0.0,0.0,0.0,0.0,0.0,0.0,0.0,-0.3886,-0.3519,-0.2418,0.0,0.0,0.0,0.0,0.0,0.0,0.0,0.0,0.0,0.0,0.0,-0.3,-0.3373,-0.3585,-0.3585,-0.3585,-0.3585,-0.3585,-0.3585,-0.3539,-0.3385,-0.3179,-0.2825,0.0,0.0,0.0,0.0,0.0,0.0,0.0,0.0,0.0,0.0,0.0,0.0,0.0,0.0,0.0,0.0,0.0,0.0,0.0,0.0,0.0,0.0,0.0,0.0,0.0,0.0,0.0,0.0,0.0,0.0,0.0,0.0,0.0496,0.0553,0.0,0.0,0.0,0.0,0.0,0.0,0.0,0.0,0.0,0.0,0.0,0.0,0.0,0.0912,0.0929,0.1054,0.1101,0.1132,0.1189,0.122,0.1228,0.1228,0.1232,0.1238,0.129,0.0,0.1091,0.1001,0.0,0.0,0.0,0.0,0.0,0.0,0.0,0.0,0.0,0.0,0.0,0.0,0.0,0.0,0.0,0.0,0.0,0.0,0.0,0.0,0.0,0.0,-0.3865,-0.3928,-0.389,-0.3827,0.0,-0.3261,-0.2957,-0.3023,-0.2739,0.0,0.0,0.0,0.0,0.0,0.0,0.0,-0.3167,-0.3422,-0.3585,-0.3585,-0.3585,-0.3585,-0.3585,-0.3585,-0.3463,-0.3166,-0.3268,-0.3141,-0.2717,-0.265,0.0,0.0,0.0,0.0,0.0,0.0,0.0,0.0,0.0,0.0,0.0,0.0,0.0,0.0,0.0,0.0,0.0,0.0,0.0,0.0,0.0,0.0,0.0,0.0,0.0,0.0,0.0,0.0,0.0,0.0502,0.0579,0.0605,0.0736,0.075,0.0,0.0,0.0,0.0,0.0,0.0,0.0,0.0,0.0,0.0956,0.1017,0.1076,0.1133,0.1194,0.123,0.1243,0.1287,0.1308,0.1308,0.1308,0.1317,0.1331,0.1315,0.1294,0.1262,0.1139,0.1063,0.1017,0.0,0.0,0.0,0.0,-0.0175,-0.06,-0.1282,-0.1627,-0.1914,-0.2345,0.0,0.0,0.0,0.0,0.0,0.0,0.0,0.0,0.0,0.0,-0.4235,-0.4235,-0.4289,-0.4338,-0.4338,-0.408,-0.3793,0.0,-0.3232,-0.3009,-0.2688,0.0,0.0,0.0,0.0,-0.3229,-0.34,-0.3632,-0.3754,-0.3743,-0.3735,-0.371,-0.3591,-0.3585,-0.3527,-0.3413,-0.3476,-0.334,-0.2911,-0.2864,-0.2657,0.0,0.0,0.0,0.0,0.0,0.0,0.0,0.0,0.0,0.0,0.0,0.0,0.0,0.0,0.0,0.0,0.0,0.0,0.0,0.0,0.0,0.0,0.0,0.0,0.0,0.0,0.0,0.0,0.0544,0.0619,0.0683,0.0759,0.0787,0.0,0.0,0.0,0.0,0.0,0.0,0.0938,0.098,0.1037,0.112,0.1174,0.1216,0.1246,0.1299,0.1328,0.1337,0.1367,0.1386,0.1393,0.1393,0.1405,0.1423,0.1402,0.1405,0.1413,0.1263,0.1183,0.1151,0.0893,0.0464,-0.0,-0.0266,-0.0682,-0.1184,-0.1929,-0.2264,-0.2511,-0.3075,-0.3182,-0.3135,-0.3192,0.0,0.0,0.0,0.0,-0.448,-0.4312,-0.4384,-0.4515,-0.4515,-0.4657,-0.4726,-0.4726,-0.4651,-0.4368,0.0,-0.374,-0.3588,-0.3216,0.0,0.0,0.0,0.0,-0.3534,-0.3659,-0.3827,-0.3901,-0.3808,-0.38,-0.3754,-0.3637,-0.3629,-0.3615,-0.3585,-0.3585,-0.3487,-0.3179,-0.3154,-0.2956,-0.2498,0.0,0.0,0.0,0.0,0.0,0.0,0.0,0.0,0.0,0.0,0.0,0.0,0.0,0.0,0.0,0.0,0.0,0.0,0.0,0.0,0.0,0.0,0.0,0.0,0.0,0.0,0.0,0.0,0.0,0.0883,0.0896,0.0,0.0,0.0,0.0,0.089,0.0969,0.1032,0.1065,0.1123,0.1184,0.1324,0.1279,0.131,0.1257,0.1371,0.14,0.1429,0.1459,0.1489,0.1517,0.1517,0.1518,0.1519,0.1517,0.1518,0.1508,0.1357,0.1278,0.1247,0.0456,0.0148,-0.0073,-0.1191,-0.1656,-0.1739,-0.2321,-0.2656,-0.2981,-0.3119,-0.3587,-0.4126,-0.4559,-0.4472,0.0,0.0,-0.4439,-0.4549,-0.4668,-0.4706,-0.4715,-0.4715,-0.472,-0.4726,-0.4726,-0.472,-0.464,0.0,-0.417,-0.4009,-0.3812,0.0,-0.3765,-0.3765,-0.3782,-0.3778,-0.3901,-0.3867,-0.387,-0.3864,-0.3925,-0.3876,-0.3812,-0.3804,-0.3757,-0.3591,-0.3585,-0.358,-0.3574,-0.3569,-0.3399,-0.2963,-0.3193,0.0,0.0,0.0,0.0,0.0,0.0,0.0,0.0,0.0,0.0,0.0,0.0,0.0,0.0,0.0,0.0,0.0,0.0,0.0,0.0,0.0,0.0,0.0,0.0,0.0,0.0,0.0,0.0,0.0931,0.0992,0.0,0.0998,0.1016,0.104,0.1068,0.1101,0.1149,0.1218,0.1242,0.1281,0.1341,0.1372,0.1402,0.1433,0.1463,0.1205,0.0653,0.0752,0.0473,-0.0,-0.0,-0.0,-0.0,-0.0,-0.0,-0.0095,-0.0092,0.0177,0.0684,0.0334,-0.0327,-0.1122,-0.1536,-0.221,-0.2898,-0.3041,-0.3395,-0.3851,-0.4074,-0.4512,-0.4924,-0.5007,-0.5026,-0.498,-0.4942,-0.4988,-0.5059,-0.5102,-0.5056,-0.4996,-0.4996,-0.4939,-0.4887,-0.4887,-0.4887,-0.4838,-0.4675,-0.4482,-0.4268,-0.4028,-0.3988,-0.3933,-0.3837,-0.3887,-0.4004,-0.4047,-0.4121,-0.414,-0.4061,-0.4053,-0.4001,-0.3879,-0.3797,-0.368,-0.341,-0.3513,-0.3527,-0.3299,-0.3471,-0.3652,-0.377,-0.3906,-0.368,0.0,0.0,0.0,0.0,0.0,0.0,0.0,0.0,0.0,0.0,0.0,0.0,0.0,0.0,0.0,0.0,0.0,0.0,0.0,0.0,0.0,0.0,0.0,0.0,0.0,0.0,0.0772,0.1011,0.1079,0.1117,0.1108,0.1134,0.1169,0.1209,0.1222,0.1258,0.1328,0.1341,0.137,0.1419,0.145,0.1475,0.1495,0.1231,0.0861,0.0289,-0.0,-0.0386,-0.0875,-0.0875,-0.0875,-0.0875,-0.0875,-0.0875,-0.0875,-0.0875,-0.0667,-0.0369,-0.0452,-0.0978,-0.1844,-0.2108,-0.2658,-0.3398,-0.3502,-0.3856,-0.4328,-0.4667,-0.4952,-0.5247,-0.525,-0.5339,-0.5352,-0.5271,-0.5306,-0.5368,-0.5368,-0.5309,-0.5249,-0.5249,-0.5189,-0.5124,-0.5083,-0.5072,-0.5037,-0.4917,-0.4732,-0.4529,-0.4333,-0.4298,-0.4243,-0.4143,-0.4194,-0.4284,-0.424,-0.4308,-0.4311,-0.4191,-0.4181,-0.4129,-0.4007,-0.3884,-0.3797,-0.3698,-0.3755,-0.3799,-0.3683,-0.3688,-0.3855,-0.4177,-0.4264,-0.4149,-0.3909,0.0,0.0,0.0,0.0,0.0,0.0,0.0,0.0,0.0,0.0,0.0,0.0,0.0,0.0,0.0,0.0,0.0,0.0,0.0,0.0,0.0,0.0,0.0,0.0054,0.0176,0.0444,0.1007,0.116,0.1203,0.1174,0.1252,0.1304,0.1305,0.1333,0.1363,0.1391,0.1422,0.1361,0.1481,0.1417,0.1432,0.1432,0.0668,0.0289,0.0295,-0.0491,-0.0891,-0.0907,-0.0907,-0.0907,-0.0907,-0.0907,-0.0907,-0.0907,-0.0907,-0.1297,-0.1958,-0.2016,-0.2,-0.2094,-0.2858,-0.3144,-0.3231,-0.3635,-0.4072,-0.4608,-0.4963,-0.4953,-0.4961,-0.5391,-0.548,-0.5385,-0.5382,-0.5379,-0.5379,-0.5379,-0.5377,-0.5374,-0.5374,-0.5371,-0.5336,-0.5216,-0.5189,-0.5154,-0.5045,-0.4923,-0.48,-0.4678,-0.4731,-0.4729,-0.4726,-0.4726,0.0,-0.449,-0.4471,-0.4428,-0.4317,-0.4303,-0.4251,-0.4132,-0.4007,-0.4065,-0.4348,-0.426,-0.4401,-0.4849,-0.419,-0.3965,-0.4239,-0.4323,-0.4447,-0.4727,0.0,0.0,0.0,0.0,0.0,0.0,0.0,0.0,0.0,0.0,0.0,0.0,0.0,0.0,0.0,0.0,0.0,0.0,0.0,0.0,0.0,0.0,-0.1104,-0.0552,-0.0066,0.0285,0.0525,0.0937,0.1283,0.1296,0.1321,0.1343,0.1365,0.1394,0.1425,0.1454,0.0928,0.0564,0.0662,0.0096,-0.0194,-0.0194,-0.0394,-0.0797,-0.1302,-0.1601,-0.2007,-0.2522,-0.2522,-0.2522,-0.2522,-0.2522,-0.2522,-0.2522,-0.2522,-0.2615,-0.2798,-0.2156,-0.2314,-0.2858,-0.3049,-0.3525,-0.4282,-0.4731,-0.519,-0.5657,-0.581,-0.5779,-0.5739,-0.5743,-0.5784,-0.5738,-0.5657,-0.5635,-0.5635,-0.5635,-0.5567,-0.5499,-0.5499,-0.5434,-0.536,-0.5325,-0.5249,-0.5175,-0.5146,-0.5048,-0.4928,-0.4806,-0.4784,-0.4754,-0.474,-0.4726,0.0,-0.4679,-0.4596,-0.4458,-0.4425,-0.4349,-0.4287,-0.4254,-0.4056,-0.3861,-0.3769,-0.3751,-0.373,-0.376,-0.4164,-0.4734,-0.5413,-0.5231,-0.5085,0.0,0.0,0.0,0.0,0.0,0.0,0.0,0.0,0.0,0.0,0.0,0.0,0.0,0.0,0.0,0.0,0.0,0.0,0.0,0.0,0.0,0.0,-0.1526,-0.1713,-0.1471,-0.095,-0.0458,-0.0159,0.0492,0.0841,0.0852,0.1119,0.1397,0.1426,0.1173,0.0917,0.103,0.0191,-0.0193,-0.0193,-0.0589,-0.0892,-0.0892,-0.1203,-0.1513,-0.2017,-0.232,-0.2725,-0.323,-0.323,-0.323,-0.323,-0.323,-0.323,-0.323,-0.343,-0.3531,0.0,0.0,0.0,0.0,0.0,-0.4291,-0.5065,-0.5314,-0.5779,-0.6154,-0.6102,-0.6086,-0.6072,-0.6002,-0.5977,-0.5956,-0.5839,-0.5803,-0.5795,-0.5746,-0.5681,-0.5627,-0.5627,-0.5572,-0.5507,-0.5455,-0.539,-0.5309,-0.5205,-0.5132,0.0,-0.4931,-0.4909,-0.4887,-0.4817,-0.4806,-0.4787,-0.4735,-0.4667,-0.4602,-0.4621,-0.4488,-0.4428,-0.4376,-0.4389,0.0,0.0,0.0,-0.4571,-0.4296,-0.4952,0.0,0.0,0.0,0.0,0.0,0.0,0.0,0.0,-0.5167,-0.5176,0.0,0.0,0.0,0.0,0.0,0.0,0.0,0.0,0.0,0.0,0.0,0.0,0.0,0.0,0.0,0.0,-0.1964,-0.2397,-0.2515,-0.2061,-0.1519,-0.0898,-0.0254,0.0174,0.0174,0.08,0.1179,0.1201,0.0557,0.0188,0.0191,0.0,0.0,0.0,0.0,-0.1109,-0.1109,-0.1815,-0.2118,-0.2118,-0.2826,-0.323,-0.323,-0.323,-0.323,-0.323,-0.323,-0.323,-0.323,-0.3732,-0.3932,-0.3833,-0.3531,-0.3632,-0.4133,-0.4634,-0.5135,-0.5622,-0.5534,0.0,0.0,-0.6159,-0.6124,-0.6121,-0.6111,-0.6108,-0.6081,-0.5958,-0.5915,-0.588,-0.5779,-0.5744,-0.5733,-0.5733,-0.5733,-0.5703,-0.5507,-0.5475,-0.5485,-0.5268,-0.5216,-0.5175,-0.5072,-0.5034,-0.5018,-0.5018,-0.5018,-0.4977,-0.4868,-0.4841,-0.4792,-0.4686,0.0,0.0,-0.4638,-0.499,-0.5193,-0.5003,-0.5728,-0.6046,-0.5771,-0.6086,-0.6086,-0.5892,-0.6147,-0.6457,-0.6829,-0.6876,-0.6899,-0.688,-0.6059,-0.5863,0.0,0.0,0.0,0.0,0.0,0.0,0.0,0.0,0.0,0.0,0.0,0.0,0.0,0.0,0.0,-0.1593,-0.212,-0.2519,-0.264,-0.2615,-0.2307,-0.1629,-0.095,-0.0525,-0.0534,-0.0454,-0.0368,-0.037,-0.0571,-0.0679,-0.0682,-0.139,-0.1805,-0.1805,-0.2416,-0.2725,-0.2725,-0.2927,-0.2927,-0.2927,0.0,0.0,-0.323,-0.323,-0.323,-0.323,-0.323,-0.323,-0.323,-0.3331,-0.3331,-0.343,-0.4234,-0.4533,-0.4634,-0.4734,-0.5135,-0.5632,-0.5613,-0.5904,-0.6399,-0.6377,-0.6369,-0.6352,-0.626,-0.6233,0.0,-0.6083,-0.5977,-0.5896,-0.5877,-0.5803,-0.5733,-0.5733,-0.5733,-0.5727,-0.5703,-0.5534,-0.5451,-0.5488,-0.5401,-0.5328,-0.5303,-0.5143,-0.5018,-0.5018,-0.5018,-0.501,-0.4985,-0.4896,-0.4825,-0.4803,-0.5143,-0.5428,-0.5399,-0.5828,-0.6067,-0.6037,-0.6009,-0.6109,-0.6341,-0.6345,-0.6537,-0.6906,-0.6973,-0.7035,-0.7102,-0.7437,-0.7598,-0.7588,-0.713,-0.6899,0.0,0.0,0.0,0.0,0.0,0.0,0.0,0.0,0.0,0.0,0.0,-0.0904,0.0,0.0,-0.1726,-0.2095,-0.2403,-0.2634,-0.2725,-0.2764,-0.2695,-0.226,-0.1667,-0.1336,-0.1273,-0.1011,-0.0839,-0.0856,-0.1261,-0.1476,-0.149,-0.2208,-0.2623,-0.2623,-0.3027,-0.323,-0.323,-0.323,-0.323,-0.323,-0.323,-0.323,-0.323,-0.323,-0.3331,-0.3632,-0.3331,-0.3531,-0.4033,-0.4332,-0.4533,-0.4834,-0.5436,-0.5236,-0.4834,-0.5135,-0.5536,-0.6037,-0.6037,-0.6137,-0.6437,-0.6437,-0.6437,-0.6426,-0.6369,-0.6352,-0.6328,-0.6211,-0.6132,-0.6072,-0.601,-0.5907,-0.5817,-0.5817,-0.5773,-0.5733,-0.5733,-0.5687,-0.5624,-0.5475,-0.5502,-0.5439,-0.5379,-0.5273,-0.5173,-0.511,-0.5053,-0.5018,-0.5018,-0.5192,-0.5378,-0.5378,-0.5917,-0.6212,-0.6131,-0.6275,-0.6604,-0.7159,-0.6863,-0.6835,-0.7279,-0.7283,-0.7354,-0.7617,-0.7617,-0.7617,-0.7617,-0.7829,-0.7929,-0.7929,-0.7829,-0.7725,0.0,0.0,0.0,0.0,0.0,0.0,0.0,0.0,-0.0519,-0.1052,-0.1171,-0.1372,-0.1767,-0.1895,-0.203,-0.2536,-0.2677,-0.2732,-0.2792,-0.2801,-0.2801,-0.2801,-0.231,-0.2081,-0.2124,-0.1578,-0.1227,-0.1368,-0.1967,-0.2284,-0.2217,-0.2826,-0.323,-0.323,-0.323,-0.323,-0.323,-0.3331,-0.3331,-0.3331,-0.3432,-0.3531,-0.3531,-0.3531,-0.3732,-0.4133,-0.3732,-0.4033,-0.4834,-0.5236,-0.5737,-0.6137,-0.6137,-0.5636,-0.5035,-0.5536,-0.6037,-0.6437,-0.6437,-0.6437,-0.6437,-0.6437,-0.6437,-0.6437,-0.6437,-0.6437,-0.6418,-0.6328,-0.6285,-0.6246,-0.6146,-0.6032,-0.5937,-0.5937,-0.585,-0.5765,-0.5765,-0.5749,-0.5703,-0.5518,-0.5499,-0.5553,-0.5622,-0.567,-0.5529,-0.5241,-0.5223,-0.5232,-0.521,-0.5749,-0.6122,-0.6096,-0.6707,-0.7114,-0.7119,-0.6984,-0.7254,-0.8075,-0.7785,-0.7695,-0.808,-0.808,-0.808,-0.808,-0.8122,-0.8141,-0.8141,-0.8184,-0.8203,-0.8207,-0.842,-0.8387,-0.057,-0.0695,0.0,-0.0668,-0.0727,-0.0928,0.0,0.0,-0.1674,-0.218,-0.2297,-0.2327,-0.2477,-0.2496,-0.254,-0.2743,-0.2768,-0.2794,-0.2856,-0.2864,-0.2864,-0.2864,-0.278,-0.2806,-0.286,-0.2819,-0.2874,-0.284,-0.299,-0.3123,-0.3027,-0.313,-0.323,-0.323,-0.323,-0.323,-0.323,-0.3632,-0.3932,-0.3932,-0.4433,-0.4634,-0.4634,-0.4634,-0.4634,-0.4734,-0.4634,-0.4734,-0.4834,-0.4834,-0.4935,-0.4935,-0.4935,-0.5236,-0.5534,-0.6137,-0.6337,-0.6437,-0.6437,-0.6437,-0.6437,-0.6437,-0.6437,-0.6437,-0.6437,-0.6437,-0.6434,-0.642,-0.6344,-0.6265,-0.6252,-0.6157,-0.6064,-0.6064,-0.5972,-0.5885,-0.5885,-0.5803,-0.573,-0.5716,-0.5711,-0.5883,-0.6562,-0.6548,-0.6251,-0.5449,-0.5832,-0.6188,-0.599,-0.6603,-0.7017,-0.6802,-0.7322,-0.7927,-0.8438,-0.8495,-0.8407,-0.8377,-0.8295,-0.8206,-0.8085,-0.808,-0.808,-0.808,-0.8269,-0.8363,-0.8368,-0.8543,-0.8633,-0.8637,-0.8855,-0.8741,-0.1309,0.0,0.0,0.0,-0.1297,-0.142,-0.1633,-0.1733,-0.1897,-0.246,-0.2591,-0.2635,-0.2696,-0.2707,-0.2736,0.0,-0.2864,-0.2883,-0.2875,-0.2902,-0.291,-0.2879,-0.2875,-0.291,-0.3003,-0.3129,-0.3089,-0.3185,-0.3215,-0.323,-0.323,-0.323,-0.323,-0.323,-0.3531,-0.3531,-0.323,-0.3732,-0.3833,-0.3531,-0.3732,-0.3833,-0.3833,-0.4234,-0.4535,-0.4834,-0.5436,-0.5536,-0.5336,-0.5636,-0.5734,-0.5734,-0.5734,-0.5837,-0.6034,-0.5934,-0.6134,-0.6437,-0.6437,-0.6437,-0.6437,-0.6437,-0.6437,-0.6437,-0.6437,-0.6437,-0.6437,-0.6437,-0.6401,-0.6366,-0.6366,-0.6279,-0.6192,-0.6192,-0.61,-0.601,-0.601,-0.5915,-0.5921,-0.6373,-0.6397,-0.6605,-0.7305,-0.7341,-0.7194,-0.687,-0.6968,-0.6998,-0.6937,-0.7492,-0.8027,-0.8276,-0.8404,-0.8576,-0.8888,-0.8774,-0.8666,-0.8581,-0.8576,-0.8533,-0.8444,-0.8439,-0.8439,-0.8439,-0.8652,-0.8765,-0.8765,-0.8963,-0.9063,-0.9063,-0.9157,-0.9105,-0.1858,0.0,0.0,-0.1784,-0.1882,-0.1973,-0.1957,-0.2076,-0.2195,-0.258,-0.2699,-0.2815,-0.2947,-0.287,0.0,-0.3195,-0.309,-0.3036,-0.3084,-0.3023,-0.2943,-0.2902,-0.2884,-0.292,-0.3133,-0.3144,-0.31,-0.3221,-0.323,-0.323,-0.323,-0.323,-0.323,-0.323,-0.3531,-0.3632,-0.323,-0.3833,-0.4033,-0.3632,-0.3932,-0.4033,-0.4133,-0.4533,-0.4834,-0.5336,-0.6034,-0.6137,-0.5837,-0.6237,-0.6437,-0.6437,-0.6437,-0.6437,-0.6337,-0.5934,-0.6034,-0.6437,-0.6437,-0.6437,-0.6437,-0.6437,-0.6437,-0.6437,-0.6437,-0.6437,-0.6437,-0.6437,-0.6437,-0.6437,-0.6437,-0.6572,-0.6608,-0.6412,-0.6605,-0.67,-0.6513,-0.6596,-0.6768,-0.7279,-0.7272,-0.7358,-0.8017,-0.8097,-0.8185,-0.836,-0.8321,-0.8058,-0.7844,-0.8288,-0.8832,-0.9241,-0.9195,-0.9105,-0.9105,-0.8963,-0.8874,-0.8874,-0.8874,-0.8874,-0.8874,-0.8874,-0.8874,-0.8874,-0.9025,-0.9105,-0.9105,-0.9252,-0.9322,-0.9327,-0.9384,-0.9412,0.0,0.0,-0.2194,-0.2309,-0.2503,-0.2624,-0.2744,-0.2774,-0.2792,-0.2853,-0.282,-0.2954,-0.3299,-0.3042,-0.3042,-0.3907,-0.3509,-0.3142,-0.3605,-0.3327,-0.2958,-0.2956,-0.2907,-0.292,0.0,-0.3144,-0.31,-0.3221,-0.323,-0.323,-0.323,-0.323,-0.323,-0.323,-0.323,-0.323,-0.323,-0.4234,-0.4734,-0.4734,-0.5834,-0.6337,-0.6337,-0.6337,-0.6337,-0.6337,-0.6437,-0.6437,-0.6337,-0.6437,-0.6437,-0.6437,-0.6437,-0.6437,-0.6437,-0.6337,-0.6437,-0.6437,-0.6437,-0.6437,-0.6437,-0.6437,-0.6437,-0.6437,-0.6437,-0.6437,-0.6437,-0.6437,-0.6437,-0.6437,-0.6437,-0.693,-0.7325,-0.6631,-0.7514,-0.8372,-0.7601,-0.796,-0.8366,-0.8212,-0.8178,-0.8301,-0.8744,-0.889,-0.9065,-0.9859,-0.9941,-0.9597,-0.8721,-0.8953,-0.9241,-0.9322,-0.9318,-0.9313,-0.9313,-0.9308,-0.9304,-0.9304,-0.9304,-0.9304,-0.9304,-0.9304,-0.9304,-0.9304,-0.9313,-0.9313,-0.9313,-0.9322,-0.9322,-0.9327,-0.954,-0.955,0.0,0.0,-0.2399,-0.256,-0.2661,-0.2744,-0.2826,-0.2843,-0.2926,-0.3167,-0.2937,-0.2879,-0.3165,-0.3157,-0.309,-0.3137,-0.3566,-0.3882,-0.3793,-0.369,-0.3634,-0.3586,-0.3282,0.0,0.0,0.0,0.0,-0.3221,-0.323,-0.3331,-0.3732,-0.3432,-0.3331,-0.3732,-0.3732,-0.3732,-0.3732,-0.4433,-0.4834,-0.4834,-0.5133,-0.5536,-0.5837,-0.5837,-0.6034,-0.6437,-0.6437,-0.6437,-0.6437,-0.6437,-0.6437,-0.6437,-0.6437,-0.6437,-0.6437,-0.6437,-0.6437,-0.6437,-0.6437,-0.6437,-0.6437,-0.6437,-0.6437,-0.6437,-0.6437,-0.6437,-0.6437,-0.6437,-0.6736,-0.7232,-0.7232,-0.7829,-0.8326,-0.8028,-0.8386,-0.8641,-0.8445,-0.8512,-0.8665,-0.9087,-0.9165,-0.9209,-0.975,-0.9803,-0.9846,-0.997,-1.0038,-0.9927,-0.9593,-0.97,-0.9738,-0.9738,-0.962,-0.9535,-0.9535,-0.9408,-0.9322,-0.9322,-0.9322,-0.9322,-0.9322,-0.9322,-0.9322,-0.9322,-0.9464,-0.9535,-0.9535,-0.9672,-0.9738,-0.9743,-0.9814,-0.9852,0.0,-0.2424,-0.2523,-0.2684,-0.2943,-0.309,-0.3132,-0.3212,-0.335,-0.3363,-0.3082,-0.2905,-0.3097,-0.3146,-0.3091,-0.3136,-0.3687,-0.3952,-0.3824,-0.3842,-0.3902,-0.3852,-0.3634,0.0,0.0,0.0,0.0,-0.3222,-0.323,-0.3331,-0.3732,-0.3432,-0.3331,-0.3732,-0.3932,-0.4033,-0.4033,-0.4734,-0.5135,-0.5336,-0.5336,-0.5536,-0.5934,-0.5934,-0.6037,-0.6437,-0.6437,-0.6437,-0.6437,-0.6437,-0.6437,-0.6437,-0.6437,-0.6437,-0.6437,-0.6437,-0.6437,-0.6437,-0.6437,-0.6437,-0.6437,-0.6437,-0.6437,-0.6437,-0.6734,-0.6833,-0.6933,-0.7132,-0.763,-0.8028,-0.8028,-0.8627,-0.9122,-0.8825,-0.9221,-0.9616,-0.932,-0.9425,-0.9614,-1.0036,-1.0017,-1.0054,-1.0323,-1.0381,-1.0334,-1.0197,-1.0112,-1.0036,-1.0047,-1.0038,-1.0038,-1.0038,-0.9833,-0.9757,-0.9757,-0.963,-0.9549,-0.9549,-0.9549,-0.9549,-0.9549,-0.9549,-0.9549,-0.9549,-0.9682,-0.9757,-0.9757,-0.9965,-1.0152,-1.0069,-1.014,-1.0173,-0.2401,-0.252,-0.2639,-0.2758,-0.3183,-0.3587,-0.3582,-0.3871,-0.3955,-0.3528,-0.3168,-0.2938,0.0,0.0,-0.3129,-0.3762,-0.369,-0.3638,-0.388,-0.3971,-0.4023,0.0,0.0,0.0,0.0,0.0,0.0,-0.3226,0.0,-0.323,-0.323,-0.323,-0.323,-0.3331,-0.3732,-0.4033,-0.4033,-0.514,-0.5947,-0.6453,-0.6448,-0.6445,-0.6445,-0.6439,-0.6437,-0.6437,-0.6437,-0.6437,-0.6437,-0.6437,-0.6437,-0.6437,-0.6437,-0.6437,-0.6437,-0.6537,-0.6537,-0.6537,-0.6537,-0.6534,-0.6437,-0.6437,-0.6537,-0.6637,-0.7431,-0.763,-0.7829,-0.8627,-0.8825,-0.8825,-0.8825,-0.9422,-0.9821,-0.9122,-1.0109,-1.0998,-1.0216,-1.0703,-1.1137,-1.0948,-1.0905,-1.083,-1.0627,-1.0579,-1.0575,-1.0575,-1.0409,-1.0211,-1.0086,-1.0047,-1.0038,-1.0038,-1.0038,-1.0038,-1.0038,-1.0038,-1.0038,-1.0038,-1.0038,-1.0038,-1.0038,-1.0038,-1.0043,-1.0057,-1.0057,-1.0062,-1.0071,-1.0187,-1.0291,-1.0296,-1.0485,-1.0575,-0.2578,-0.2679,-0.2755,-0.2832,-0.3218,-0.3571,-0.3515,-0.3528,-0.3584,-0.3618,-0.2976,-0.2544,0.0,0.0,0.0,-0.3663,-0.4455,0.0,-0.5016,-0.5092,0.0,0.0,0.0,-0.3982,-0.4002,-0.3506,0.0,0.0,-0.343,-0.3331,-0.3732,-0.3833,-0.3932,-0.4332,-0.4533,-0.4834,-0.5236,-0.5918,-0.6516,-0.6709,-0.6616,-0.6573,-0.657,-0.6478,-0.6437,-0.6437,-0.6437,-0.6437,-0.6437,-0.6437,-0.6437,-0.6437,-0.7033,-0.7332,-0.7332,-0.7928,-0.8226,-0.8226,-0.8226,-0.7829,-0.7332,-0.7332,-0.773,-0.8226,-0.8425,-0.8524,-0.8524,-0.8726,-0.9225,-0.9719,-0.9719,-1.031,-1.0801,-1.0605,-1.09,-1.1096,-1.0904,-1.11,-1.1179,-1.1127,-1.1,-1.0877,-1.0825,-1.0679,-1.0575,-1.0575,-1.0532,-1.0423,-1.0216,-1.005,-1.0038,-1.0038,-1.0038,-1.0038,-1.0038,-1.0038,-1.0038,-1.0038,-1.0038,-1.0038,-1.0038,-1.0038,-1.0027,-1.0187,-1.0192,-1.0263,-1.0414,-1.0471,-1.0494,-1.0499,-1.0546,-1.0575,-0.278,-0.295,-0.3095,-0.2955,-0.3385,-0.3769,-0.3654,-0.3782,-0.3934,-0.358,-0.3103,0.0,0.0,0.0,0.0,0.0,0.0,0.0,-0.4944,-0.5342,-0.5487,0.0,-0.4935,0.0,-0.4332,-0.3833,-0.3531,0.0,-0.3331,-0.3331,-0.3632,-0.3833,-0.4133,-0.4435,-0.4935,-0.5457,-0.6009,-0.6432,-0.6736,-0.6801,-0.6733,-0.67,-0.6698,-0.6627,-0.6597,-0.6597,0.0,-0.6768,-0.7021,-0.7021,-0.7187,-0.7531,-0.7928,-0.8127,-0.8226,-0.8627,-0.8825,-0.8825,-0.8825,-0.8726,-0.8623,-0.8226,-0.8425,-0.8825,-0.9221,-0.9324,-0.9418,-0.9715,-1.0212,-1.0511,-1.0511,-1.09,-1.1194,-1.1194,-1.1194,-1.1194,-1.1194,-1.1194,-1.1194,-1.1194,-1.1104,-1.1028,-1.1028,-1.0924,-1.0849,-1.0849,-1.0773,-1.0674,-1.056,-1.0357,-1.0225,-1.0225,-1.0225,-1.0187,-1.0102,-1.0093,-1.0093,-1.0093,-1.0093,-1.013,-1.022,-1.0225,-1.0282,-1.0405,-1.0405,-1.0461,-1.0575,-1.0669,-1.0716,-1.0716,-1.0806,-1.0849,-0.2951,-0.3186,-0.3409,-0.2963,-0.3442,-0.3941,-0.3842,-0.4196,-0.4387,-0.35,0.0,0.0,-0.2603,0.0,-0.3621,-0.3587,0.0,-0.4628,-0.4595,-0.5172,-0.5623,-0.5622,-0.5636,-0.5436,-0.4834,-0.4334,-0.3833,-0.343,-0.3331,-0.3331,-0.3331,-0.3831,-0.4234,-0.4334,-0.5247,-0.6012,-0.6641,-0.6766,-0.6834,-0.685,-0.6834,-0.6825,-0.6825,-0.6809,-0.6907,-0.7012,-0.7012,-0.7365,-0.7978,-0.7978,-0.8309,-0.8888,-0.8962,-0.8954,-0.9053,-0.913,-0.9118,-0.9118,-0.9118,-0.962,-1.0019,-0.9221,-0.9023,-0.9221,-0.992,-1.0117,-1.0314,-1.0998,-1.1194,-1.1194,-1.1194,-1.1194,-1.1194,-1.1194,-1.1194,-1.1194,-1.1194,-1.1194,-1.1194,-1.1194,-1.1194,-1.1194,-1.1194,-1.1194,-1.1194,-1.1194,-1.1047,-1.0934,-1.0934,-1.0726,-1.0575,-1.0575,-1.0575,-1.0504,-1.0329,-1.0315,-1.0315,-1.0315,-1.0315,-1.039,-1.0565,-1.0575,-1.0584,-1.0617,-1.0617,-1.0631,-1.0655,-1.0844,-1.0934,-1.0938,-1.1113,-1.1194,-0.3018,-0.2956,-0.2963,-0.2964,-0.3268,-0.3587,-0.3603,-0.3589,0.0,0.0,0.0,-0.277,-0.2852,-0.3226,0.0,-0.4364,0.0,0.0,0.0,0.0,-0.6015,0.0,0.0,0.0,0.0,0.0,0.0,0.0,0.0,-0.3833,-0.3833,-0.4834,-0.5536,-0.5934,-0.623,-0.6543,-0.6768,-0.6893,-0.6999,-0.7092,-0.6997,-0.6953,-0.695,-0.685,-0.722,-0.7842,-0.7842,0.0,-0.9168,-0.9168,-0.915,-0.932,-0.9892,-1.0037,-1.0121,-1.0564,-1.0801,-1.0801,-1.0801,-1.09,-1.09,-1.0015,-1.0212,-1.0801,-1.0998,-1.0998,-1.0998,-1.1194,-1.1194,-1.1194,-1.1194,-1.1194,-1.1194,-1.1194,-1.1194,-1.1194,-1.1194,-1.1194,-1.1194,-1.1194,-1.1194,-1.1194,-1.1194,-1.1194,-1.1194,-1.1194,-1.1165,-1.1142,-1.1142,-1.0811,-1.0575,-1.0575,-1.0575,-1.056,-1.0523,-1.0523,-1.0523,-1.0523,-1.0523,-1.0537,-1.057,-1.0575,-1.066,-1.0834,-1.0839,-1.092,-1.109,-1.1127,-1.1142,-1.1146,-1.1179,-1.1194,-0.3655,-0.3409,-0.323,-0.323,-0.3298,-0.3378,-0.3379,0.0,0.0,0.0,0.0,-0.2918,-0.2971,0.0,0.0,0.0,0.0,0.0,0.0,0.0,0.0,0.0,0.0,0.0,0.0,0.0,0.0,0.0,0.0,-0.4734,-0.4435,-0.5133,-0.5837,-0.6337,-0.6556,-0.6679,-0.6801,-0.6923,-0.7043,-0.7154,-0.71,-0.7073,-0.707,-0.7013,-0.7525,-0.8272,-0.8194,-0.8906,-1.0067,-0.9979,-1.0252,-1.0659,-1.0986,-1.099,-1.0992,-1.1297,-1.1293,-1.1194,-1.1194,-1.1194,-1.11,-1.0703,-1.0904,-1.1194,-1.1194,-1.1194,-1.1194,-1.1194,-1.1194,-1.1194,-1.1194,-1.1194,-1.1194,-1.1194,-1.1194,-1.1194,-1.1194,-1.1194,-1.1194,-1.1194,-1.1194,-1.1194,-1.1194,-1.1194,-1.1194,-1.1194,-1.1194,-1.1194,-1.1194,-1.1019,-1.0896,-1.0896,-1.0896,-1.0853,-1.0749,-1.074,-1.074,-1.074,-1.074,-1.0787,-1.0891,-1.0896,-1.0948,-1.1052,-1.1052,-1.1099,-1.1194,-1.1194,-1.1194,-1.1194,-1.1194,-1.1194,-0.4244,-0.3929,-0.3587,-0.3587,-0.3415,-0.3187,-0.3187,-0.3203,0.0,0.0,0.0,-0.3116,-0.3076,0.0,0.0,0.0,0.0,0.0,0.0,0.0,0.0,0.0,0.0,0.0,0.0,0.0,0.0,0.0,0.0,0.0,-0.5133,-0.5536,-0.5934,-0.6437,-0.6556,-0.6679,-0.6801,-0.6923,-0.7043,-0.7154,-0.7154,-0.7154,-0.7154,-0.7348,-0.7886,-0.8763,-0.8747,-0.9659,-1.1048,-1.0944,-1.1321,-1.1945,-1.1902,-1.1761,-1.1576,-1.1534,-1.1383,-1.1194,-1.1194,-1.1194,-1.1194,-1.1194,-1.1194,-1.1194,-1.1194,-1.1194,-1.1194,-1.1194,-1.1194,-1.1194,-1.1194,-1.1194,-1.1194,-1.1194,-1.1194,-1.1194,-1.1194,-1.1194,-1.1194,-1.1194,-1.1194,-1.1194,-1.1194,-1.1194,-1.1194,-1.1194,-1.1194,-1.1194,-1.1194,-1.1194,-1.1194,-1.1194,-1.1194,-1.1132,-1.0972,-1.0962,-1.0962,-1.0962,-1.0962,-1.1033,-1.1189,-1.1194,-1.1194,-1.1194,-1.1194,-1.1194,-1.1194,-1.1194,-1.1194,-1.1194,-1.1194,-1.1194,-0.4235,-0.3884,-0.3587,-0.3587,-0.3415,-0.3268,-0.3187,0.0,0.0,0.0,-0.3093,-0.3051,-0.3163,0.0,0.0,0.0,0.0,0.0,0.0,0.0,0.0,0.0,0.0,0.0,0.0,0.0,0.0,0.0,0.0,0.0,-0.6237,-0.6337,-0.6337,-0.6437,-0.6556,-0.6679,-0.6801,-0.6923,-0.7043,-0.7154,-0.7154,-0.7154,-0.7263,-0.7801,-0.8608,-0.9474,-1.0206,-1.1056,0.0,-1.2206,-1.2276,-1.2365,-1.2181,-1.1978,-1.1765,-1.1586,-1.1383,-1.1194,-1.1194,-1.1194,-1.1194,-1.1194,-1.1194,-1.1194,-1.1194,-1.1194,-1.1194,-1.1194,-1.1194,-1.1194,-1.1194,-1.1194,-1.1194,-1.1194,-1.1194,-1.1194,-1.1194,-1.1194,-1.1194,-1.1194,-1.1194,-1.1194,-1.1194,-1.1194,-1.1194,-1.1194,-1.1194,-1.1194,-1.1194,-1.1194,-1.1194,-1.1194,-1.1194,-1.1189,-1.117,-1.1165,-1.1165,-1.1165,-1.1165,-1.1175,-1.1194,-1.1194,-1.1194,-1.1194,-1.1194,-1.1194,-1.1194,-1.1194,-1.1194,-1.1194,-1.1194,-1.1194,-0.5363,-0.4923,-0.4393,-0.431,-0.3932,-0.3589,-0.3547,0.0,0.0,-0.3125,-0.3069,-0.2995,-0.3183,-0.3256,0.0,0.0,0.0,0.0,0.0,0.0,0.0,0.0,0.0,0.0,0.0,0.0,0.0,0.0,0.0,0.0,-0.6437,-0.6437,-0.6634,-0.7132,-0.6684,-0.6567,-0.669,-0.6815,-0.6899,-0.6945,-0.7086,-0.7119,-0.7163,-0.795,-0.8832,-0.9697,-1.0456,-1.1335,0.0,-1.2276,-1.2328,-1.2417,-1.2219,-1.2006,-1.1794,-1.159,-1.1383,-1.1194,-1.1194,-1.1194,-1.1194,-1.1194,-1.1194,-1.1194,-1.1194,-1.1194,-1.1194,-1.1194,-1.1194,-1.1194,-1.1194,-1.1194,-1.1194,-1.1194,-1.1194,-1.1194,-1.1194,-1.1194,-1.1194,-1.1194,-1.1194,-1.1194,-1.1194,-1.1194,-1.1194,-1.1194,-1.1194,-1.1194,-1.1194,-1.1194,-1.1194,-1.1194,-1.1194,-1.1194,-1.1194,-1.1194,-1.1194,-1.1194,-1.1194,-1.1194,-1.1194,-1.1194,-1.1194,-1.1194,-1.1194,-1.1194,-1.1194,-1.1194,-1.1194,-1.1194,-1.1194,-1.1194,-0.5753,-0.532,-0.4763,-0.4596,-0.4208,-0.3845,0.0,0.0,-0.2925,-0.3158,-0.2984,-0.2847,-0.3126,-0.3218,-0.3246,0.0,0.0,0.0,0.0,0.0,0.0,0.0,0.0,0.0,0.0,0.0,0.0,0.0,0.0,0.0,-0.6734,-0.6537,-0.6637,-0.7232,-0.6734,-0.6494,-0.6619,-0.6706,-0.6766,-0.6804,-0.6972,-0.7136,-0.7416,-0.8333,-0.9222,-1.0081,-1.0814,-1.1473,0.0,-1.2172,-1.2224,-1.2337,-1.2195,-1.1968,-1.1713,-1.1572,-1.1383,-1.1194,-1.1194,-1.1194,-1.1194,-1.1194,-1.1194,-1.1194,-1.1194,-1.1194,-1.1194,-1.1194,-1.1194,-1.1194,-1.1194,-1.1194,-1.1194,-1.1194,-1.1194,-1.1194,-1.1194,-1.1194,-1.1194,-1.1194,-1.1194,-1.1194,-1.1194,-1.1194,-1.1194,-1.1194,-1.1194,-1.1194,-1.1194,-1.1194,-1.1194,-1.1194,-1.1194,-1.1194,-1.1194,-1.1194,-1.1194,-1.1194,-1.1194,-1.1194,-1.1194,-1.1194,-1.1194,-1.1194,-1.1194,-1.1194,-1.1194,-1.1194,-1.1194,-1.1194,-1.1194,-1.1194,-0.4984,-0.4693,-0.4385,-0.3982,-0.4006,-0.4023,0.0,-0.3056,-0.2632,-0.3092,-0.284,-0.266,-0.3126,-0.3218,-0.3195,-0.3097,0.0,0.0,0.0,0.0,0.0,0.0,0.0,0.0,0.0,0.0,0.0,0.0,0.0,0.0,-0.7531,-0.6833,-0.6437,-0.6437,-0.6437,-0.6494,-0.6619,-0.6622,-0.6681,-0.6801,-0.6804,-0.7289,-0.8262,-0.8966,-0.9739,-1.0577,-1.1408,-1.1822,0.0,-1.2054,-1.2139,-1.2143,-1.2139,-1.1888,-1.152,-1.152,-1.1383,-1.1194,-1.1194,-1.1194,-1.1194,-1.1194,-1.1194,-1.1194,-1.1194,-1.1194,-1.1194,-1.1194,-1.1194,-1.1194,-1.1194,-1.1194,-1.1194,-1.1194,-1.1194,-1.1194,-1.1194,-1.1194,-1.1194,-1.1194,-1.1194,-1.1194,-1.1194,-1.1194,-1.1194,-1.1194,-1.1194,-1.1194,-1.1194,-1.1194,-1.1194,-1.1194,-1.1194,-1.1194,-1.1194,-1.1194,-1.1194,-1.1194,-1.1194,-1.1194,-1.1194,-1.1194,-1.1194,-1.1194,-1.1194,-1.1194,-1.1194,-1.1194,-1.1194,-1.1194,-1.1194,-1.1194,-0.5522,-0.5418,-0.5216,-0.4367,-0.4158,-0.4027,-0.3791,-0.3251,-0.2871,-0.3045,-0.2743,-0.266,-0.3126,-0.3071,-0.3094,-0.3582,-0.3132,0.0,0.0,0.0,0.0,0.0,0.0,0.0,0.0,0.0,0.0,0.0,0.0,0.0,-0.6234,-0.6334,-0.6637,-0.7232,-0.6734,-0.6453,-0.6494,-0.6578,-0.6597,-0.6554,-0.7241,-0.7719,-0.7982,-0.9495,-1.0256,0.0,-1.1403,-1.1817,-1.1822,-1.1893,-1.1917,-1.1907,-1.177,-1.1633,-1.1501,-1.135,-1.1255,-1.1194,-1.1194,-1.1194,-1.1194,-1.1194,-1.1194,-1.1194,-1.1194,-1.1194,-1.1194,-1.1194,-1.1194,-1.1194,-1.1194,-1.1194,-1.1194,-1.1194,-1.1194,-1.1194,-1.1194,-1.1194,-1.1194,-1.1194,-1.1194,-1.1194,-1.1194,-1.1194,-1.1194,-1.1194,-1.1194,-1.1194,-1.1194,-1.1194,-1.1194,-1.1194,-1.1194,-1.1194,-1.1194,-1.1194,-1.1194,-1.1194,-1.1194,-1.1194,-1.1194,-1.1194,-1.1194,-1.1194,-1.1194,-1.1194,-1.1194,-1.1194,-1.1194,-1.1194,-1.1194,-1.1194,0.0,-0.4986,-0.4915,-0.403,-0.388,-0.3865,-0.3667,-0.3273,-0.2871,-0.2886,-0.2672,-0.2614,-0.3027,-0.2923,-0.2987,-0.3503,-0.293,0.0,0.0,0.0,0.0,0.0,0.0,0.0,0.0,0.0,0.0,0.0,0.0,0.0,-0.5534,-0.5934,-0.6434,-0.7132,-0.6637,-0.6437,-0.6437,-0.6513,-0.6611,-0.6836,-0.7508,-0.8186,-0.8765,-0.9895,-1.057,-1.0883,-1.1499,-1.1704,0.0,-1.1704,-1.1704,-1.1694,-1.1567,-1.1468,-1.1378,-1.1246,-1.1194,-1.1194,-1.1194,-1.1194,-1.1194,-1.1194,-1.1194,-1.1194,-1.1194,-1.1194,-1.1194,-1.1194,-1.1194,-1.1194,-1.1194,-1.1194,-1.1194,-1.1194,-1.1194,-1.1194,-1.1194,-1.1194,-1.1194,-1.1194,-1.1194,-1.1194,-1.1194,-1.1194,-1.1194,-1.1194,-1.1194,-1.1194,-1.1194,-1.1194,-1.1194,-1.1194,-1.1194,-1.1194,-1.1194,-1.1194,-1.1194,-1.1194,-1.1194,-1.1194,-1.1194,-1.1194,-1.1194,-1.1194,-1.1194,-1.1194,-1.1194,-1.1194,-1.1194,-1.1194,-1.1194,-1.1194,0.0,-0.3644,-0.3691,-0.3184,-0.3286,-0.3517,-0.3403,-0.3003,0.0,-0.2701,-0.2575,-0.2575,-0.2856,-0.2835,-0.2852,-0.3091,-0.2687,0.0,0.0,0.0,0.0,0.0,0.0,0.0,0.0,0.0,0.0,0.0,0.0,0.0,-0.5534,-0.5534,-0.5837,-0.6337,-0.6437,-0.6437,-0.6437,-0.6437,-0.6833,-0.763,-0.773,-0.87,-1.0268,-1.0369,-1.0777,0.0,-1.1496,-1.1496,-1.1496,-1.1496,-1.1496,-1.1496,-1.1496,-1.1373,-1.1194,-1.1194,-1.1194,-1.1194,-1.1194,-1.1194,-1.1194,-1.1194,-1.1194,-1.1194,-1.1194,-1.1194,-1.1194,-1.1194,-1.1194,-1.1194,-1.1194,-1.1194,-1.1194,-1.1194,-1.1194,-1.1194,-1.1194,-1.1194,-1.1194,-1.1194,-1.1194,-1.1194,-1.1194,-1.1194,-1.1194,-1.1194,-1.1194,-1.1194,-1.1194,-1.1194,-1.1194,-1.1194,-1.1194,-1.1194,-1.1194,-1.1194,-1.1194,-1.1194,-1.1194,-1.1194,-1.1194,-1.1194,-1.1194,-1.1194,-1.1194,-1.1194,-1.1194,-1.1194,-1.1194,-1.1194,-1.1194,-1.1194,-0.2839,0.0,-0.3423,-0.2938,-0.2842,-0.2967,0.0,-0.2747,-0.2403,0.0,0.0,0.0,0.0,0.0,0.0,0.0,0.0,0.0,0.0,0.0,0.0,0.0,0.0,0.0,0.0,0.0,0.0,0.0,0.0,-0.4734,-0.4935,-0.5336,-0.5837,-0.6337,-0.6437,-0.6437,-0.6437,-0.7033,-0.7431,-0.763,-0.8825,-0.9644,-1.0082,-1.0672,-1.1072,-1.1274,-1.1274,-1.1274,-1.1274,-1.1274,-1.1274,-1.1274,-1.1274,-1.1241,-1.1194,-1.1194,-1.1194,-1.1194,-1.1194,-1.1194,-1.1194,-1.1194,-1.1194,-1.1194,-1.1194,-1.1194,-1.1194,-1.1194,-1.1194,-1.1194,-1.1194,-1.1194,-1.1194,-1.1194,-1.1194,-1.1194,-1.1194,-1.1194,-1.1194,-1.1194,-1.1194,-1.1194,-1.1194,-1.1194,-1.1194,-1.1194,-1.1194,-1.1194,-1.1194,-1.1194,-1.1194,-1.1194,-1.1194,-1.1194,-1.1194,-1.1194,-1.1194,-1.1194,-1.1194,-1.1194,-1.1194,-1.1194,-1.1194,-1.1194,-1.1194,-1.1194,-1.1194,-1.1194,-1.1194,-1.1194,-1.1194,-1.1194,-0.2254,-0.2675,-0.3143,-0.2855,-0.2724,-0.2761,-0.2952,0.0,0.0,0.0,0.0,0.0,0.0,0.0,0.0,0.0,0.0,0.0,0.0,0.0,0.0,0.0,0.0,0.0,0.0,0.0,0.0,0.0,0.0,-0.4435,-0.4435,-0.4935,-0.5436,-0.6037,-0.6237,-0.6437,-0.6437,-0.7232,-0.7829,-0.8127,-0.9422,-1.0216,-1.0609,-1.0998,-1.1194,-1.1194,-1.1194,-1.1194,-1.1194,-1.1194,-1.1194,-1.1194,-1.1194,-1.1194,-1.1194,-1.1194,-1.1194,-1.1194,-1.1194,-1.1194,-1.1194,-1.1194,-1.1194,-1.1194,-1.1194,-1.1194,-1.1194,-1.1194,-1.1194,-1.1194,-1.1194,-1.1194,-1.1194,-1.1194,-1.1194,-1.1194,-1.1194,-1.1194,-1.1194,-1.1194,-1.1194,-1.1194,-1.1194,-1.1194,-1.1194,-1.1194,-1.1194,-1.1194,-1.1194,-1.1194,-1.1194,-1.1194,-1.1194,-1.1194,-1.1194,-1.1194,-1.1194,-1.1194,-1.1194,-1.1194,-1.1194,-1.1194,-1.1194,-1.1194,-1.1194,-1.1194,-1.1194,-1.1194,-1.1194,-1.1194,-1.1194,-1.1194,-0.1846,-0.2249,-0.28,-0.2737,-0.2645,-0.2642,-0.2836,0.0,0.0,0.0,0.0,0.0,0.0,0.0,0.0,0.0,0.0,0.0,0.0,0.0,0.0,0.0,0.0,0.0,0.0,0.0,0.0,0.0,0.0,-0.4133,-0.4033,-0.4535,-0.5035,-0.5534,-0.6134,-0.6437,-0.6437,-0.7232,-0.8028,-0.8825,-0.962,-1.0408,-1.1194,-1.1194,-1.1194,-1.1194,0.0,0.0,-1.1194,-1.1194,-1.1194,-1.1194,-1.1194,-1.1194,-1.1194,-1.1194,-1.1194,-1.1194,-1.1194,-1.1194,-1.1194,-1.1194,-1.1194,-1.1194,-1.1194,-1.1194,-1.1194,-1.1194,-1.1194,-1.1194,-1.1194,-1.1194,-1.1194,-1.1194,-1.1194,-1.1194,-1.1194,-1.1194,-1.1194,-1.1194,-1.1194,-1.1194,-1.1194,-1.1194,-1.1194,-1.1194,-1.1194,-1.1194,-1.1194,-1.1194,-1.1194,-1.1194,-1.1194,-1.1194,-1.1194,-1.1194,-1.1194,-1.1194,-1.1194,-1.1194,-1.1194,-1.1194,-1.1194,-1.1194,-1.1194,-1.1194,-1.1194,-1.1194,-1.1194,-1.1194,-1.1194,-1.1194,-0.1853,-0.2186,-0.2479,-0.208,-0.204,-0.2152,0.0,0.0,0.0,0.0,0.0,0.0,0.0,0.0,0.0,0.0,0.0,0.0,0.0,0.0,0.0,0.0,0.0,0.0,0.0,0.0,0.0,0.0,0.0,-0.4433,-0.4033,-0.4535,-0.5035,-0.5534,-0.6134,-0.6437,-0.6437,-0.7232,-0.8028,-0.8825,-0.962,-1.0408,-1.1194,-1.1194,-1.1194,-1.1194,0.0,-1.1194,-1.1194,-1.1194,-1.1194,-1.1194,-1.1194,-1.1194,-1.1194,-1.1194,-1.1194,-1.1194,-1.1194,-1.1194,-1.1194,-1.1194,-1.1194,-1.1194,-1.1194,-1.1194,-1.1194,-1.1194,-1.1194,-1.1194,-1.1194,-1.1194,-1.1194,-1.1194,-1.1194,-1.1194,-1.1194,-1.1194,-1.1194,-1.1194,-1.1194,-1.1194,-1.1194,-1.1194,-1.1194,-1.1194,-1.1194,-1.1194,-1.1194,-1.1194,-1.1194,-1.1194,-1.1194,-1.1194,-1.1194,-1.1194,-1.1194,-1.1194,-1.1194,-1.1194,-1.1194,-1.1194,-1.1194,-1.1194,-1.1194,-1.1194,-1.1194,-1.1194,-1.1194,-1.1194,-1.1194,-1.1194,-0.1642,-0.1773,-0.1973,-0.1704,-0.1926,-0.2189,0.0,0.0,0.0,0.0,0.0,0.0,0.0,0.0,0.0,0.0,0.0,0.0,0.0,0.0,0.0,0.0,0.0,0.0,0.0,0.0,0.0,0.0,0.0,0.0,-0.4033,-0.4535,-0.4935,-0.5135,-0.5934,-0.6637,-0.7033,-0.7431,-0.8028,-0.8825,-1.001,-1.0801,-1.1194,-1.1194,-1.1194,-1.1194,0.0,-1.1194,-1.1194,-1.1194,-1.1194,-1.1194,-1.1194,-1.1194,-1.1194,-1.1194,-1.1194,-1.1194,-1.1194,-1.1194,-1.1194,-1.1194,-1.1194,-1.1194,-1.1194,-1.1194,-1.1194,-1.1194,-1.1194,-1.1194,-1.1194,-1.1194,-1.1194,-1.1194,-1.1194,-1.1194,-1.1194,-1.1194,-1.1194,-1.1194,-1.1194,-1.1194,-1.1194,-1.1194,-1.1194,-1.1194,-1.1194,-1.1194,-1.1194,-1.1194,-1.1194,-1.1194,-1.1194,-1.1194,-1.1194,-1.1194,-1.1194,-1.1194,-1.1194,-1.1194,-1.1194,-1.1194,-1.1194,-1.1194,-1.1194,-1.1194,-1.1194,-1.1194,-1.1194,-1.1194,-1.1194,-1.1194,-0.1458,-0.1472,-0.1611,-0.1562,0.0,0.0,0.0,0.0,0.0,0.0,0.0,0.0,0.0,0.0,0.0,0.0,0.0,0.0,0.0,0.0,0.0,0.0,0.0,0.0,0.0,0.0,0.0,0.0,0.0,0.0,-0.4234,-0.4734,-0.5035,-0.5035,-0.6134,-0.6933,-0.763,-0.7928,-0.8425,-0.9122,-1.0306,-1.1002,-1.1194,-1.1194,-1.1194,-1.1194,-1.1194,-1.1194,-1.1194,-1.1194,-1.1194,-1.1194,-1.1194,-1.1194,-1.1194,-1.1194,-1.1194,-1.1194,-1.1194,-1.1194,-1.1194,-1.1194,-1.1194,-1.1194,-1.1194,-1.1194,-1.1194,-1.1194,-1.1194,-1.1194,-1.1194,-1.1194,-1.1194,-1.1194,-1.1194,-1.1194,-1.1194,-1.1194,-1.1194,-1.1194,-1.1194,-1.1194,-1.1194,-1.1385,-1.158,-1.158,-1.1775,-1.1965,-1.1965,-1.1965,-1.1965,-1.1965,-1.1965,-1.1965,-1.1965,-1.1965,-1.1965,-1.1965,-1.1678,-1.1482,-1.1194,-1.1194,-1.1194,-1.1194,-1.1194,-1.1194,-1.1194,-1.1194,-1.1194,-1.1194,-1.1194,-1.1194,-0.1403,-0.1502,-0.1684,-0.1628,0.0,0.0,0.0,0.0,0.0,0.0,0.0,0.0,0.0,0.0,0.0,0.0,0.0,0.0,0.0,0.0,0.0,0.0,0.0,0.0,0.0,0.0,0.0,0.0,0.0,0.0,-0.4734,-0.5233,-0.5536,-0.5536,-0.6833,-0.7531,-0.763,-0.9122,-0.9821,-0.992,-1.0019,-1.0511,-1.1194,-1.1194,-1.1194,-1.1194,-1.1194,-1.1194,-1.1194,-1.1194,-1.1194,-1.1194,-1.1194,-1.1194,-1.1194,-1.1194,-1.1194,-1.1194,-1.1194,-1.1194,-1.1194,-1.1194,-1.1194,-1.1194,-1.1194,-1.1194,-1.1194,-1.1194,-1.1194,-1.1194,-1.1194,-1.1194,-1.1194,-1.1194,-1.1194,-1.1194,-1.1194,-1.1194,-1.1194,-1.1194,-1.1194,-1.1194,-1.1194,-1.196,-1.2635,-1.2635,-1.3403,-1.4076,-1.4076,-1.4076,-1.4076,-1.4076,-1.4076,-1.4076,-1.4076,-1.4076,-1.4076,-1.4076,-1.3113,-1.2155,-1.1194,-1.1194,-1.1194,-1.1194,-1.1194,-1.1194,-1.1194,-1.1194,-1.1194,-1.1194,-1.1194,-1.1194,-0.1273,-0.1328,-0.1499,-0.1538,0.0,0.0,0.0,0.0,0.0,0.0,0.0,0.0,0.0,0.0,0.0,0.0,0.0,0.0,0.0,0.0,0.0,0.0,0.0,0.0,0.0,0.0,0.0,0.0,0.0,0.0,-0.5336,-0.5534,-0.5834,-0.6331,-0.7129,-0.8127,-0.9122,-0.9719,-1.0216,-1.0703,-1.0703,-1.09,-1.1194,-1.1194,-1.1194,-1.1194,-1.1194,-1.1194,-1.1194,-1.1194,-1.1194,-1.1194,-1.1194,-1.1194,-1.1194,-1.1194,-1.1194,-1.1194,-1.1194,-1.1194,-1.1194,-1.1194,-1.1194,-1.1194,-1.1194,-1.1194,-1.1194,-1.1194,-1.1194,-1.1194,-1.1194,-1.1194,-1.1194,-1.1194,-1.1194,-1.1194,-1.1194,-1.1194,-1.1194,-1.1194,-1.1673,-1.2155,-1.2155,-1.3017,-1.3692,-1.3692,-1.4076,-1.4268,-1.4268,-1.4268,-1.4268,-1.4268,-1.4268,-1.4268,-1.4268,-1.4841,-1.4937,-1.4364,-1.3884,-1.3499,-1.3113,-1.3119,-1.3119,-1.3119,-1.3119,-1.2829,-1.2155,-1.2155,-1.177,-1.1194,-1.1194,-1.1194,-0.124,-0.1296,0.0,0.0,0.0,0.0,0.0,0.0,0.0,0.0,0.0,0.0,0.0,0.0,0.0,0.0,0.0,0.0,0.0,0.0,0.0,0.0,0.0,0.0,0.0,0.0,0.0,0.0,0.0,0.0,0.0,-0.6234,-0.6631,-0.7428,-0.8028,-0.8924,-1.0019,-1.0216,-1.0708,-1.1194,-1.1194,-1.1194,-1.1194,-1.1194,-1.1194,-1.1194,-1.1194,-1.1194,-1.1194,-1.1194,-1.1194,-1.1194,-1.1194,-1.1194,-1.1194,-1.1194,-1.1194,-1.1194,-1.1194,-1.1194,-1.1194,-1.1194,-1.1194,-1.1194,-1.1194,-1.1194,-1.1194,-1.1194,-1.1194,-1.1194,-1.1194,-1.1194,-1.1194,-1.1194,-1.1194,-1.1194,-1.1194,-1.1482,-1.1673,-1.1673,-1.2538,-1.321,-1.321,-1.407,-1.4746,-1.4746,-1.5032,-1.5222,-1.5222,-1.5222,-1.5222,-1.5222,-1.5222,-1.5222,-1.5222,-1.5893,-1.5988,-1.5317,-1.5222,-1.4937,-1.4364,-1.4268,-1.4268,-1.4268,-1.4268,-1.398,-1.321,-1.321,-1.2829,-1.2155,-1.2155,-1.2155,-0.1375,0.0,0.0,0.0,0.0,0.0,0.0,0.0,0.0,0.0,0.0,0.0,0.0,0.0,0.0,0.0,0.0,0.0,0.0,0.0,0.0,0.0,0.0,0.0,0.0,0.0,0.0,0.0,0.0,0.0,0.0,-0.763,-0.8028,-0.8825,-0.962,-1.0019,-1.0019,-1.0801,-1.1194,-1.1194,-1.1194,-1.1194,-1.1194,-1.1194,-1.1194,-1.1194,-1.1194,-1.1194,-1.1194,-1.1194,-1.1194,-1.1194,-1.1194,-1.1194,-1.1194,-1.1194,-1.1194,-1.1194,-1.1194,-1.1194,-1.1194,-1.1194,-1.1194,-1.1194,-1.1194,-1.1194,-1.1194,-1.1194,-1.1194,-1.1194,-1.1194,-1.1194,-1.1194,-1.1194,-1.1194,-1.1194,-1.1194,-1.196,-1.2732,-1.2732,-1.3596,-1.4268,-1.4268,-1.5127,-1.5798,-1.5798,-1.6655,-1.7326,-1.7326,-1.7326,-1.7326,-1.7326,-1.7326,-1.7326,-1.7326,-1.7326,-1.7326,-1.7326,-1.7326,-1.6372,-1.4459,-1.4364,-1.4364,-1.4364,-1.4364,-1.4364,-1.4268,-1.4268,-1.4268,-1.4268,-1.4268,-1.4268,-0.1414,0.0,0.0,0.0,0.0,0.0,0.0,0.0,0.0,0.0,0.0,0.0,0.0,0.0,0.0,0.0,0.0,0.0,0.0,0.0,0.0,0.0,0.0,0.0,0.0,0.0,0.0,0.0,0.0,0.0,0.0,-0.8425,-0.8825,-0.962,-0.992,-1.0314,-1.0801,-1.1096,-1.1194,-1.1194,-1.1194,-1.1194,-1.1194,-1.1194,-1.1194,-1.1194,-1.1194,-1.1194,-1.1194,-1.1194,-1.1194,-1.1194,-1.1194,-1.1194,-1.1194,-1.1194,-1.1194,-1.1194,-1.1194,-1.1194,-1.1194,-1.1194,-1.1194,-1.1194,-1.1194,-1.1194,-1.1194,-1.1194,-1.1194,-1.1194,-1.1194,-1.1673,-1.2058,-1.1385,-1.177,-1.2252,-1.2252,-1.3113,-1.3788,-1.3788,-1.4651,-1.5317,-1.5317,-1.6177,-1.685,-1.685,-1.7138,-1.7326,-1.7326,-1.7326,-1.7326,-1.7326,-1.7326,-1.7326,-1.7326,-1.7326,-1.7326,-1.7326,-1.7326,-1.7044,-1.6466,-1.6372,-1.6372,-1.6372,-1.6372,-1.6082,-1.5317,-1.5317,-1.5032,-1.4268,-1.4268,-1.4268,0.0,0.0,0.0,0.0,0.0,0.0,0.0,0.0,0.0,0.0,0.0,0.0,0.0,0.0,0.0,0.0,0.0,0.0,0.0,0.0,0.0,0.0,0.0,0.0,0.0,0.0,0.0,0.0,0.0,0.0,0.0,-0.932,-0.962,-1.0413,-1.0511,-1.0703,-1.1194,-1.1194,-1.1194,-1.1194,-1.1194,-1.1194,-1.1194,-1.1194,-1.1194,-1.1194,-1.1194,-1.1194,-1.1194,-1.1194,-1.1194,-1.1194,-1.1194,-1.1194,-1.1194,-1.1194,-1.1194,-1.1194,-1.1194,-1.1194,-1.1194,-1.1194,-1.1194,-1.1194,-1.1194,-1.1194,-1.1194,-1.1194,-1.1194,-1.1194,-1.1194,-1.1965,-1.2538,-1.196,-1.2538,-1.3307,-1.3307,-1.4172,-1.4937,-1.4937,-1.5704,-1.6372,-1.6372,-1.6943,-1.7326,-1.7326,-1.7326,-1.7326,-1.7326,-1.7326,-1.7326,-1.7326,-1.7326,-1.7326,-1.7326,-1.7326,-1.7326,-1.7326,-1.7326,-1.7326,-1.7326,-1.7326,-1.7326,-1.7326,-1.7326,-1.7037,-1.6372,-1.6372,-1.6082,-1.5507,-1.5507,-1.5507,0.0,0.0,0.0,0.0,0.0,0.0,0.0,0.0,0.0,0.0,0.0,0.0,0.0,0.0,0.0,0.0,0.0,0.0,0.0,0.0,0.0,0.0,0.0,0.0,0.0,0.0,0.0,0.0,0.0,0.0,0.0,-1.0117,-1.0413,-1.1198,-1.1194,-1.1194,-1.1194,-1.1194,-1.1194,-1.1194,-1.1194,-1.1194,-1.1194,-1.1194,-1.1194,-1.1194,-1.1194,-1.1194,-1.1194,-1.1194,-1.1194,-1.1194,-1.1194,-1.1194,-1.1194,-1.1194,-1.1194,-1.1194,-1.1194,-1.1194,-1.1194,-1.1194,-1.1194,-1.1194,-1.1194,-1.1194,-1.1194,-1.1194,-1.1292,-1.1389,-1.1389,-1.2155,-1.3017,-1.3017,-1.3692,-1.4459,-1.4459,-1.5222,-1.5988,-1.5988,-1.6662,-1.7326,-1.7326,-1.7326,-1.7326,-1.7326,-1.7326,-1.7326,-1.7326,-1.7326,-1.7326,-1.7326,-1.7326,-1.7326,-1.7326,-1.7326,-1.7326,-1.7326,-1.7326,-1.7326,-1.7326,-1.7326,-1.7326,-1.7326,-1.7326,-1.7326,-1.7326,-1.7326,-1.7326,-1.7326,-1.7326,-1.7326,0.0,0.0,0.0,0.0,0.0,0.0,0.0,0.0,0.0,0.0,0.0,0.0,0.0,0.0,0.0,0.0,0.0,0.0,0.0,0.0,0.0,0.0,0.0,0.0,0.0,0.0,0.0,0.0,0.0,0.0,-1.09,-1.09,-1.0998,-1.1194,-1.1194,-1.1194,-1.1194,-1.1194,-1.1194,-1.1194,-1.1194,-1.1194,-1.1194,-1.1194,-1.1194,-1.1194,-1.1194,-1.1194,-1.1194,-1.1194,-1.1194,-1.1194,-1.1194,-1.1194,-1.1194,-1.1194,-1.1194,-1.1194,-1.1194,-1.1194,-1.1194,-1.1194,-1.1194,-1.1194,-1.1194,-1.1194,-1.1194,-1.1194,-1.177,-1.2344,-1.2344,-1.3782,-1.5127,-1.5127,-1.5317,-1.5514,-1.5514,-1.6271,-1.6951,-1.6951,-1.7138,-1.7326,-1.7326,-1.7326,-1.7326,-1.7326,-1.7326,-1.7326,-1.7326,-1.7326,-1.7326,-1.7326,-1.7326,-1.7326,-1.7326,-1.7326,-1.7326,-1.7326,-1.7326,-1.7326,-1.7326,-1.7326,-1.7326,-1.7326,-1.7326,-1.7326,-1.7326,-1.7326,-1.7326,-1.7326,-1.7326,-1.7326,0.0,0.0,0.0,0.0,0.0,0.0,0.0,0.0,0.0,0.0,0.0,0.0,0.0,0.0,0.0,0.0,0.0,0.0,0.0,0.0,0.0,0.0,0.0,0.0,0.0,0.0,0.0,0.0,0.0,-1.0706,-1.1189,-1.1194,-1.1194,-1.1194,-1.1194,-1.1194,-1.1194,-1.1194,-1.1194,-1.1194,-1.1194,-1.1194,-1.1194,-1.1194,-1.1194,-1.1194,-1.1194,-1.1194,-1.1194,-1.1194,-1.1194,-1.1194,-1.1194,-1.1194,-1.1194,-1.1194,-1.1194,-1.1194,-1.1194,-1.1194,-1.1194,-1.1194,-1.1194,-1.1194,-1.1194,-1.1194,-1.1292,-1.177,-1.2344,-1.2823,-1.3307,-1.4644,-1.5798,-1.5798,-1.6183,-1.656,-1.656,-1.6943,-1.7326,-1.7326,-1.7326,-1.7326,-1.7326,-1.7326,-1.7326,-1.7326,-1.7326,-1.7326,-1.7326,-1.7326,-1.7326,-1.7326,-1.7326,-1.7326,-1.7326,-1.7326,-1.7326,-1.7326,-1.7326,-1.7326,-1.7326,-1.7326,-1.7326,-1.7326,-1.7326,-1.7326,-1.7326,-1.7326,-1.7326,-1.7326,-1.7326,-1.7326,0.0,0.0,0.0,0.0,0.0,0.0,0.0,0.0,0.0,0.0,0.0,0.0,0.0,0.0,0.0,0.0,0.0,0.0,0.0,0.0,0.0,0.0,0.0,0.0,0.0,0.0,0.0,0.0,0.0,-1.0929,-1.1132,-1.1142,-1.1161,-1.1194,-1.1194,-1.1194,-1.1194,-1.1194,-1.1194,-1.1194,-1.1194,-1.1194,-1.1194,-1.1194,-1.1194,-1.1194,-1.1194,-1.1194,-1.1194,-1.1194,-1.1194,-1.1194,-1.1194,-1.1194,-1.1194,-1.1194,-1.1194,-1.1194,-1.1194,-1.1194,-1.1194,-1.1385,-1.1482,-1.1482,-1.1673,-1.1775,-1.1868,-1.2732,-1.3113,-1.3397,-1.4364,-1.5317,-1.6082,-1.6082,-1.6655,-1.7326,-1.7326,-1.7326,-1.7326,-1.7326,-1.7326,-1.7326,-1.7326,-1.7326,-1.7326,-1.7326,-1.7326,-1.7326,-1.7326,-1.7326,-1.7326,-1.7326,-1.7326,-1.7326,-1.7326,-1.7326,-1.7326,-1.7326,-1.7326,-1.7326,-1.7326,-1.7326,-1.7326,-1.7326,-1.7326,-1.7326,-1.7326,-1.7326,-1.7326,-1.7326,-1.7326,-1.7326,0.0,0.0,0.0,0.0,0.0,0.0,0.0,0.0,0.0,0.0,0.0,0.0,0.0,0.0,0.0,0.0,0.0,0.0,0.0,0.0,0.0,0.0,0.0,0.0,0.0,0.0,0.0,0.0,-1.0612,-1.0712,-1.0924,-1.0934,-1.1014,-1.1189,-1.1194,-1.1194,-1.1194,-1.1194,-1.1194,-1.1194,-1.1194,-1.1194,-1.1194,-1.1194,-1.1194,-1.1194,-1.1194,-1.1194,-1.1194,-1.1194,-1.1194,-1.1194,-1.1194,-1.1194,-1.1194,-1.1194,-1.1194,-1.1194,-1.1194,-1.1194,-1.1389,-1.2252,-1.2538,-1.2635,-1.3596,-1.3884,-1.3884,-1.4076,-1.4746,-1.5412,-1.5602,-1.6372,-1.7138,-1.7138,-1.7232,-1.7326,-1.7326,-1.7326,-1.7326,-1.7326,-1.7326,-1.7326,-1.7326,-1.7326,-1.7326,-1.7326,-1.7326,-1.7326,-1.7326,-1.7326,-1.7326,-1.7326,-1.7326,-1.7326,-1.7326,-1.7326,-1.7326,-1.7326,-1.7326,-1.7326,-1.7326,-1.7326,-1.7326,-1.7326,-1.7326,-1.7326,-1.7326,-1.7326,-1.7326,-1.7326,-1.7326,-1.7326,0.0,0.0,0.0,0.0,0.0,0.0,0.0,0.0,0.0,0.0,0.0,0.0,0.0,0.0,0.0,0.0,0.0,0.0,0.0,0.0,0.0,0.0,0.0,0.0,0.0,0.0,0.0,0.0,-1.0405,-1.0494,-1.0707,-1.0716,-1.0811,-1.1019,-1.1028,-1.108,-1.1194,-1.1194,-1.1194,-1.1194,-1.1194,-1.1194,-1.1194,-1.1194,-1.1194,-1.1194,-1.1194,-1.1194,-1.1194,-1.1194,-1.1194,-1.1194,-1.1194,-1.1194,-1.1194,-1.1194,-1.1194,-1.1194,-1.1194,-1.1194,-1.1385,-1.2344,-1.2727,-1.292,-1.398,-1.4268,-1.4459,-1.4937,-1.5412,-1.5893,-1.6466,-1.6943,-1.7326,-1.7326,-1.7326,-1.7326,-1.7326,-1.7326,-1.7326,-1.7326,-1.7326,-1.7326,-1.7326,-1.7326,-1.7326,-1.7326,-1.7326,-1.7326,-1.7326,-1.7326,-1.7326,-1.7326,-1.7326,-1.7326,-1.7326,-1.7326,-1.7326,-1.7326,-1.7326,-1.7326,-1.7326,-1.7326,-1.7326,-1.7326,-1.7326,-1.7326,-1.7326,-1.7326,-1.7326,-1.7326,-1.7326,-1.7326,0.0,0.0,0.0,0.0,0.0,0.0,0.0,0.0,0.0,0.0,0.0,0.0,0.0,0.0,0.0,0.0,0.0,0.0,0.0,0.0,0.0,0.0,0.0,0.0,0.0,0.0,0.0,0.0,-1.0192,-1.0282,-1.0485,-1.0499,-1.0594,-1.0806,-1.0868,-1.0967,-1.1118,-1.117,-1.1194,-1.1194,-1.1194,-1.1194,-1.1194,-1.1194,-1.1194,-1.1194,-1.1194,-1.1194,-1.1194,-1.1194,-1.1194,-1.1194,-1.1194,-1.1194,-1.1194,-1.1194,-1.1194,-1.1194,-1.1194,-1.1385,-1.177,-1.2727,-1.3307,-1.3686,-1.4746,-1.5032,-1.5222,-1.5988,-1.6177,-1.6372,-1.7138,-1.7326,-1.7326,-1.7326,-1.7326,-1.7326,-1.7326,-1.7326,-1.7326,-1.7326,-1.7326,-1.7326,-1.7326,-1.7326,-1.7326,-1.7326,-1.7326,-1.7326,-1.7326,-1.7326,-1.7326,-1.7326,-1.7326,-1.7326,-1.7326,-1.7326,-1.7326,-1.7326,-1.7326,-1.7326,-1.7326,-1.7326,-1.7326,-1.7326,-1.7326,-1.7326,-1.7326,-1.7326,-1.7326,-1.7326,-1.7326,-1.7326,0.0,0.0,0.0,0.0,0.0,0.0,0.0,0.0,0.0,0.0,0.0,0.0,0.0,0.0,0.0,0.0,0.0,0.0,0.0,0.0,0.0,0.0,0.0,0.0,0.0,0.0,0.0,0.0,-1.0057,-1.0064,-1.0277,-1.0291,-1.0381,-1.0584,-1.0787,-1.0901,-1.091,-1.1099,-1.1194,-1.1194,-1.1194,-1.1194,-1.1194,-1.1194,-1.1194,-1.1194,-1.1194,-1.1194,-1.1194,-1.1194,-1.1194,-1.1194,-1.1194,-1.1194,-1.1194,-1.1194,-1.1194,-1.1194,-1.1194,-1.1868,-1.2823,-1.3884,-1.4841,-1.5798,-1.685,-1.7138,-1.7138,-1.7232,-1.7232,-1.7232,-1.7326,-1.7326,-1.7326,-1.7326,-1.7326,-1.7326,-1.7326,-1.7326,-1.7326,-1.7326,-1.7326,-1.7326,-1.7326,-1.7326,-1.7326,-1.7326,-1.7326,-1.7326,-1.7326,-1.7326,-1.7326,-1.7326,-1.7326,-1.7326,-1.7326,-1.7326,-1.7326,-1.7326,-1.7326,-1.7326,-1.7326,-1.7326,-1.7326,-1.7326,-1.7326,-1.7326,-1.7326,-1.7326,-1.7326,-1.7326,-1.7326,-1.7326,0.0,0.0,0.0,0.0,0.0,0.0,0.0,0.0,0.0,0.0,0.0,0.0,0.0,0.0,0.0,0.0,0.0,0.0,0.0,0.0,0.0,0.0,0.0,0.0,0.0,0.0,0.0,0.0,0.0,-1.0071,-1.0064,-1.0069,-1.0164,-1.0371,-1.0456,-1.0627,-1.0891,-1.0967,-1.1066,-1.1194,-1.1194,-1.1194,-1.1194,-1.1194,-1.1194,-1.1194,-1.1194,-1.1194,-1.1194,-1.1194,-1.1194,-1.1194,-1.1194,-1.1194,-1.1194,-1.1194,-1.1194,-1.1194,-1.1194,-1.1868,-1.292,-1.398,-1.4937,-1.5988,-1.7037,-1.7326,-1.7326,-1.7326,-1.7326,-1.7326,-1.7326,-1.7326,-1.7326,-1.7326,-1.7326,-1.7326,-1.7326,-1.7326,-1.7326,-1.7326,-1.7326,-1.7326,-1.7326,-1.7326,-1.7326,-1.7326,-1.7326,-1.7326,-1.7326,-1.7326,-1.7326,-1.7326,-1.7326,-1.7326,-1.7326,-1.7326,-1.7326,-1.7326,-1.7326,-1.7326,-1.7326,-1.7326,-1.7326,-1.7326,-1.7326,-1.7326,-1.7326,-1.7326,-1.7326,-1.7326,-1.7326,-1.7326,0.0,0.0,0.0,0.0,0.0,0.0,0.0,0.0,0.0,0.0,0.0,0.0,0.0,0.0,0.0,0.0,0.0,0.0,0.0,0.0,0.0,0.0,0.0,0.0,0.0,0.0,0.0,0.0,0.0,0.0,-1.0038,-1.0038,-1.005,-1.0267,-1.0272,-1.0438,-1.0783,-1.0858,-1.0962,-1.1094,-1.1161,-1.1194,-1.1194,-1.1194,-1.1194,-1.1194,-1.1194,-1.1194,-1.1194,-1.1194,-1.1194,-1.1194,-1.1194,-1.1194,-1.1194,-1.1194,-1.1385,-1.1673,-1.1673,-1.2635,-1.3878,-1.4549,-1.5514,-1.6466,-1.7138,-1.7326,-1.7326,-1.7326,-1.7326,-1.7326,-1.7326,-1.7326,-1.7326,-1.7326,-1.7326,-1.7326,-1.7326,-1.7326,-1.7326,-1.7326,-1.7326,-1.7326,-1.7326,-1.7326,-1.7326,-1.7326,-1.7326,-1.7326,-1.7326,-1.7326,-1.7326,-1.7326,-1.7326,-1.7326,-1.7326,-1.7326,-1.7326,-1.7326,-1.7326,-1.7326,-1.7326,-1.7326,-1.7326,-1.7326,-1.7326,-1.7326,-1.7326,-1.7326,-1.7326,-1.7326,-1.7326,-1.7326,0.0,0.0,0.0,0.0,0.0,0.0,0.0,0.0,0.0,0.0,0.0,0.0,0.0,0.0,0.0,0.0,0.0,0.0,0.0,0.0,0.0,0.0,0.0,0.0,0.0,0.0,0.0,0.0,-1.0024,-1.0028,-1.0028,-1.0038,-1.005,-1.0258,-1.0263,-1.0362,-1.0565,-1.0773,-1.0882,-1.0886,-1.1085,-1.1179,-1.1184,-1.1184,-1.1189,-1.1194,-1.1194,-1.1194,-1.1194,-1.1194,-1.1194,-1.1194,-1.1194,-1.1194,-1.1292,-1.1292,-1.1868,-1.2732,-1.2732,-1.407,-1.5798,-1.5798,-1.6466,-1.7326,-1.7326,-1.7326,-1.7326,-1.7326,-1.7326,-1.7326,-1.7326,-1.7326,-1.7326,-1.7326,-1.7326,-1.7326,-1.7326,-1.7326,-1.7326,-1.7326,-1.7326,-1.7326,-1.7326,-1.7326,-1.7326,-1.7326,-1.7326,-1.7326,-1.7326,-1.7326,-1.7326,-1.7326,-1.7326,-1.7326,-1.7326,-1.7326,-1.7326,-1.7326,-1.7326,-1.7326,-1.7326,-1.7326,-1.7326,-1.7326,-1.7326,-1.7326,-1.7326,-1.7326,-1.7326,-1.7326,-1.7326,-1.7326,-0.1786,0.0,0.0,0.0,0.0,0.0,0.0,0.0,0.0,0.0,0.0,0.0,0.0,0.0,0.0,0.0,0.0,0.0,0.0,0.0,0.0,0.0,0.0,0.0,0.0,0.0,0.0,0.0,-0.9644,-0.9729,-0.9729,-0.9871,-1.0067,-1.0036,-1.0041,-1.0145,-1.0353,-1.0414,-1.0518,-1.0664,-1.0721,-1.0825,-1.0976,-1.0976,-1.1057,-1.1194,-1.1194,-1.1194,-1.1194,-1.1194,-1.1194,-1.1292,-1.196,-1.2252,-1.2344,-1.3119,-1.3596,-1.3884,-1.3884,-1.4746,-1.5798,-1.5798,-1.6466,-1.7326,-1.7326,-1.7326,-1.7326,-1.7326,-1.7326,-1.7326,-1.7326,-1.7326,-1.7326,-1.7326,-1.7326,-1.7326,-1.7326,-1.7326,-1.7326,-1.7326,-1.7326,-1.7326,-1.7326,-1.7326,-1.7326,-1.7326,-1.7326,-1.7326,-1.7326,-1.7326,-1.7326,-1.7326,-1.7326,-1.7326,-1.7326,-1.7326,-1.7326,-1.7326,-1.7326,-1.7326,-1.7326,-1.7326,-1.7326,-1.7326,-1.7326,-1.7326,-1.7326,-1.7326,-1.7326,-1.7326,-1.7326,-1.7326,0.0,0.0,0.0,0.0,0.0,0.0,0.0,0.0,0.0,0.0,0.0,0.0,0.0,0.0,0.0,0.0,0.0,0.0,0.0,0.0,0.0,0.0,0.0,0.0,0.0,-0.92,-0.9233,-0.9318,-0.9441,-0.9554,-0.9555,-0.9757,-0.9861,-1.0038,-1.0038,-1.01,-1.0135,-1.023,-1.0334,-1.0447,-1.0532,-1.0641,-1.0764,-1.0853,-1.0962,-1.1075,-1.1156,-1.1194,-1.1194,-1.1678,-1.1868,-1.1965,-1.292,-1.3403,-1.3403,-1.4076,-1.4555,-1.4937,-1.4937,-1.5602,-1.6466,-1.6466,-1.685,-1.7326,-1.7326,-1.7326,-1.7326,-1.7326,-1.7326,-1.7326,-1.7326,-1.7326,-1.7326,-1.7326,-1.7326,-1.7326,-1.7326,-1.7326,-1.7326,-1.7326,-1.7326,-1.7326,-1.7326,-1.7326,-1.7326,-1.7326,-1.7326,-1.7326,-1.7326,-1.7326,-1.7326,-1.7326,-1.7326,-1.7326,-1.7326,-1.7326,-1.7326,-1.7326,-1.7326,-1.7326,-1.7326,-1.7326,-1.7326,-1.7326,-1.7326,-1.7326,-1.7326,-1.7326,-1.7326,-1.7326,-1.7326,-1.7326,0.0,0.0,0.0,0.0,0.0,0.0,-0.4012,-0.4129,0.0,0.0,0.0,0.0,0.0,0.0,0.0,0.0,0.0,0.0,0.0,0.0,0.0,0.0,0.0,0.0,-0.8935,-0.8954,-0.9039,-0.9237,-0.9275,-0.9384,-0.9517,-0.955,-0.9729,-0.9908,-1.0024,-1.0038,-1.0038,-1.0145,-1.0239,-1.0239,-1.0419,-1.0518,-1.0546,-1.074,-1.0853,-1.0905,-1.1182,-1.1365,-1.1482,-1.2538,-1.292,-1.2823,-1.398,-1.4459,-1.4459,-1.4555,-1.5222,-1.5988,-1.5988,-1.656,-1.7326,-1.7326,-1.7326,-1.7326,-1.7326,-1.7326,-1.7326,-1.7326,-1.7326,-1.7326,-1.7326,-1.7326,-1.7326,-1.7326,-1.7326,-1.7326,-1.7326,-1.7326,-1.7326,-1.7326,-1.7326,-1.7326,-1.7326,-1.7326,-1.7326,-1.7326,-1.7326,-1.7326,-1.7326,-1.7326,-1.7326,-1.7326,-1.7326,-1.7326,-1.7326,-1.7326,-1.7326,-1.7326,-1.7326,-1.7326,-1.7326,-1.7326,-1.7326,-1.7326,-1.7326,-1.7326,-1.7326,-1.7326,-1.7326,-1.7326,-1.7326,-1.7326,0.0,0.0,0.0,0.0,0.0,0.0,0.0,-0.4047,0.0,0.0,0.0,0.0,0.0,0.0,0.0,0.0,0.0,0.0,0.0,0.0,0.0,0.0,0.0,0.0,-0.85,-0.8524,-0.8604,-0.8807,-0.8987,-0.9171,-0.9374,-0.9554,-0.9663,-0.9705,-0.9866,-1.0038,-1.0038,-1.0081,-1.01,-1.0105,-1.0143,-1.0164,-1.0334,-1.0376,-1.0579,-1.0991,-1.1782,-1.2278,-1.2538,-1.4453,-1.4166,-1.292,-1.474,-1.5514,-1.5602,-1.6466,-1.685,-1.7044,-1.7044,-1.7138,-1.7326,-1.7326,-1.7326,-1.7326,-1.7326,-1.7326,-1.7326,-1.7326,-1.7326,-1.7326,-1.7326,-1.7326,-1.7326,-1.7326,-1.7326,-1.7326,-1.7326,-1.7326,-1.7326,-1.7326,-1.7326,-1.7326,-1.7326,-1.7326,-1.7326,-1.7326,-1.7326,-1.7326,-1.7326,-1.7326,-1.7326,-1.7326,-1.7326,-1.7326,-1.7326,-1.7326,-1.7326,-1.7326,-1.7326,-1.7326,-1.7326,-1.7326,-1.7326,-1.7326,-1.7326,-1.7326,-1.7326,-1.7326,-1.7326,-1.7326,-1.7326,-1.7326,0.0,0.0,0.0,-0.3357,0.0,0.0,0.0,0.0,0.0,0.0,0.0,0.0,0.0,0.0,0.0,0.0,0.0,0.0,0.0,0.0,0.0,0.0,0.0,0.0,-0.808,-0.8184,-0.833,-0.8538,-0.8652,-0.885,-0.9157,-0.928,-0.9384,-0.9483,-0.9686,-0.98,-0.98,-0.9899,-1.0207,-1.0636,-1.0212,-1.027,-1.0813,-1.0488,-1.0653,-1.1308,-1.1884,-1.2527,-1.3406,-1.4916,-1.4999,-1.4358,-1.5988,-1.656,-1.656,-1.7138,-1.7326,-1.7326,-1.7326,-1.7326,-1.7326,-1.7326,-1.7326,-1.7326,-1.7326,-1.7326,-1.7326,-1.7326,-1.7326,-1.7326,-1.7326,-1.7326,-1.7326,-1.7326,-1.7326,-1.7326,-1.7326,-1.7326,-1.7326,-1.7326,-1.7326,-1.7326,-1.7326,-1.7326,-1.7326,-1.7326,-1.7326,-1.7326,-1.7326,-1.7326,-1.7326,-1.7326,-1.7326,-1.7326,-1.7326,-1.7326,-1.7326,-1.7326,-1.7326,-1.7326,-1.7326,-1.7326,-1.7326,-1.7326,-1.7326,-1.7326,-1.7326,-1.7326,-1.7326,-1.7326,-1.7326,-1.7326,0.0,0.0,0.0,0.0,0.0,-0.4452,0.0,0.0,0.0,0.0,0.0,0.0,0.0,0.0,0.0,0.0,0.0,0.0,0.0,0.0,0.0,0.0,0.0,0.0,-0.7711,-0.7867,-0.8066,-0.8321,-0.8269,-0.8425,-0.8878,-0.894,-0.9053,-0.9256,-0.9474,-0.9522,-0.9559,-0.9809,-1.0428,-1.1322,-1.0554,-1.0722,-1.1585,-1.1004,-1.1196,-1.1854,-1.2237,-1.3003,-1.4075,-1.5147,-1.5776,-1.6101,-1.6922,-1.7326,-1.7326,-1.7326,-1.7326,-1.7326,-1.7326,-1.7326,-1.7326,-1.7326,-1.7326,-1.7326,-1.7326,-1.7326,-1.7326,-1.7326,-1.7326,-1.7326,-1.7326,-1.7326,-1.7326,-1.7326,-1.7326,-1.7326,-1.7326,-1.7326,-1.7326,-1.7326,-1.7326,-1.7326,-1.7326,-1.7326,-1.7326,-1.7326,-1.7326,-1.7326,-1.7326,-1.7326,-1.7326,-1.7326,-1.7326,-1.7326,-1.7326,-1.7326,-1.7326,-1.7326,-1.7326,-1.7326,-1.7326,-1.7326,-1.7326,-1.7326,-1.7326,-1.7326,-1.7326,-1.7326,-1.7326,-1.7326,-1.7326,-1.7326,0.0,0.0,0.0,0.0,-0.5136,0.0,0.0,0.0,0.0,0.0,0.0,0.0,0.0,0.0,0.0,0.0,0.0,0.0,0.0,0.0,0.0,0.0,0.0,0.0,0.0,-0.7579,-0.7692,-0.8085,-0.7787,-0.7844,-0.8444,-0.8642,-0.8836,-0.9053,-0.9252,-0.9455,-0.9559,-0.9667,-1.0193,-1.1327,-1.1241,-1.166,-1.2504,-1.2454,-1.2596,-1.2909,-1.3818,-1.4432,-1.4797,-1.6175,-1.6781,-1.6839,-1.7123,-1.7326,-1.7326,-1.7326,-1.7326,-1.7326,-1.7326,-1.7326,-1.7326,-1.7326,-1.7326,-1.7326,-1.7326,-1.7326,-1.7326,-1.7326,-1.7326,-1.7326,-1.7326,-1.7326,-1.7326,-1.7326,-1.7326,-1.7326,-1.7326,-1.7326,-1.7326,-1.7326,-1.7326,-1.7326,-1.7326,-1.7326,-1.7326,-1.7326,-1.7326,-1.7326,-1.7326,-1.7326,-1.7326,-1.7326,-1.7326,-1.7326,-1.7326,-1.7326,-1.7326,-1.7326,-1.7326,-1.7326,-1.7326,-1.7326,-1.7326,-1.7326,-1.7326,-1.7326,-1.7326,-1.7326,-1.7326,-1.7326,-1.7326,-1.7326,0.0,0.0,0.0,0.0,0.0,0.0,-0.5367,0.0,-0.5864,0.0,0.0,0.0,0.0,0.0,0.0,0.0,0.0,0.0,0.0,0.0,0.0,0.0,0.0,0.0,0.0,0.0,0.0,0.0,-0.7775,-0.8084,-0.9109,-0.8944,-0.8955,-0.9256,-0.9135,-0.9431,-0.9923,-1.0254,-1.1182,-1.2624,-1.2269,-1.2595,-1.3451,-1.2936,-1.3083,-1.3636,-1.4064,-1.4754,-1.5486,-1.6074,-1.6411,-1.6601,-1.693,-1.7165,-1.7326,-1.7326,-1.7326,-1.7326,-1.7326,-1.7326,-1.7326,-1.7326,-1.7326,-1.7326,-1.7326,-1.7326,-1.7326,-1.7326,-1.7326,-1.7326,-1.7326,-1.7326,-1.7326,-1.7326,-1.7326,-1.7326,-1.7326,-1.7326,-1.7326,-1.7326,-1.7326,-1.7326,-1.7326,-1.7326,-1.7326,-1.7326,-1.7326,-1.7326,-1.7326,-1.7326,-1.7326,-1.7326,-1.7326,-1.7326,-1.7326,-1.7326,-1.7326,-1.7326,-1.7326,-1.7326,-1.7326,-1.7326,-1.7326,-1.7326,-1.7326,-1.7326,-1.7326,-1.7326,-1.7326,-1.7326,-1.7326,-1.7326,-0.5187,0.0,0.0,0.0,0.0,0.0,0.0,0.0,0.0,0.0,0.0,0.0,0.0,0.0,0.0,0.0,0.0,0.0,0.0,0.0,0.0,0.0,0.0,0.0,0.0,0.0,0.0,-0.7777,0.0,-0.8099,-0.9491,-0.9248,-0.9109,-0.9405,-0.9448,-0.9674,-1.0183,-1.0836,-1.1974,-1.3614,-1.315,-1.3458,-1.4398,-1.3789,-1.3789,-1.4482,-1.4482,-1.4958,-1.5789,-1.5877,-1.6045,-1.6279,-1.6594,-1.6916,-1.7208,-1.7296,-1.7326,-1.7326,-1.7326,-1.7326,-1.7326,-1.7326,-1.7326,-1.7326,-1.7326,-1.7326,-1.7326,-1.7326,-1.7326,-1.7326,-1.7326,-1.7326,-1.7326,-1.7326,-1.7326,-1.7326,-1.7326,-1.7326,-1.7326,-1.7326,-1.7326,-1.7326,-1.7326,-1.7326,-1.7326,-1.7326,-1.7326,-1.7326,-1.7326,-1.7326,-1.7326,-1.7326,-1.7326,-1.7326,-1.7326,-1.7326,-1.7326,-1.7326,-1.7326,-1.7326,-1.7326,-1.7326,-1.7326,-1.7326,-1.7326,-1.7326,-1.7326,-1.7326,-1.7326,-1.7326,-1.7326,-1.7326,0.0,0.0,0.0,-0.5668,0.0,0.0,0.0,0.0,-0.6103,0.0,0.0,0.0,0.0,0.0,0.0,0.0,0.0,0.0,0.0,0.0,0.0,0.0,0.0,0.0,0.0,0.0,0.0,0.0,-0.7068,-0.7533,-0.9249,-0.9326,-0.9292,-0.94,-1.0153,-1.0467,-1.0178,-1.0967,-1.2091,-1.3614,-1.3621,-1.42,-1.5347,-1.534,-1.534,-1.5347,-1.5347,-1.5347,-1.5467,-1.5789,-1.5921,-1.5965,-1.6265,-1.6587,-1.6908,-1.7216,-1.7326,-1.7326,-1.7326,-1.7326,-1.7326,-1.7326,-1.7326,-1.7326,-1.7326,-1.7326,-1.7326,-1.7326,-1.7326,-1.7326,-1.7326,-1.7326,-1.7326,-1.7326,-1.7326,-1.7326,-1.7326,-1.7326,-1.7326,-1.7326,-1.7326,-1.7326,-1.7326,-1.7326,-1.7326,-1.7326,-1.7326,-1.7326,-1.7326,-1.7326,-1.7326,-1.7326,-1.7326,-1.7326,-1.7326,-1.7326,-1.7326,-1.7326,-1.7326,-1.7326,-1.7326,-1.7326,-1.7326,-1.7326,-1.7326,-1.7326,-1.7326,-1.7326,-1.7326,-1.7326,-1.7326,-1.7326,0.0,0.0,-0.6703,-0.614,0.0,0.0,0.0,0.0,0.0,0.0,0.0,0.0,0.0,0.0,0.0,0.0,0.0,0.0,0.0,0.0,0.0,0.0,0.0,0.0,0.0,0.0,0.0,0.0,-0.7616,0.0,-0.9765,-0.9719,-0.9919,-1.0368,-1.0526,-1.0955,-1.1615,-1.2101,-1.2939,-1.4223,-1.4349,-1.4775,-1.5431,-1.5431,-1.5431,-1.5431,-1.5431,-1.5431,-1.5438,-1.5548,-1.5599,-1.5621,-1.5943,-1.6257,-1.6572,-1.6894,-1.715,-1.7326,-1.7326,-1.7326,-1.7326,-1.7326,-1.7326,-1.7326,-1.7326,-1.7326,-1.7326,-1.7326,-1.7326,-1.7326,-1.7326,-1.7326,-1.7326,-1.7326,-1.7326,-1.7326,-1.7326,-1.7326,-1.7326,-1.7326,-1.7326,-1.7326,-1.7326,-1.7326,-1.7326,-1.7326,-1.7326,-1.7326,-1.7326,-1.7326,-1.7326,-1.7326,-1.7326,-1.7326,-1.7326,-1.7326,-1.7326,-1.7326,-1.7326,-1.7326,-1.7326,-1.7326,-1.7326,-1.7326,-1.7326,-1.7326,-1.7326,-1.7326,-1.7326,-1.7326,-1.7326,-1.7326,-0.6492,-0.6837,0.0,-0.6473,-0.6281,0.0,-0.5812,0.0,0.0,0.0,0.0,0.0,0.0,0.0,0.0,0.0,0.0,0.0,0.0,0.0,0.0,0.0,0.0,0.0,0.0,0.0,-0.7007,-0.7856,-0.7849,0.0,0.0,-1.0142,-1.0383,-1.0896,-1.1175,-1.1605,-1.2298,-1.2798,-1.3506,-1.4296,-1.4618,-1.494,-1.5262,-1.5379,-1.5431,-1.5431,-1.5431,-1.5431,-1.5431,-1.5431,-1.5431,-1.5452,-1.5657,-1.5935,-1.6265,-1.6696,-1.7055,-1.7326,-1.7326,-1.7326,-1.7326,-1.7326,-1.7326,-1.7326,-1.7326,-1.7326,-1.7326,-1.7326,-1.7326,-1.7326,-1.7326,-1.7326,-1.7326,-1.7326,-1.7326,-1.7326,-1.7326,-1.7326,-1.7326,-1.7326,-1.7326,-1.7326,-1.7326,-1.7326,-1.7326,-1.7326,-1.7326,-1.7326,-1.7326,-1.7326,-1.7326,-1.7326,-1.7326,-1.7326,-1.7326,-1.7326,-1.7326,-1.7326,-1.7326,-1.7326,-1.7326,-1.7326,-1.7326,-1.7326,-1.7326,-1.7326,-1.7326,-1.7326,-1.7326,-1.7326,-1.7326,-1.7326]},{"header":{"parameterUnit":"m.s-1","parameterCategory":1,"la1":30.6,"la2":29.2853,"lo1":-89.7004,"lo2":-87.6739,"dy":0.0162,"dx":0.0183,"nx":112,"ny":82,"refTime":"2025-07-04T12:00:00:Z","depth":0,"parameterNumber":3,"parameterNumberName":"V-component_of_WINDS"},"data":[0.0,0.0,0.0,0.0,0.0,0.0,0.0,0.0,0.0,0.0,0.0,0.0,0.0,0.0,0.0,0.0,0.0,0.0,0.0,0.0,0.0,0.0,0.0,0.0,0.0,0.0,0.0,0.0,0.0,0.0,0.0,0.0,0.0,0.0,0.0,0.0,0.0,0.0,0.0,0.0,0.0,0.0,0.0,0.0,0.0,0.0,0.0,0.0,0.0,0.0,0.0,0.0,0.0,0.0,0.0,0.0,0.0,0.0,0.0,0.0,0.0,0.0,0.0,0.0,0.0,0.0,0.0,0.0,0.0,0.0,0.0,0.0,0.0,0.0,0.0,0.0,0.0,0.0,0.0,0.0,0.0,0.0,0.0,0.0,0.0,0.0,0.0,0.0,0.0,0.0,0.0,-1.9573,-2.3248,-2.5201,-2.4467,-2.4157,-2.2339,-1.8451,0.0,0.0,0.0,0.0,0.0,0.0,0.0,0.0,0.0,0.0,0.0,0.0,0.0,0.0,0.0,0.0,0.0,0.0,0.0,0.0,0.0,0.0,0.0,0.0,0.0,0.0,0.0,0.0,0.0,0.0,0.0,0.0,0.0,0.0,0.0,0.0,0.0,0.0,0.0,0.0,0.0,0.0,0.0,0.0,0.0,0.0,0.0,0.0,0.0,0.0,0.0,0.0,0.0,0.0,0.0,0.0,0.0,0.0,0.0,0.0,0.0,0.0,0.0,0.0,0.0,0.0,0.0,0.0,0.0,0.0,0.0,0.0,0.0,0.0,0.0,0.0,0.0,0.0,0.0,0.0,0.0,0.0,0.0,0.0,0.0,0.0,0.0,0.0,0.0,0.0,0.0,0.0,0.0,0.0,0.0,0.0,0.0,0.0,0.0,0.0,0.0,0.0,0.0,0.0,-1.8206,-2.2919,-2.4679,-2.5453,-2.5318,-2.3944,-2.2204,-2.0128,0.0,0.0,0.0,0.0,0.0,0.0,0.0,0.0,0.0,0.0,0.0,0.0,0.0,0.0,0.0,0.0,0.0,0.0,0.0,0.0,0.0,0.0,0.0,0.0,0.0,0.0,0.0,0.0,0.0,0.0,0.0,0.0,0.0,0.0,0.0,0.0,0.0,0.0,0.0,0.0,0.0,0.0,0.0,0.0,0.0,0.0,0.0,0.0,0.0,0.0,0.0,0.0,0.0,0.0,0.0,0.0,0.0,0.0,0.0,0.0,0.0,0.0,0.0,0.0,0.0,0.0,0.0,0.0,0.0,0.0,0.0,0.0,0.0,0.0,0.0,0.0,0.0,0.0,0.0,0.0,0.0,0.0,0.0,0.0,0.0,0.0,0.0,0.0,0.0,0.0,0.0,0.0,0.0,0.0,0.0,0.0,0.0,0.0,0.0,0.0,0.0,0.0,0.0,-1.7465,-1.9554,-2.3751,-2.4989,-2.5511,-2.5511,-2.3906,-2.2184,-2.0515,-1.7562,0.0,0.0,0.0,0.0,0.0,0.0,0.0,0.0,0.0,0.0,0.0,0.0,0.0,0.0,0.0,0.0,0.0,0.0,0.0,0.0,0.0,0.0,0.0,0.0,0.0,0.0,0.0,0.0,0.0,0.0,0.0,0.0,0.0,0.0,0.0,0.0,0.0,0.0,0.0,0.0,0.0,0.0,0.0,0.0,0.0,0.0,0.0,0.0,0.0,0.0,0.0,0.0,0.0,0.0,0.0,0.0,0.0,0.0,0.0,0.0,0.0,0.0,0.0,0.0,0.0,0.0,0.0,0.0,0.0,0.0,0.0,0.0,0.0,0.0,0.0,0.0,0.0,0.0,0.0,0.0,0.0,0.0,0.0,0.0,0.0,0.0,0.0,0.0,0.0,0.0,0.0,0.0,0.0,0.0,0.0,0.0,0.0,0.0,0.0,0.0,0.0,0.0,-1.9496,-2.1159,-2.4176,-2.5105,-2.5511,-2.5511,-2.3732,-2.1972,-2.0495,-1.7001,0.0,0.0,0.0,0.0,0.0,0.0,0.0,0.0,0.0,0.0,0.0,0.0,0.0,0.0,0.0,0.0,0.0,0.0,0.0,0.0,0.0,0.0,0.0,0.0,0.0,0.0,0.0,0.0,0.0,0.0,0.0,0.0,0.0,0.0,0.0,0.0,0.0,0.0,0.0,0.0,0.0,0.0,0.0,0.0,0.0,0.0,0.0,0.0,0.0,0.0,0.0,0.0,0.0,0.0,0.0,0.0,0.0,0.0,0.0,0.0,0.0,0.0,0.0,0.0,0.0,0.0,0.0,0.0,0.0,0.0,0.0,0.0,0.0,0.0,0.0,0.0,0.0,0.0,0.0,0.0,0.0,0.0,0.0,0.0,0.0,0.0,0.0,0.0,0.0,0.0,0.0,0.0,0.0,0.0,0.0,0.0,0.0,0.0,0.0,0.0,0.0,0.0,-2.0676,-2.3345,-2.5221,-2.5453,-2.5511,-2.5511,-2.3209,-2.1398,-2.0457,-1.643,0.0,0.0,0.0,0.0,0.0,0.0,0.0,0.0,0.0,0.0,0.0,0.0,0.0,0.0,0.0,0.0,0.0,0.0,0.0,0.0,0.0,0.0,0.0,0.0,0.0,0.0,0.0,0.0,0.0,0.0,0.0,0.0,0.0,0.0,0.0,0.0,0.0,0.0,0.0,0.0,0.0,0.0,0.0,0.0,0.0,0.0,0.0,0.0,0.0,0.0,0.0,0.0,0.0,0.0,0.0,0.0,0.0,0.0,0.0,0.0,0.0,0.0,0.0,0.0,0.0,0.0,0.0,0.0,0.0,0.0,0.0,0.0,0.0,0.0,0.0,0.0,0.0,0.0,0.0,0.0,0.0,0.0,0.0,0.0,0.0,0.0,0.0,0.0,0.0,0.0,0.0,0.0,0.0,0.0,0.0,0.0,0.0,0.0,0.0,0.0,0.0,0.0,-1.9863,-2.2416,0.0,-2.5511,-2.5511,-2.5511,-2.3616,-2.1855,-2.0495,0.0,0.0,0.0,0.0,0.0,0.0,0.0,0.0,0.0,0.0,0.0,0.0,0.0,0.0,0.0,0.0,0.0,0.0,0.0,0.0,0.0,0.0,0.0,0.0,0.0,0.0,0.0,0.0,0.0,0.0,0.0,0.0,0.0,0.0,0.0,0.0,0.0,0.0,0.0,0.0,0.0,0.0,0.0,0.0,0.0,0.0,0.0,0.0,0.0,0.0,0.0,0.0,0.0,0.0,0.0,0.0,0.0,0.0,0.0,0.0,0.0,0.0,0.0,0.0,0.0,0.0,0.0,0.0,0.0,0.0,0.0,0.0,0.0,0.0,0.0,0.0,0.0,0.0,0.0,0.0,0.0,0.0,0.0,0.0,0.0,0.0,0.0,0.0,0.0,0.0,0.0,0.0,0.0,0.0,0.0,0.0,0.0,0.0,0.0,0.0,0.0,0.0,-1.7426,-1.9786,-2.23,0.0,-2.5511,-2.5511,-2.5511,-2.3674,-2.1797,-2.0089,0.0,0.0,0.0,0.0,0.0,0.0,0.0,0.0,0.0,0.0,0.0,0.0,0.0,0.0,0.0,0.0,0.0,0.0,0.0,0.0,0.0,0.0,0.0,0.0,0.0,0.0,0.0,0.0,0.0,0.0,0.0,0.0,0.0,0.0,0.0,0.0,0.0,0.0,0.0,0.0,0.0,0.0,0.0,0.0,0.0,0.0,0.0,0.0,0.0,0.0,0.0,0.0,0.0,0.0,0.0,0.0,0.0,0.0,0.0,0.0,0.0,0.0,0.0,0.0,0.0,0.0,0.0,0.0,0.0,0.0,0.0,0.0,0.0,0.0,0.0,0.0,0.0,0.0,0.0,0.0,0.0,0.0,0.0,0.0,0.0,0.0,0.0,0.0,0.0,0.0,0.0,0.0,0.0,0.0,0.0,0.0,0.0,0.0,0.0,0.0,0.0,0.0,-1.76,-2.0792,-2.3577,-2.5318,-2.5511,-2.5511,-2.5511,-2.3171,-2.0972,0.0,0.0,0.0,0.0,0.0,0.0,0.0,0.0,0.0,0.0,0.0,0.0,0.0,0.0,0.0,0.0,0.0,0.0,0.0,0.0,0.0,0.0,0.0,0.0,0.0,0.0,0.0,0.0,0.0,0.0,0.0,0.0,0.0,0.0,0.0,0.0,0.0,0.0,0.0,0.0,0.0,0.0,0.0,0.0,0.0,0.0,0.0,0.0,0.0,0.0,0.0,0.0,0.0,0.0,0.0,0.0,0.0,0.0,0.0,0.0,0.0,0.0,0.0,0.0,0.0,0.0,0.0,0.0,0.0,0.0,0.0,0.0,0.0,0.0,0.0,0.0,0.0,0.0,0.0,0.0,0.0,0.0,0.0,0.0,0.0,0.0,0.0,0.0,0.0,0.0,0.0,0.0,0.0,0.0,0.0,0.0,0.0,0.0,0.0,0.0,0.0,0.0,0.0,-1.8413,-2.1179,-2.3577,-2.5318,-2.5511,-2.5511,-2.5511,-2.3674,-2.1817,-2.0109,0.0,0.0,0.0,0.0,0.0,0.0,0.0,0.0,0.0,0.0,0.0,0.0,0.0,0.0,0.0,0.0,0.0,0.0,0.0,0.0,0.0,0.0,0.0,0.0,0.0,0.0,0.0,0.0,0.0,0.0,0.0,0.0,0.0,0.0,0.0,0.0,0.0,0.0,0.0,0.0,0.0,0.0,0.0,0.0,0.0,0.0,0.0,0.0,0.0,0.0,0.0,0.0,0.0,0.0,0.0,0.0,0.0,0.0,0.0,0.0,0.0,0.0,0.0,0.0,0.0,0.0,0.0,0.0,0.0,0.0,0.0,0.0,0.0,0.0,0.0,0.0,0.0,0.0,0.0,0.0,0.0,0.0,0.0,0.0,0.0,0.0,0.0,0.0,0.0,0.0,0.0,0.0,0.0,0.0,0.0,0.0,0.0,0.0,0.0,0.0,0.0,0.0,-1.8819,-2.1623,-2.3944,-2.5356,-2.5511,-2.5511,-2.5511,-2.4215,-2.2552,-2.0534,0.0,0.0,0.0,0.0,0.0,0.0,0.0,0.0,0.0,0.0,0.0,0.0,0.0,0.0,0.0,0.0,0.0,0.0,0.0,0.0,0.0,0.0,0.0,0.0,0.0,0.0,0.0,0.0,0.0,0.0,0.0,0.0,0.0,0.0,0.0,0.0,0.0,0.0,0.0,0.0,0.0,0.0,0.0,0.0,0.0,0.0,0.0,0.0,0.0,0.0,0.0,0.0,0.0,0.0,0.0,0.0,0.0,0.0,0.0,0.0,0.0,0.0,0.0,0.0,0.0,0.0,0.0,0.0,0.0,0.0,0.0,0.0,0.0,0.0,0.0,0.0,0.0,0.0,0.0,0.0,0.0,0.0,0.0,0.0,0.0,0.0,0.0,0.0,0.0,0.0,0.0,0.0,0.0,0.0,0.0,0.0,0.0,0.0,0.0,0.0,0.0,0.0,-1.8993,-2.2146,-2.4525,-2.5414,-2.5511,-2.5511,-2.5511,-2.4699,-2.3171,-2.0792,0.0,0.0,0.0,0.0,0.0,0.0,0.0,0.0,0.0,0.0,0.0,0.0,0.0,0.0,0.0,0.0,0.0,0.0,0.0,0.0,0.0,0.0,0.0,0.0,0.0,0.0,0.0,0.0,0.0,0.0,0.0,0.0,0.0,0.0,0.0,0.0,0.0,0.0,0.0,0.0,0.0,0.0,0.0,0.0,0.0,0.0,0.0,0.0,0.0,0.0,0.0,0.0,0.0,0.0,0.0,0.0,0.0,0.0,0.0,0.0,-1.9734,0.0,0.0,0.0,0.0,0.0,0.0,0.0,0.0,0.0,0.0,0.0,0.0,0.0,0.0,0.0,0.0,0.0,0.0,0.0,0.0,0.0,0.0,0.0,0.0,0.0,0.0,0.0,0.0,0.0,0.0,0.0,0.0,0.0,0.0,0.0,0.0,0.0,0.0,0.0,0.0,0.0,-1.9819,-2.2513,-2.4525,-2.5414,-2.5511,-2.5511,-2.5511,-2.4699,-2.3707,-2.2514,-1.9997,0.0,0.0,0.0,0.0,0.0,0.0,0.0,0.0,0.0,0.0,0.0,0.0,0.0,0.0,0.0,0.0,0.0,0.0,0.0,0.0,0.0,0.0,0.0,0.0,0.0,0.0,0.0,0.0,0.0,0.0,0.0,0.0,0.0,0.0,0.0,0.0,0.0,0.0,0.0,0.0,0.0,0.0,0.0,0.0,0.0,0.0,0.0,0.0,0.0,0.0,0.0,0.0,0.0,0.0,0.0,0.0,0.0,0.0,0.0,0.0,-2.2486,0.0,0.0,0.0,0.0,0.0,0.0,0.0,0.0,0.0,0.0,0.0,0.0,0.0,0.0,0.0,0.0,0.0,0.0,0.0,0.0,0.0,0.0,0.0,0.0,0.0,0.0,0.0,0.0,0.0,0.0,0.0,0.0,0.0,0.0,0.0,0.0,0.0,0.0,0.0,0.0,-2.0753,-2.3248,-2.5008,-2.5453,-2.5511,-2.5511,-2.5511,-2.5085,-2.4474,-2.3624,-2.1559,0.0,0.0,0.0,0.0,0.0,0.0,0.0,0.0,0.0,0.0,0.0,0.0,0.0,0.0,0.0,0.0,0.0,0.0,0.0,0.0,0.0,0.0,0.0,0.0,0.0,0.0,0.0,0.0,0.0,0.0,0.0,0.0,0.0,0.0,0.0,0.0,0.0,0.0,0.0,0.0,0.0,0.0,0.0,0.0,0.0,0.0,0.0,0.0,0.0,0.0,0.0,0.0,0.0,-2.8088,-2.9318,-3.0723,-3.0723,-3.1465,-3.2539,-2.8264,-2.6976,-2.77,-2.5082,0.0,0.0,0.0,0.0,0.0,0.0,0.0,0.0,0.0,0.0,0.0,0.0,0.0,0.0,0.0,0.0,0.0,0.0,0.0,0.0,0.0,0.0,0.0,0.0,-2.6,-2.5855,-2.1643,0.0,0.0,0.0,0.0,0.0,0.0,0.0,0.0,0.0,0.0,0.0,-2.1688,-2.4002,-2.5511,-2.5511,-2.5511,-2.5511,-2.5511,-2.5511,-2.5182,-2.4474,-2.2984,-2.1455,0.0,0.0,0.0,0.0,0.0,0.0,0.0,0.0,0.0,0.0,0.0,0.0,0.0,0.0,0.0,0.0,0.0,0.0,0.0,0.0,0.0,0.0,0.0,0.0,0.0,0.0,0.0,0.0,0.0,0.0,0.0,0.0,-1.421,-1.583,0.0,0.0,0.0,0.0,0.0,0.0,0.0,0.0,0.0,0.0,0.0,0.0,0.0,-2.6117,-2.8383,-3.0196,-3.1524,-3.2402,-3.4042,-3.494,-3.5154,-3.5154,-3.5271,-3.5447,-3.4761,0.0,-3.1231,-2.8674,0.0,0.0,0.0,0.0,0.0,0.0,0.0,0.0,0.0,0.0,0.0,0.0,0.0,0.0,0.0,0.0,0.0,0.0,0.0,0.0,0.0,0.0,-2.7503,-2.7514,-2.7677,-2.7666,0.0,-2.3959,-2.1043,-1.9928,-1.8608,0.0,0.0,0.0,0.0,0.0,0.0,0.0,-2.2532,-2.435,-2.5511,-2.5511,-2.5511,-2.5511,-2.5511,-2.5511,-2.5449,-2.533,-2.4411,-2.3463,-2.2532,-2.0828,0.0,0.0,0.0,0.0,0.0,0.0,0.0,0.0,0.0,0.0,0.0,0.0,0.0,0.0,0.0,0.0,0.0,0.0,0.0,0.0,0.0,0.0,0.0,0.0,0.0,0.0,0.0,0.0,0.0,-1.4386,-1.6572,-1.7333,-1.8736,-1.9087,0.0,0.0,0.0,0.0,0.0,0.0,0.0,0.0,0.0,-2.7366,-2.9123,-3.0801,-3.2441,-3.4178,-3.5213,-3.5603,-3.6852,-3.7458,-3.7458,-3.7458,-3.7711,-3.8102,-3.7653,-3.7067,-3.615,-3.2617,-3.0431,-2.9123,0.0,0.0,0.0,0.0,-2.6679,-2.7493,-2.7959,-2.8645,-2.9195,-2.8223,0.0,0.0,0.0,0.0,0.0,0.0,0.0,0.0,0.0,0.0,-3.0133,-3.0133,-3.052,-3.0868,-3.0868,-2.9031,-2.6566,0.0,-2.2641,-2.1411,-1.9128,0.0,0.0,0.0,0.0,-2.2977,-2.4196,-2.584,-2.671,-2.6218,-2.616,-2.5986,-2.555,-2.5511,-2.5499,-2.5495,-2.5132,-2.4539,-2.3709,-2.2514,-2.0886,0.0,0.0,0.0,0.0,0.0,0.0,0.0,0.0,0.0,0.0,0.0,0.0,0.0,0.0,0.0,0.0,0.0,0.0,0.0,0.0,0.0,0.0,0.0,0.0,0.0,0.0,0.0,0.0,-1.6632,-1.8916,-1.9558,-2.1745,-2.2525,0.0,0.0,0.0,0.0,0.0,0.0,-2.6859,-2.8049,-2.9708,-3.207,-3.3612,-3.4822,-3.5681,-3.7184,-3.8043,-3.8277,-3.9156,-3.9683,-3.9897,-3.9897,-4.0229,-4.0756,-4.0151,-4.0229,-4.0464,-3.6169,-3.3886,-3.2949,-3.1472,-3.0367,-2.9707,-3.0526,-3.1242,-3.1912,-3.2717,-3.3419,-3.3793,-3.2688,-3.1598,-3.0464,-2.9142,0.0,0.0,0.0,0.0,-2.9979,-3.0202,-3.1197,-3.2126,-3.2126,-3.2618,-3.3102,-3.3102,-3.258,-3.1081,0.0,-2.6613,-2.553,-2.2525,0.0,0.0,0.0,0.0,-2.5143,-2.6033,-2.7232,-2.7755,-2.7097,-2.7039,-2.671,-2.5878,-2.582,-2.5724,-2.5511,-2.5511,-2.5209,-2.4561,-2.3953,-2.2837,-2.1103,0.0,0.0,0.0,0.0,0.0,0.0,0.0,0.0,0.0,0.0,0.0,0.0,0.0,0.0,0.0,0.0,0.0,0.0,0.0,0.0,0.0,0.0,0.0,0.0,0.0,0.0,0.0,0.0,0.0,-2.3792,-2.5668,0.0,0.0,0.0,0.0,-2.5492,-2.7737,-2.9552,-3.0489,-3.2148,-3.3905,-3.5678,-3.6638,-3.7516,-3.8397,-3.9253,-4.0093,-4.0912,-4.1791,-4.265,-4.343,-4.343,-4.3469,-4.3509,-4.345,-4.3469,-4.3177,-3.8863,-3.6599,-3.5701,-3.4802,-3.3906,-3.3242,-3.412,-3.4472,-3.4624,-3.5412,-3.5741,-3.5872,-3.6566,-3.5621,-3.4225,-3.4052,-3.2329,0.0,0.0,-3.1584,-3.1864,-3.2696,-3.2966,-3.3024,-3.3024,-3.3063,-3.3102,-3.3102,-3.3063,-3.2502,0.0,-2.9669,-2.8528,-2.6702,0.0,-2.6373,-2.6373,-2.6489,-2.6884,-2.7755,-2.7956,-2.7976,-2.7937,-2.7929,-2.758,-2.6702,-2.6644,-2.6315,-2.555,-2.5511,-2.5472,-2.5434,-2.5395,-2.4571,-2.2895,-2.1048,0.0,0.0,0.0,0.0,0.0,0.0,0.0,0.0,0.0,0.0,0.0,0.0,0.0,0.0,0.0,0.0,0.0,0.0,0.0,0.0,0.0,0.0,0.0,0.0,0.0,0.0,0.0,0.0,-2.6663,-2.8401,0.0,-2.8576,-2.9084,-2.9786,-3.0587,-3.1524,-3.291,-3.4881,-3.5564,-3.6696,-3.8394,-3.9292,-4.0151,-4.1049,-4.1888,-4.2463,-4.2788,-4.3099,-4.3396,-4.3691,-4.3691,-4.3691,-4.3691,-4.3691,-4.3691,-4.3574,-4.2051,-4.0566,-3.9193,-3.8319,-3.7459,-3.6721,-3.7038,-3.7474,-3.7877,-3.7592,-3.7856,-3.8244,-3.7966,-3.7424,-3.6781,-3.6198,-3.5762,-3.5433,-3.5162,-3.5491,-3.5994,-3.6303,-3.5974,-3.5549,-3.5549,-3.5143,-3.4775,-3.4775,-3.4775,-3.4427,-3.3267,-3.1894,-3.0366,-2.8664,-2.8373,-2.7987,-2.6876,-2.7658,-2.8489,-2.8799,-2.9321,-2.9457,-2.8896,-2.8838,-2.847,-2.76,-2.702,-2.6602,-2.6343,-2.5817,-2.5499,-2.549,-2.5507,-2.5186,-2.4497,-2.2733,-2.0869,0.0,0.0,0.0,0.0,0.0,0.0,0.0,0.0,0.0,0.0,0.0,0.0,0.0,0.0,0.0,0.0,0.0,0.0,0.0,0.0,0.0,0.0,0.0,0.0,0.0,0.0,-2.7216,-2.8947,-3.0899,-3.1992,-3.1719,-3.248,-3.3476,-3.4627,-3.4998,-3.6033,-3.8043,-3.8414,-3.9234,-4.0639,-4.1518,-4.224,-4.2825,-4.34,-4.3859,-4.414,-4.4121,-4.4256,-4.4542,-4.4542,-4.4542,-4.4542,-4.4542,-4.4542,-4.4542,-4.4542,-4.3686,-4.2303,-4.1423,-4.073,-4.0212,-4.0218,-4.0557,-4.0894,-4.0023,-4.0049,-4.0335,-3.9432,-3.8924,-3.8551,-3.7959,-3.7986,-3.8083,-3.7502,-3.7754,-3.8199,-3.8199,-3.7773,-3.7348,-3.7348,-3.6922,-3.6458,-3.6168,-3.6091,-3.5839,-3.4988,-3.3673,-3.2222,-3.083,-3.0578,-3.0192,-2.9022,-2.9843,-3.0482,-3.0172,-3.0656,-3.0675,-2.9824,-2.9747,-2.9379,-2.8509,-2.7638,-2.702,-2.6738,-2.5901,-2.5421,-2.5398,-2.5437,-2.5412,-2.5302,-2.3582,-2.1856,-2.0112,0.0,0.0,0.0,0.0,0.0,0.0,0.0,0.0,0.0,0.0,0.0,0.0,0.0,0.0,0.0,0.0,0.0,0.0,0.0,0.0,0.0,0.0,0.0,-2.4551,-2.6816,-2.9079,-3.0765,-3.3222,-3.4452,-3.3632,-3.5857,-3.734,-3.7379,-3.818,-3.9019,-3.9839,-4.0717,-4.1579,-4.2415,-4.3277,-4.3746,-4.3746,-4.3764,-4.4198,-4.5038,-4.4978,-4.5382,-4.6202,-4.6202,-4.6202,-4.6202,-4.6202,-4.6202,-4.6202,-4.6202,-4.5704,-4.484,-4.3977,-4.3626,-4.3602,-4.3598,-4.3598,-4.3474,-4.2619,-4.2285,-4.2073,-4.1167,-4.0341,-3.9691,-3.9615,-3.8992,-3.8315,-3.8295,-3.8276,-3.8276,-3.8276,-3.8257,-3.8237,-3.8237,-3.8218,-3.7967,-3.7116,-3.6922,-3.6671,-3.5897,-3.5027,-3.4156,-3.3286,-3.314,-3.3121,-3.3102,-3.3102,0.0,-3.1952,-3.1816,-3.1507,-3.0714,-3.0617,-3.025,-2.9399,-2.8509,-2.7612,-2.6699,-2.5803,-2.5284,-2.5241,-2.5379,-2.5395,-2.5331,-2.3611,-2.1857,-2.0076,0.0,0.0,0.0,0.0,0.0,0.0,0.0,0.0,0.0,0.0,0.0,0.0,0.0,0.0,0.0,0.0,0.0,0.0,0.0,0.0,0.0,0.0,-2.8103,-2.81,-3.0351,-3.2635,-3.4371,-3.5769,-3.6735,-3.7126,-3.7828,-3.8473,-3.9078,-3.9917,-4.0795,-4.1635,-4.2509,-4.3082,-4.3335,-4.414,-4.457,-4.457,-4.5193,-4.5637,-4.588,-4.5851,-4.5972,-4.6201,-4.6201,-4.6201,-4.6201,-4.6201,-4.6201,-4.6201,-4.6201,-4.6059,-4.5754,-4.489,-4.4158,-4.3598,-4.3604,-4.3569,-4.3481,-4.3199,-4.3048,-4.2969,-4.2692,-4.246,-4.217,-4.1519,-4.1158,-4.0829,-4.0249,-4.0094,-4.0094,-4.0094,-3.9611,-3.9127,-3.9127,-3.8663,-3.8141,-3.7889,-3.7348,-3.6826,-3.6613,-3.5916,-3.5065,-3.4195,-3.404,-3.3828,-3.3198,-3.3102,0.0,-3.2773,-3.2193,-3.1719,-3.1487,-3.0946,-3.0501,-3.0269,-2.8857,-2.7918,-2.7694,-2.6276,-2.5727,-2.6334,-2.6293,-2.6177,-2.6025,-2.4347,-2.2939,0.0,0.0,0.0,0.0,0.0,0.0,0.0,0.0,0.0,0.0,0.0,0.0,0.0,0.0,0.0,0.0,0.0,0.0,0.0,0.0,0.0,0.0,-2.912,-3.1379,-3.2076,-3.3483,-3.4958,-3.6347,-3.7594,-3.8545,-3.9053,-3.9437,-3.9995,-4.0834,-4.135,-4.2021,-4.2898,-4.3749,-4.4199,-4.4199,-4.5016,-4.544,-4.544,-4.5941,-4.6206,-4.6206,-4.6192,-4.6209,-4.6196,-4.6196,-4.6196,-4.6196,-4.6196,-4.6196,-4.6196,-4.6162,-4.6154,0.0,0.0,0.0,0.0,0.0,-4.4559,-4.4458,-4.4075,-4.3898,-4.3788,-4.3421,-4.3305,-4.3208,-4.2705,-4.2531,-4.2376,-4.1545,-4.1293,-4.1235,-4.0887,-4.0423,-4.0036,-4.0036,-3.9649,-3.9185,-3.8818,-3.8353,-3.7773,-3.7038,-3.6516,0.0,-3.5085,-3.493,-3.4775,-3.4272,-3.4195,-3.406,-3.3692,-3.3209,-3.2745,-3.2367,-3.1932,-3.1507,-3.1139,-2.9815,0.0,0.0,0.0,-2.6602,-2.7123,-2.705,0.0,0.0,0.0,0.0,0.0,0.0,0.0,0.0,-2.2159,-2.2197,0.0,0.0,0.0,0.0,0.0,0.0,0.0,0.0,0.0,0.0,0.0,0.0,0.0,0.0,0.0,0.0,-3.2108,-3.4272,-3.5967,-3.6289,-3.6629,-3.7391,-3.8866,-3.9843,-3.9941,-4.0734,-4.1565,-4.2346,-4.2574,-4.3027,-4.3789,0.0,0.0,0.0,0.0,-4.6198,-4.6198,-4.6195,-4.6201,-4.6201,-4.6203,-4.6196,-4.6196,-4.6196,-4.6196,-4.6196,-4.6196,-4.6196,-4.6196,-4.6138,-4.6102,-4.613,-4.6154,-4.6146,-4.6084,-4.6017,-4.5964,-4.5789,-4.5072,0.0,0.0,-4.3827,-4.3576,-4.3556,-4.3479,-4.346,-4.3266,-4.2396,-4.2086,-4.1835,-4.1119,-4.0868,-4.079,-4.079,-4.079,-4.0578,-3.9816,-3.9584,-3.903,-3.7483,-3.7116,-3.6826,-3.6091,-3.582,-3.5704,-3.5704,-3.5704,-3.5414,-3.464,-3.4447,-3.4098,-3.3344,0.0,0.0,-3.199,-3.1067,-3.0221,-2.9501,-2.8472,-2.7847,-2.7746,-2.7739,-2.7739,-2.772,-2.7725,-2.7695,-2.7646,-2.7835,-2.793,-2.7854,-2.5481,-2.5146,0.0,0.0,0.0,0.0,0.0,0.0,0.0,0.0,0.0,0.0,0.0,0.0,0.0,0.0,0.0,-3.3165,-3.4662,-3.6025,-3.7759,-3.8603,-3.9112,-3.9283,-3.9598,-4.0075,-4.0778,-4.1638,-4.2225,-4.2381,-4.3649,-4.4487,-4.4663,-4.5486,-4.5941,-4.5941,-4.6108,-4.6209,-4.6209,-4.6196,-4.6196,-4.6196,0.0,0.0,-4.6196,-4.6196,-4.6196,-4.6196,-4.6196,-4.6196,-4.6196,-4.6189,-4.6189,-4.6162,-4.6075,-4.6027,-4.6017,-4.6007,-4.5964,-4.5866,-4.5711,-4.5615,-4.5529,-4.5374,-4.5316,-4.52,-4.4543,-4.4349,0.0,-4.3285,-4.2531,-4.1951,-4.1816,-4.1293,-4.079,-4.079,-4.079,-4.0752,-4.0578,-4.001,-3.941,-3.905,-3.8431,-3.7909,-3.7735,-3.6593,-3.5704,-3.5704,-3.5704,-3.5646,-3.5472,-3.4833,-3.4331,-3.4176,-3.3415,-3.2875,-3.2702,-3.1834,-3.1213,-3.1059,-3.0209,-2.9371,-2.8602,-2.8621,-2.8598,-2.8491,-2.8495,-2.848,-2.8483,-2.9829,-3.0473,-3.0435,-2.8597,-2.793,0.0,0.0,0.0,0.0,0.0,0.0,0.0,0.0,0.0,0.0,0.0,-2.7622,0.0,0.0,-3.2943,-3.5524,-3.666,-3.7662,-3.8967,-3.9532,-3.9792,-3.9799,-4.02,-4.0798,-4.168,-4.2136,-4.2746,-4.3585,-4.4435,-4.5093,-4.5522,-4.5963,-4.6195,-4.6195,-4.619,-4.6196,-4.6196,-4.6196,-4.6196,-4.6196,-4.6196,-4.6196,-4.6196,-4.6196,-4.6189,-4.6146,-4.6189,-4.6154,-4.6093,-4.6047,-4.6027,-4.5997,-4.5929,-4.5953,-4.5997,-4.5964,-4.5917,-4.5854,-4.5854,-4.5841,-4.58,-4.58,-4.58,-4.5722,-4.5316,-4.52,-4.5026,-4.4194,-4.3634,-4.3208,-4.2763,-4.2028,-4.139,-4.139,-4.1081,-4.079,-4.079,-4.0462,-4.0017,-3.9584,-3.9146,-3.8702,-3.8276,-3.7522,-3.6806,-3.6361,-3.5955,-3.5704,-3.5704,-3.5264,-3.494,-3.494,-3.4437,-3.3928,-3.3486,-3.2664,-3.2101,-3.1962,-3.1607,-3.1153,-3.0611,-3.063,-3.0633,-3.0549,-3.0549,-3.0549,-3.0549,-3.1402,-3.18,-3.18,-3.1402,-3.0985,0.0,0.0,0.0,0.0,0.0,0.0,0.0,0.0,-2.644,-2.834,-2.9801,-3.1435,-3.3723,-3.4714,-3.5743,-3.7434,-3.8285,-3.9065,-3.9922,-4.0058,-4.0058,-4.0058,-4.0677,-4.1432,-4.229,-4.2529,-4.3264,-4.4784,-4.5055,-4.547,-4.6158,-4.6203,-4.6196,-4.6196,-4.6196,-4.6196,-4.6196,-4.6189,-4.6189,-4.6189,-4.6181,-4.6154,-4.6154,-4.6154,-4.6138,-4.6084,-4.6138,-4.6093,-4.5997,-4.5953,-4.5893,-4.5841,-4.5841,-4.5905,-4.5975,-4.5917,-4.5854,-4.58,-4.58,-4.58,-4.58,-4.58,-4.58,-4.58,-4.58,-4.58,-4.5664,-4.5026,-4.4717,-4.4446,-4.373,-4.2918,-4.2241,-4.2241,-4.1622,-4.1023,-4.1023,-4.0906,-4.0578,-3.9894,-3.9758,-3.9514,-3.8774,-3.8511,-3.8136,-3.729,-3.6582,-3.6087,-3.5933,-3.5791,-3.563,-3.5476,-3.5326,-3.4967,-3.4228,-3.3578,-3.3061,-3.2689,-3.274,-3.268,-3.2406,-3.2406,-3.2406,-3.2406,-3.2577,-3.2653,-3.2653,-3.2823,-3.2899,-3.2918,-3.3771,-3.3638,-2.0109,-2.1219,0.0,-2.5519,-2.5634,-2.6566,0.0,0.0,-3.1948,-3.4404,-3.5042,-3.551,-3.6576,-3.6849,-3.7492,-3.9221,-3.9591,-3.9961,-4.0838,-4.0955,-4.0955,-4.0955,-4.1039,-4.1428,-4.2227,-4.3013,-4.3851,-4.4832,-4.5625,-4.6105,-4.619,-4.6203,-4.6196,-4.6196,-4.6196,-4.6196,-4.6196,-4.6146,-4.6102,-4.6102,-4.6037,-4.6017,-4.6017,-4.6017,-4.6017,-4.6007,-4.6017,-4.6007,-4.5997,-4.5997,-4.5986,-4.5986,-4.5986,-4.5953,-4.5898,-4.5841,-4.5814,-4.58,-4.58,-4.58,-4.58,-4.58,-4.58,-4.58,-4.58,-4.58,-4.578,-4.5684,-4.5142,-4.4581,-4.4485,-4.3808,-4.315,-4.315,-4.2492,-4.1874,-4.1874,-4.1293,-4.0771,-4.0674,-4.0636,-4.0572,-4.0289,-3.9658,-3.8915,-3.8168,-3.7894,-3.7481,-3.6781,-3.6517,-3.6102,-3.5407,-3.5203,-3.5032,-3.4812,-3.4718,-3.4357,-3.36,-3.358,-3.322,-3.2425,-3.2406,-3.2406,-3.2406,-3.3164,-3.3543,-3.3562,-3.4263,-3.4624,-3.4643,-3.5514,-3.5059,-2.3968,0.0,0.0,0.0,-2.9698,-3.0963,-3.4004,-3.4507,-3.4753,-3.6323,-3.7058,-3.7681,-3.8558,-3.8714,-3.9123,0.0,-4.0955,-4.1227,-4.111,-4.15,-4.1617,-4.1169,-4.111,-4.1617,-4.2942,-4.3383,-4.4169,-4.5553,-4.5981,-4.6196,-4.6196,-4.6196,-4.6196,-4.6196,-4.6154,-4.6154,-4.6196,-4.6138,-4.613,-4.6154,-4.6138,-4.613,-4.613,-4.6075,-4.6047,-4.5997,-4.5929,-4.5917,-4.5941,-4.5905,-4.5873,-4.5873,-4.5873,-4.588,-4.5835,-4.5848,-4.5822,-4.58,-4.58,-4.58,-4.58,-4.58,-4.58,-4.58,-4.58,-4.58,-4.58,-4.58,-4.5548,-4.5297,-4.5297,-4.4678,-4.4059,-4.4059,-4.3401,-4.2763,-4.2763,-4.2086,-4.1474,-4.1407,-4.0968,-4.0559,-4.0399,-4.0095,-3.9784,-3.9465,-3.8535,-3.7755,-3.7429,-3.7242,-3.6971,-3.6575,-3.6045,-3.5723,-3.5647,-3.5192,-3.4756,-3.4415,-3.4396,-3.4226,-3.3866,-3.3847,-3.3847,-3.3847,-3.4699,-3.5154,-3.5154,-3.595,-3.6348,-3.6348,-3.6727,-3.6519,-2.6576,0.0,0.0,-3.1414,-3.315,-3.4749,-3.5845,-3.6562,-3.722,-3.8096,-3.8597,-3.9039,-3.9656,-3.9799,0.0,-4.0597,-4.1584,-4.2098,-4.1507,-4.1922,-4.2085,-4.15,-4.1247,-4.1753,-4.3442,-4.3598,-4.4325,-4.6059,-4.6196,-4.6196,-4.6196,-4.6196,-4.6196,-4.6196,-4.6154,-4.6146,-4.6196,-4.613,-4.6093,-4.6146,-4.6102,-4.6093,-4.6084,-4.6027,-4.5997,-4.5941,-4.5835,-4.5841,-4.588,-4.5827,-4.58,-4.58,-4.58,-4.58,-4.5814,-4.5848,-4.5835,-4.58,-4.58,-4.58,-4.58,-4.58,-4.58,-4.58,-4.58,-4.58,-4.58,-4.58,-4.58,-4.58,-4.58,-4.5327,-4.4887,-4.4916,-4.4197,-4.353,-4.3578,-4.2855,-4.2136,-4.1813,-4.1239,-4.0688,-4.0304,-4.0248,-4.023,-4.0194,-3.9145,-3.8322,-3.8127,-3.7773,-3.7509,-3.7411,-3.6879,-3.6519,-3.6519,-3.595,-3.559,-3.559,-3.559,-3.559,-3.559,-3.559,-3.559,-3.559,-3.6196,-3.6519,-3.6519,-3.7106,-3.739,-3.7409,-3.7637,-3.775,0.0,0.0,-3.2387,-3.4082,-3.5791,-3.7525,-3.924,-3.9669,-3.9922,-4.0799,-4.0331,-3.9754,-3.9707,-3.9767,-3.9767,-3.9671,-4.114,-4.2286,-4.2268,-4.2272,-4.2299,-4.2279,-4.1578,-4.1753,0.0,-4.3598,-4.4325,-4.6059,-4.6196,-4.6196,-4.6196,-4.6196,-4.6196,-4.6196,-4.6196,-4.6196,-4.6196,-4.6075,-4.6007,-4.6007,-4.5861,-4.5814,-4.5814,-4.5814,-4.5814,-4.5814,-4.58,-4.58,-4.5814,-4.58,-4.58,-4.58,-4.58,-4.58,-4.58,-4.5814,-4.58,-4.58,-4.58,-4.58,-4.58,-4.58,-4.58,-4.58,-4.58,-4.58,-4.58,-4.58,-4.58,-4.58,-4.58,-4.5688,-4.5607,-4.5733,-4.4903,-4.4095,-4.4234,-4.3476,-4.2544,-4.1759,-4.1586,-4.1263,-4.0273,-4.0101,-4.0061,-3.9914,-3.9873,-3.9596,-3.8937,-3.8023,-3.7411,-3.739,-3.7371,-3.7353,-3.7353,-3.7334,-3.7315,-3.7315,-3.7315,-3.7315,-3.7315,-3.7315,-3.7315,-3.7315,-3.7353,-3.7353,-3.7353,-3.739,-3.739,-3.7409,-3.8262,-3.8662,0.0,0.0,-3.4311,-3.661,-3.8052,-3.924,-4.0409,-4.0662,-4.0578,-4.0247,-3.952,-3.8741,-3.8091,-3.7994,-3.8195,-3.8779,-4.0762,-4.2244,-4.2291,-4.3261,-4.3736,-4.3152,-4.2902,0.0,0.0,0.0,0.0,-4.6059,-4.6196,-4.6189,-4.6138,-4.6181,-4.6189,-4.6138,-4.6138,-4.6138,-4.6138,-4.6037,-4.5997,-4.5997,-4.5944,-4.5917,-4.588,-4.588,-4.5835,-4.58,-4.58,-4.58,-4.58,-4.58,-4.58,-4.58,-4.58,-4.58,-4.58,-4.58,-4.58,-4.58,-4.58,-4.58,-4.58,-4.58,-4.58,-4.58,-4.58,-4.58,-4.58,-4.58,-4.5757,-4.5661,-4.5661,-4.5563,-4.5475,-4.5528,-4.5245,-4.4978,-4.5015,-4.4307,-4.3561,-4.3215,-4.2659,-4.197,-4.1005,-4.0832,-4.0621,-3.9987,-3.9889,-3.9816,-3.9577,-3.9269,-3.9058,-3.9058,-3.8584,-3.8243,-3.8243,-3.7732,-3.739,-3.739,-3.739,-3.739,-3.739,-3.739,-3.739,-3.739,-3.7959,-3.8243,-3.8243,-3.8793,-3.9058,-3.9077,-3.9361,-3.9513,0.0,-3.4661,-3.6084,-3.8383,-3.9598,-4.039,-4.0935,-4.0811,-4.031,-3.9427,-3.8098,-3.6917,-3.6313,-3.5956,-3.6236,-3.7741,-4.0124,-4.2002,-4.2641,-4.3914,-4.4595,-4.4031,-4.3736,0.0,0.0,0.0,0.0,-4.6079,-4.6196,-4.6189,-4.6138,-4.6181,-4.6189,-4.6138,-4.6102,-4.6093,-4.6093,-4.6007,-4.5964,-4.5941,-4.5941,-4.5917,-4.5848,-4.5848,-4.5854,-4.58,-4.58,-4.58,-4.58,-4.58,-4.58,-4.58,-4.58,-4.58,-4.58,-4.58,-4.58,-4.58,-4.58,-4.58,-4.58,-4.58,-4.58,-4.58,-4.5737,-4.5723,-4.5708,-4.5677,-4.5596,-4.5528,-4.5528,-4.5438,-4.5341,-4.54,-4.5321,-4.5239,-4.5301,-4.482,-4.4281,-4.3907,-4.339,-4.2699,-4.1791,-4.1635,-4.1446,-4.0896,-4.0555,-4.0252,-3.9927,-3.9889,-3.9889,-3.9889,-3.9437,-3.9134,-3.9134,-3.8622,-3.83,-3.83,-3.83,-3.83,-3.83,-3.83,-3.83,-3.83,-3.8831,-3.9134,-3.9134,-3.9968,-4.0344,-4.0385,-4.0669,-4.0802,-3.433,-3.6045,-3.774,-3.9435,-4.0441,-4.0996,-4.0937,-4.0205,-3.9274,-3.8393,-3.6209,-3.4445,0.0,0.0,-3.4056,-3.6565,-3.9221,-4.1579,-4.3264,-4.4275,-4.4859,0.0,0.0,0.0,0.0,0.0,0.0,-4.6137,0.0,-4.6196,-4.6196,-4.6196,-4.6196,-4.6189,-4.6138,-4.6093,-4.6093,-4.6003,-4.5945,-4.5916,-4.5877,-4.5858,-4.5858,-4.5819,-4.58,-4.58,-4.58,-4.58,-4.58,-4.58,-4.58,-4.58,-4.58,-4.58,-4.58,-4.5786,-4.5786,-4.5786,-4.5786,-4.5766,-4.58,-4.58,-4.5786,-4.5771,-4.5629,-4.5596,-4.5563,-4.5438,-4.54,-4.54,-4.54,-4.53,-4.5235,-4.5341,-4.5132,-4.4943,-4.5148,-4.5014,-4.4668,-4.391,-4.3739,-4.3436,-4.2621,-4.2431,-4.2412,-4.2412,-4.1749,-4.0953,-4.0079,-3.9927,-3.9889,-3.9889,-3.9889,-3.9889,-3.9889,-3.9889,-3.9889,-3.9889,-3.9889,-3.9889,-3.9889,-3.9889,-3.9908,-3.9965,-3.9965,-3.9984,-4.0022,-4.0858,-4.1275,-4.1294,-4.2052,-4.2412,-3.6863,-3.8305,-3.9396,-4.0506,-4.0889,-4.0821,-4.0178,-3.9334,-3.8093,-3.5931,-3.4011,-3.2322,0.0,0.0,0.0,-3.4847,-3.8355,0.0,-4.3186,-4.4691,0.0,0.0,0.0,-4.551,-4.5743,-4.5823,0.0,0.0,-4.6162,-4.6189,-4.6138,-4.613,-4.6102,-4.6047,-4.6027,-4.5997,-4.5953,-4.6519,-4.711,-4.7734,-4.7076,-4.6767,-4.6748,-4.609,-4.58,-4.58,-4.58,-4.58,-4.58,-4.58,-4.58,-4.58,-4.5692,-4.5645,-4.5645,-4.5545,-4.5493,-4.5493,-4.5493,-4.5563,-4.5645,-4.5645,-4.558,-4.5493,-4.5456,-4.5438,-4.5438,-4.5419,-4.5341,-4.5237,-4.5237,-4.5106,-4.4991,-4.5038,-4.4967,-4.4919,-4.4986,-4.4938,-4.4838,-4.463,-4.4118,-4.3625,-4.3417,-4.2829,-4.2412,-4.2412,-4.2242,-4.1806,-4.0972,-4.0309,-3.9889,-3.9889,-3.9889,-3.9889,-3.9889,-3.9889,-3.9889,-3.9889,-3.9889,-3.9889,-3.9889,-3.9889,-4.0214,-4.0858,-4.0877,-4.1162,-4.1768,-4.1996,-4.209,-4.2109,-4.2299,-4.2412,-3.8552,-3.9695,-4.0448,-4.0968,-4.0738,-4.0057,-3.8832,-3.7564,-3.5918,-3.3363,-3.1508,0.0,0.0,0.0,0.0,0.0,0.0,0.0,-4.2565,-4.4308,-4.551,0.0,-4.5986,0.0,-4.6047,-4.613,-4.6154,0.0,-4.6189,-4.6189,-4.6146,-4.613,-4.6084,-4.6056,-4.5986,-4.6104,-4.6429,-4.726,-4.7927,-4.8392,-4.7908,-4.7676,-4.7657,-4.7154,-4.6941,-4.6941,0.0,-4.668,-4.6287,-4.6287,-4.6024,-4.5613,-4.5545,-4.551,-4.5493,-4.5438,-4.54,-4.54,-4.54,-4.5419,-4.5419,-4.5493,-4.5456,-4.54,-4.5321,-4.532,-4.5281,-4.5218,-4.5129,-4.508,-4.508,-4.4967,-4.4895,-4.4895,-4.4895,-4.4895,-4.4895,-4.4895,-4.4895,-4.4895,-4.4535,-4.4232,-4.4232,-4.3815,-4.3512,-4.3512,-4.3208,-4.281,-4.2356,-4.1541,-4.101,-4.101,-4.101,-4.0858,-4.0517,-4.0479,-4.0479,-4.0479,-4.0479,-4.0631,-4.0991,-4.101,-4.1237,-4.173,-4.173,-4.1958,-4.2412,-4.2791,-4.2981,-4.2981,-4.3341,-4.3512,-3.9715,-4.048,-4.103,-4.1085,-4.0361,-3.9138,-3.7342,-3.5456,-3.3326,-3.0719,0.0,0.0,-2.7671,0.0,-3.0036,-3.2753,0.0,-3.9102,-4.1956,-4.3699,-4.4982,-4.5789,-4.5905,-4.5929,-4.5997,-4.6066,-4.613,-4.6162,-4.6189,-4.6189,-4.6189,-4.6111,-4.6075,-4.6066,-4.605,-4.6448,-4.725,-4.814,-4.8624,-4.874,-4.8624,-4.8566,-4.8566,-4.845,-4.8377,-4.8361,-4.8361,-4.7854,-4.7043,-4.7043,-4.6529,-4.5726,-4.5572,-4.5534,-4.5514,-4.538,-4.5322,-4.5322,-4.5322,-4.5258,-4.5192,-4.5321,-4.5361,-4.5321,-4.5213,-4.517,-4.5125,-4.4943,-4.4895,-4.4895,-4.4895,-4.4895,-4.4895,-4.4895,-4.4895,-4.4895,-4.4895,-4.4895,-4.4895,-4.4895,-4.4895,-4.4895,-4.4895,-4.4895,-4.4895,-4.4895,-4.4308,-4.3853,-4.3853,-4.3019,-4.2412,-4.2412,-4.2412,-4.2128,-4.1427,-4.137,-4.137,-4.137,-4.137,-4.1673,-4.2375,-4.2412,-4.245,-4.2583,-4.2583,-4.264,-4.2735,-4.3493,-4.3853,-4.3872,-4.4573,-4.4895,-4.0611,-4.0987,-4.1085,-4.1104,-4.0395,-3.9035,-3.6581,-3.4148,0.0,0.0,0.0,-2.5809,-2.5033,-2.6759,0.0,-3.26,0.0,0.0,0.0,0.0,-4.4931,0.0,0.0,0.0,0.0,0.0,0.0,0.0,0.0,-4.613,-4.613,-4.5997,-4.5917,-4.5848,-4.6538,-4.7303,-4.8159,-4.9049,-4.9803,-5.0461,-4.9784,-4.9475,-4.9455,-4.874,-4.8311,-4.8155,-4.8155,0.0,-4.7721,-4.7721,-4.7625,-4.7393,-4.6538,-4.6228,-4.6129,-4.5308,-4.4991,-4.4991,-4.4991,-4.4967,-4.4967,-4.5173,-4.5129,-4.4991,-4.4943,-4.4943,-4.4943,-4.4895,-4.4895,-4.4895,-4.4895,-4.4895,-4.4895,-4.4895,-4.4895,-4.4895,-4.4895,-4.4895,-4.4895,-4.4895,-4.4895,-4.4895,-4.4895,-4.4895,-4.4895,-4.4895,-4.4781,-4.4687,-4.4687,-4.336,-4.2412,-4.2412,-4.2412,-4.2356,-4.2204,-4.2204,-4.2204,-4.2204,-4.2204,-4.2261,-4.2393,-4.2412,-4.2754,-4.3455,-4.3474,-4.3796,-4.4478,-4.463,-4.4687,-4.4706,-4.4838,-4.4895,-4.0754,-4.103,-4.1045,-4.1045,-3.9687,-3.7661,-3.5092,0.0,0.0,0.0,0.0,-2.42,-2.4193,0.0,0.0,0.0,0.0,0.0,0.0,0.0,0.0,0.0,0.0,0.0,0.0,0.0,0.0,0.0,0.0,-4.6007,-4.6056,-4.5944,-4.588,-4.5814,-4.6651,-4.7521,-4.8392,-4.9262,-5.0113,-5.0906,-5.0519,-5.0326,-5.0306,-4.99,-4.9608,-4.943,-4.8967,-4.8644,-4.8398,-4.7977,-4.772,-4.759,-4.7115,-4.6673,-4.6231,-4.5735,-4.5293,-4.4895,-4.4895,-4.4895,-4.4938,-4.5014,-4.4986,-4.4895,-4.4895,-4.4895,-4.4895,-4.4895,-4.4895,-4.4895,-4.4895,-4.4895,-4.4895,-4.4895,-4.4895,-4.4895,-4.4895,-4.4895,-4.4895,-4.4895,-4.4895,-4.4895,-4.4895,-4.4895,-4.4895,-4.4895,-4.4895,-4.4895,-4.4895,-4.4194,-4.3701,-4.3701,-4.3701,-4.3531,-4.3114,-4.3076,-4.3076,-4.3076,-4.3076,-4.3265,-4.3682,-4.3701,-4.391,-4.4326,-4.4326,-4.4516,-4.4895,-4.4895,-4.4895,-4.4895,-4.4895,-4.4895,-4.0383,-4.0807,-4.0996,-4.0996,-3.9031,-3.6423,-3.3874,-3.0477,0.0,0.0,0.0,-2.2894,-2.3767,0.0,0.0,0.0,0.0,0.0,0.0,0.0,0.0,0.0,0.0,0.0,0.0,0.0,0.0,0.0,0.0,0.0,-4.5944,-4.5917,-4.5848,-4.58,-4.6651,-4.7521,-4.8392,-4.9262,-5.0113,-5.0906,-5.0906,-5.0906,-5.0906,-5.0681,-5.0501,-5.0337,-4.9606,-4.9118,-4.8824,-4.8367,-4.808,-4.7908,-4.7738,-4.7169,-4.643,-4.6259,-4.5653,-4.4895,-4.4895,-4.4895,-4.4895,-4.4895,-4.4895,-4.4895,-4.4895,-4.4895,-4.4895,-4.4895,-4.4895,-4.4895,-4.4895,-4.4895,-4.4895,-4.4895,-4.4895,-4.4895,-4.4895,-4.4895,-4.4895,-4.4895,-4.4895,-4.4895,-4.4895,-4.4895,-4.4895,-4.4895,-4.4895,-4.4895,-4.4895,-4.4895,-4.4895,-4.4895,-4.4895,-4.4649,-4.4004,-4.3966,-4.3966,-4.3966,-4.3966,-4.4251,-4.4876,-4.4895,-4.4895,-4.4895,-4.4895,-4.4895,-4.4895,-4.4895,-4.4895,-4.4895,-4.4895,-4.4895,-3.9461,-4.0341,-4.0996,-4.0996,-3.9031,-3.6436,-3.3874,0.0,0.0,0.0,-2.2365,-2.2056,-2.2868,0.0,0.0,0.0,0.0,0.0,0.0,0.0,0.0,0.0,0.0,0.0,0.0,0.0,0.0,0.0,0.0,0.0,-4.5827,-4.5814,-4.5814,-4.58,-4.6651,-4.7521,-4.8392,-4.9262,-5.0113,-5.0906,-5.0906,-5.0906,-5.0871,-4.9961,-4.9452,-4.9313,-4.9067,-4.8862,0.0,-4.9413,-4.9698,-4.9595,-4.8856,-4.8041,-4.7188,-4.6468,-4.5653,-4.4895,-4.4895,-4.4895,-4.4895,-4.4895,-4.4895,-4.4895,-4.4895,-4.4895,-4.4895,-4.4895,-4.4895,-4.4895,-4.4895,-4.4895,-4.4895,-4.4895,-4.4895,-4.4895,-4.4895,-4.4895,-4.4895,-4.4895,-4.4895,-4.4895,-4.4895,-4.4895,-4.4895,-4.4895,-4.4895,-4.4895,-4.4895,-4.4895,-4.4895,-4.4895,-4.4895,-4.4876,-4.48,-4.4781,-4.4781,-4.4781,-4.4781,-4.4819,-4.4895,-4.4895,-4.4895,-4.4895,-4.4895,-4.4895,-4.4895,-4.4895,-4.4895,-4.4895,-4.4895,-4.4895,-3.816,-3.9381,-4.0112,-4.016,-3.8216,-3.564,-3.3052,0.0,0.0,-2.3346,-2.1836,-2.1314,-2.2648,-2.3171,0.0,0.0,0.0,0.0,0.0,0.0,0.0,0.0,0.0,0.0,0.0,0.0,0.0,0.0,0.0,0.0,-4.58,-4.58,-4.5752,-4.5677,-4.61,-4.6728,-4.7599,-4.8488,-4.9088,-4.9417,-5.0422,-5.0654,-5.0175,-5.0195,-5.0087,-4.9886,-4.9194,-4.9099,0.0,-4.9235,-4.9443,-4.9803,-4.9007,-4.8155,-4.7302,-4.6487,-4.5653,-4.4895,-4.4895,-4.4895,-4.4895,-4.4895,-4.4895,-4.4895,-4.4895,-4.4895,-4.4895,-4.4895,-4.4895,-4.4895,-4.4895,-4.4895,-4.4895,-4.4895,-4.4895,-4.4895,-4.4895,-4.4895,-4.4895,-4.4895,-4.4895,-4.4895,-4.4895,-4.4895,-4.4895,-4.4895,-4.4895,-4.4895,-4.4895,-4.4895,-4.4895,-4.4895,-4.4895,-4.4895,-4.4895,-4.4895,-4.4895,-4.4895,-4.4895,-4.4895,-4.4895,-4.4895,-4.4895,-4.4895,-4.4895,-4.4895,-4.4895,-4.4895,-4.4895,-4.4895,-4.4895,-4.4895,-3.6324,-3.7851,-3.8791,-3.883,-3.6929,-3.4415,0.0,0.0,-2.471,-2.3204,-2.1572,-2.092,-2.2597,-2.29,-2.3468,0.0,0.0,0.0,0.0,0.0,0.0,0.0,0.0,0.0,0.0,0.0,0.0,0.0,0.0,0.0,-4.5737,-4.5786,-4.5771,-4.5661,-4.5737,-4.6206,-4.7096,-4.7715,-4.814,-4.8411,-4.961,-4.9981,-4.9625,-4.9796,-4.9758,-4.9551,-4.8777,-4.8726,0.0,-4.8818,-4.9026,-4.9481,-4.8913,-4.8003,-4.698,-4.6411,-4.5653,-4.4895,-4.4895,-4.4895,-4.4895,-4.4895,-4.4895,-4.4895,-4.4895,-4.4895,-4.4895,-4.4895,-4.4895,-4.4895,-4.4895,-4.4895,-4.4895,-4.4895,-4.4895,-4.4895,-4.4895,-4.4895,-4.4895,-4.4895,-4.4895,-4.4895,-4.4895,-4.4895,-4.4895,-4.4895,-4.4895,-4.4895,-4.4895,-4.4895,-4.4895,-4.4895,-4.4895,-4.4895,-4.4895,-4.4895,-4.4895,-4.4895,-4.4895,-4.4895,-4.4895,-4.4895,-4.4895,-4.4895,-4.4895,-4.4895,-4.4895,-4.4895,-4.4895,-4.4895,-4.4895,-4.4895,-3.3854,-3.5649,-3.7046,-3.7111,-3.5163,-3.2762,0.0,-2.7349,-2.4036,-2.3095,-2.1572,-2.0906,-2.2597,-2.29,-2.3475,-2.5221,0.0,0.0,0.0,0.0,0.0,0.0,0.0,0.0,0.0,0.0,0.0,0.0,0.0,0.0,-4.5613,-4.5723,-4.58,-4.58,-4.58,-4.6206,-4.7096,-4.7115,-4.754,-4.8392,-4.8411,-4.8775,-4.9372,-4.8375,-4.7867,-4.7709,-4.7517,-4.7416,0.0,-4.8344,-4.8685,-4.8704,-4.8685,-4.7681,-4.6203,-4.6203,-4.5653,-4.4895,-4.4895,-4.4895,-4.4895,-4.4895,-4.4895,-4.4895,-4.4895,-4.4895,-4.4895,-4.4895,-4.4895,-4.4895,-4.4895,-4.4895,-4.4895,-4.4895,-4.4895,-4.4895,-4.4895,-4.4895,-4.4895,-4.4895,-4.4895,-4.4895,-4.4895,-4.4895,-4.4895,-4.4895,-4.4895,-4.4895,-4.4895,-4.4895,-4.4895,-4.4895,-4.4895,-4.4895,-4.4895,-4.4895,-4.4895,-4.4895,-4.4895,-4.4895,-4.4895,-4.4895,-4.4895,-4.4895,-4.4895,-4.4895,-4.4895,-4.4895,-4.4895,-4.4895,-4.4895,-4.4895,-3.0163,-3.153,-3.2474,-3.2619,-3.1583,-3.0083,-2.8321,-2.6008,-2.3812,-2.2372,-2.119,-2.0906,-2.2597,-2.294,-2.3902,-2.6753,-2.8029,0.0,0.0,0.0,0.0,0.0,0.0,0.0,0.0,0.0,0.0,0.0,0.0,0.0,-4.5808,-4.5794,-4.5771,-4.5661,-4.5737,-4.5916,-4.6206,-4.6806,-4.6941,-4.6631,-4.7735,-4.8056,-4.7696,-4.7737,-4.7739,0.0,-4.7498,-4.7397,-4.7416,-4.77,-4.7795,-4.7757,-4.7207,-4.6657,-4.6127,-4.552,-4.5141,-4.4895,-4.4895,-4.4895,-4.4895,-4.4895,-4.4895,-4.4895,-4.4895,-4.4895,-4.4895,-4.4895,-4.4895,-4.4895,-4.4895,-4.4895,-4.4895,-4.4895,-4.4895,-4.4895,-4.4895,-4.4895,-4.4895,-4.4895,-4.4895,-4.4895,-4.4895,-4.4895,-4.4895,-4.4895,-4.4895,-4.4895,-4.4895,-4.4895,-4.4895,-4.4895,-4.4895,-4.4895,-4.4895,-4.4895,-4.4895,-4.4895,-4.4895,-4.4895,-4.4895,-4.4895,-4.4895,-4.4895,-4.4895,-4.4895,-4.4895,-4.4895,-4.4895,-4.4895,-4.4895,-4.4895,0.0,-2.8275,-2.8981,-2.9137,-2.8507,-2.7503,-2.6091,-2.445,-2.2966,-2.192,-2.1003,-2.0911,-2.2611,-2.2979,-2.3896,-2.6606,-2.7874,0.0,0.0,0.0,0.0,0.0,0.0,0.0,0.0,0.0,0.0,0.0,0.0,0.0,-4.5898,-4.5848,-4.578,-4.5677,-4.5771,-4.58,-4.58,-4.6341,-4.6308,-4.5742,-4.6744,-4.7027,-4.6724,-4.7057,-4.719,-4.7139,-4.6992,-4.6942,0.0,-4.6942,-4.6942,-4.6904,-4.6392,-4.5994,-4.5634,-4.5103,-4.4895,-4.4895,-4.4895,-4.4895,-4.4895,-4.4895,-4.4895,-4.4895,-4.4895,-4.4895,-4.4895,-4.4895,-4.4895,-4.4895,-4.4895,-4.4895,-4.4895,-4.4895,-4.4895,-4.4895,-4.4895,-4.4895,-4.4895,-4.4895,-4.4895,-4.4895,-4.4895,-4.4895,-4.4895,-4.4895,-4.4895,-4.4895,-4.4895,-4.4895,-4.4895,-4.4895,-4.4895,-4.4895,-4.4895,-4.4895,-4.4895,-4.4895,-4.4895,-4.4895,-4.4895,-4.4895,-4.4895,-4.4895,-4.4895,-4.4895,-4.4895,-4.4895,-4.4895,-4.4895,-4.4895,-4.4895,0.0,-2.5522,-2.6265,-2.641,-2.5827,-2.5027,-2.4215,-2.2811,0.0,-2.1609,-2.0975,-2.0975,-2.2849,-2.3088,-2.3657,-2.5635,-2.6681,0.0,0.0,0.0,0.0,0.0,0.0,0.0,0.0,0.0,0.0,0.0,0.0,0.0,-4.5898,-4.5898,-4.588,-4.5814,-4.58,-4.58,-4.58,-4.58,-4.5723,-4.5596,-4.558,-4.5822,-4.6317,-4.6294,-4.6221,0.0,-4.6108,-4.6108,-4.6108,-4.6108,-4.6108,-4.6108,-4.6108,-4.5615,-4.4895,-4.4895,-4.4895,-4.4895,-4.4895,-4.4895,-4.4895,-4.4895,-4.4895,-4.4895,-4.4895,-4.4895,-4.4895,-4.4895,-4.4895,-4.4895,-4.4895,-4.4895,-4.4895,-4.4895,-4.4895,-4.4895,-4.4895,-4.4895,-4.4895,-4.4895,-4.4895,-4.4895,-4.4895,-4.4895,-4.4895,-4.4895,-4.4895,-4.4895,-4.4895,-4.4895,-4.4895,-4.4895,-4.4895,-4.4895,-4.4895,-4.4895,-4.4895,-4.4895,-4.4895,-4.4895,-4.4895,-4.4895,-4.4895,-4.4895,-4.4895,-4.4895,-4.4895,-4.4895,-4.4895,-4.4895,-4.4895,-4.4895,-1.9284,0.0,-2.1922,-2.2701,-2.2733,-2.254,0.0,-2.1977,-2.1507,0.0,0.0,0.0,0.0,0.0,0.0,0.0,0.0,0.0,0.0,0.0,0.0,0.0,0.0,0.0,0.0,0.0,0.0,0.0,0.0,-4.6007,-4.5986,-4.5941,-4.588,-4.5814,-4.58,-4.58,-4.58,-4.5692,-4.5629,-4.5596,-4.54,-4.5373,-4.5478,-4.5323,-4.5247,-4.5217,-4.5217,-4.5217,-4.5217,-4.5217,-4.5217,-4.5217,-4.5217,-4.5085,-4.4895,-4.4895,-4.4895,-4.4895,-4.4895,-4.4895,-4.4895,-4.4895,-4.4895,-4.4895,-4.4895,-4.4895,-4.4895,-4.4895,-4.4895,-4.4895,-4.4895,-4.4895,-4.4895,-4.4895,-4.4895,-4.4895,-4.4895,-4.4895,-4.4895,-4.4895,-4.4895,-4.4895,-4.4895,-4.4895,-4.4895,-4.4895,-4.4895,-4.4895,-4.4895,-4.4895,-4.4895,-4.4895,-4.4895,-4.4895,-4.4895,-4.4895,-4.4895,-4.4895,-4.4895,-4.4895,-4.4895,-4.4895,-4.4895,-4.4895,-4.4895,-4.4895,-4.4895,-4.4895,-4.4895,-4.4895,-4.4895,-4.4895,-1.7118,-1.8736,-2.0424,-2.0978,-2.1409,-2.17,-2.1694,0.0,0.0,0.0,0.0,0.0,0.0,0.0,0.0,0.0,0.0,0.0,0.0,0.0,0.0,0.0,0.0,0.0,0.0,0.0,0.0,0.0,0.0,-4.6056,-4.6056,-4.5986,-4.5929,-4.5854,-4.5827,-4.58,-4.58,-4.5661,-4.5563,-4.551,-4.53,-4.5148,-4.5057,-4.4943,-4.4895,-4.4895,-4.4895,-4.4895,-4.4895,-4.4895,-4.4895,-4.4895,-4.4895,-4.4895,-4.4895,-4.4895,-4.4895,-4.4895,-4.4895,-4.4895,-4.4895,-4.4895,-4.4895,-4.4895,-4.4895,-4.4895,-4.4895,-4.4895,-4.4895,-4.4895,-4.4895,-4.4895,-4.4895,-4.4895,-4.4895,-4.4895,-4.4895,-4.4895,-4.4895,-4.4895,-4.4895,-4.4895,-4.4895,-4.4895,-4.4895,-4.4895,-4.4895,-4.4895,-4.4895,-4.4895,-4.4895,-4.4895,-4.4895,-4.4895,-4.4895,-4.4895,-4.4895,-4.4895,-4.4895,-4.4895,-4.4895,-4.4895,-4.4895,-4.4895,-4.4895,-4.4895,-4.4895,-4.4895,-4.4895,-4.4895,-4.4895,-4.4895,-1.6518,-1.8654,-2.0572,-2.0443,-2.1163,-2.1912,-2.1907,0.0,0.0,0.0,0.0,0.0,0.0,0.0,0.0,0.0,0.0,0.0,0.0,0.0,0.0,0.0,0.0,0.0,0.0,0.0,0.0,0.0,0.0,-4.6084,-4.6093,-4.6047,-4.5975,-4.5898,-4.5822,-4.58,-4.58,-4.5661,-4.5528,-4.54,-4.5258,-4.5084,-4.4895,-4.4895,-4.4895,-4.4895,0.0,0.0,-4.4895,-4.4895,-4.4895,-4.4895,-4.4895,-4.4895,-4.4895,-4.4895,-4.4895,-4.4895,-4.4895,-4.4895,-4.4895,-4.4895,-4.4895,-4.4895,-4.4895,-4.4895,-4.4895,-4.4895,-4.4895,-4.4895,-4.4895,-4.4895,-4.4895,-4.4895,-4.4895,-4.4895,-4.4895,-4.4895,-4.4895,-4.4895,-4.4895,-4.4895,-4.4895,-4.4895,-4.4895,-4.4895,-4.4895,-4.4895,-4.4895,-4.4895,-4.4895,-4.4895,-4.4895,-4.4895,-4.4895,-4.4895,-4.4895,-4.4895,-4.4895,-4.4895,-4.4895,-4.4895,-4.4895,-4.4895,-4.4895,-4.4895,-4.4895,-4.4895,-4.4895,-4.4895,-4.4895,-4.4895,-1.7264,-1.9566,-2.1341,-2.0657,-2.1682,-2.2868,0.0,0.0,0.0,0.0,0.0,0.0,0.0,0.0,0.0,0.0,0.0,0.0,0.0,0.0,0.0,0.0,0.0,0.0,0.0,0.0,0.0,0.0,0.0,-4.6037,-4.6093,-4.6047,-4.5975,-4.5898,-4.5822,-4.58,-4.58,-4.5661,-4.5528,-4.54,-4.5258,-4.5084,-4.4895,-4.4895,-4.4895,-4.4895,0.0,-4.4895,-4.4895,-4.4895,-4.4895,-4.4895,-4.4895,-4.4895,-4.4895,-4.4895,-4.4895,-4.4895,-4.4895,-4.4895,-4.4895,-4.4895,-4.4895,-4.4895,-4.4895,-4.4895,-4.4895,-4.4895,-4.4895,-4.4895,-4.4895,-4.4895,-4.4895,-4.4895,-4.4895,-4.4895,-4.4895,-4.4895,-4.4895,-4.4895,-4.4895,-4.4895,-4.4895,-4.4895,-4.4895,-4.4895,-4.4895,-4.4895,-4.4895,-4.4895,-4.4895,-4.4895,-4.4895,-4.4895,-4.4895,-4.4895,-4.4895,-4.4895,-4.4895,-4.4895,-4.4895,-4.4895,-4.4895,-4.4895,-4.4895,-4.4895,-4.4895,-4.4895,-4.4895,-4.4895,-4.4895,-4.4895,-1.6304,-1.8411,-2.0491,-2.1064,-2.3182,-2.5022,0.0,0.0,0.0,0.0,0.0,0.0,0.0,0.0,0.0,0.0,0.0,0.0,0.0,0.0,0.0,0.0,0.0,0.0,0.0,0.0,0.0,0.0,0.0,0.0,-4.6093,-4.6047,-4.5986,-4.5964,-4.5848,-4.5771,-4.5692,-4.5629,-4.5528,-4.54,-4.5154,-4.4991,-4.4895,-4.4895,-4.4895,-4.4895,0.0,-4.4895,-4.4895,-4.4895,-4.4895,-4.4895,-4.4895,-4.4895,-4.4895,-4.4895,-4.4895,-4.4895,-4.4895,-4.4895,-4.4895,-4.4895,-4.4895,-4.4895,-4.4895,-4.4895,-4.4895,-4.4895,-4.4895,-4.4895,-4.4895,-4.4895,-4.4895,-4.4895,-4.4895,-4.4895,-4.4895,-4.4895,-4.4895,-4.4895,-4.4895,-4.4895,-4.4895,-4.4895,-4.4895,-4.4895,-4.4895,-4.4895,-4.4895,-4.4895,-4.4895,-4.4895,-4.4895,-4.4895,-4.4895,-4.4895,-4.4895,-4.4895,-4.4895,-4.4895,-4.4895,-4.4895,-4.4895,-4.4895,-4.4895,-4.4895,-4.4895,-4.4895,-4.4895,-4.4895,-4.4895,-4.4895,-1.5871,-1.7712,-1.9915,-2.1662,0.0,0.0,0.0,0.0,0.0,0.0,0.0,0.0,0.0,0.0,0.0,0.0,0.0,0.0,0.0,0.0,0.0,0.0,0.0,0.0,0.0,0.0,0.0,0.0,0.0,0.0,-4.6075,-4.6007,-4.5975,-4.5975,-4.5822,-4.5708,-4.5596,-4.5545,-4.5456,-4.5341,-4.5087,-4.4962,-4.4895,-4.4895,-4.4895,-4.4895,-4.4895,-4.4895,-4.4895,-4.4895,-4.4895,-4.4895,-4.4895,-4.4895,-4.4895,-4.4895,-4.4895,-4.4895,-4.4895,-4.4895,-4.4895,-4.4895,-4.4895,-4.4895,-4.4895,-4.4895,-4.4895,-4.4895,-4.4895,-4.4895,-4.4895,-4.4895,-4.4895,-4.4895,-4.4895,-4.4895,-4.4895,-4.4895,-4.4895,-4.4895,-4.4895,-4.4895,-4.4895,-4.4827,-4.4777,-4.4777,-4.4726,-4.4655,-4.4655,-4.4655,-4.4655,-4.4655,-4.4655,-4.4655,-4.4655,-4.4655,-4.4655,-4.4655,-4.4751,-4.4802,-4.4895,-4.4895,-4.4895,-4.4895,-4.4895,-4.4895,-4.4895,-4.4895,-4.4895,-4.4895,-4.4895,-4.4895,-1.7346,-1.9082,-2.0811,-2.2578,0.0,0.0,0.0,0.0,0.0,0.0,0.0,0.0,0.0,0.0,0.0,0.0,0.0,0.0,0.0,0.0,0.0,0.0,0.0,0.0,0.0,0.0,0.0,0.0,0.0,0.0,-4.6007,-4.5933,-4.5917,-4.5917,-4.5723,-4.5613,-4.5596,-4.5341,-4.5235,-4.5213,-4.5192,-4.508,-4.4895,-4.4895,-4.4895,-4.4895,-4.4895,-4.4895,-4.4895,-4.4895,-4.4895,-4.4895,-4.4895,-4.4895,-4.4895,-4.4895,-4.4895,-4.4895,-4.4895,-4.4895,-4.4895,-4.4895,-4.4895,-4.4895,-4.4895,-4.4895,-4.4895,-4.4895,-4.4895,-4.4895,-4.4895,-4.4895,-4.4895,-4.4895,-4.4895,-4.4895,-4.4895,-4.4895,-4.4895,-4.4895,-4.4895,-4.4895,-4.4895,-4.4636,-4.443,-4.443,-4.4184,-4.3974,-4.3974,-4.3974,-4.3974,-4.3974,-4.3974,-4.3974,-4.3974,-4.3974,-4.3974,-4.3974,-4.427,-4.4584,-4.4895,-4.4895,-4.4895,-4.4895,-4.4895,-4.4895,-4.4895,-4.4895,-4.4895,-4.4895,-4.4895,-4.4895,-1.618,-1.8409,-2.0786,-2.1997,0.0,0.0,0.0,0.0,0.0,0.0,0.0,0.0,0.0,0.0,0.0,0.0,0.0,0.0,0.0,0.0,0.0,0.0,0.0,0.0,0.0,0.0,0.0,0.0,0.0,0.0,-4.5941,-4.5898,-4.5861,-4.5775,-4.5658,-4.551,-4.5341,-4.5237,-4.5148,-4.5014,-4.5014,-4.4967,-4.4895,-4.4895,-4.4895,-4.4895,-4.4895,-4.4895,-4.4895,-4.4895,-4.4895,-4.4895,-4.4895,-4.4895,-4.4895,-4.4895,-4.4895,-4.4895,-4.4895,-4.4895,-4.4895,-4.4895,-4.4895,-4.4895,-4.4895,-4.4895,-4.4895,-4.4895,-4.4895,-4.4895,-4.4895,-4.4895,-4.4895,-4.4895,-4.4895,-4.4895,-4.4895,-4.4895,-4.4895,-4.4895,-4.4732,-4.4584,-4.4584,-4.4299,-4.4095,-4.4095,-4.3974,-4.3912,-4.3912,-4.3912,-4.3912,-4.3912,-4.3912,-4.3912,-4.3912,-4.3721,-4.3689,-4.3881,-4.4035,-4.4154,-4.427,-4.4289,-4.4289,-4.4289,-4.4289,-4.4374,-4.4584,-4.4584,-4.4707,-4.4895,-4.4895,-4.4895,-1.6203,-1.8529,0.0,0.0,0.0,0.0,0.0,0.0,0.0,0.0,0.0,0.0,0.0,0.0,0.0,0.0,0.0,0.0,0.0,0.0,0.0,0.0,0.0,0.0,0.0,0.0,0.0,0.0,0.0,0.0,0.0,-4.5808,-4.5733,-4.561,-4.5528,-4.5381,-4.5192,-4.5148,-4.5033,-4.4895,-4.4895,-4.4895,-4.4895,-4.4895,-4.4895,-4.4895,-4.4895,-4.4895,-4.4895,-4.4895,-4.4895,-4.4895,-4.4895,-4.4895,-4.4895,-4.4895,-4.4895,-4.4895,-4.4895,-4.4895,-4.4895,-4.4895,-4.4895,-4.4895,-4.4895,-4.4895,-4.4895,-4.4895,-4.4895,-4.4895,-4.4895,-4.4895,-4.4895,-4.4895,-4.4895,-4.4895,-4.4895,-4.4802,-4.4732,-4.4732,-4.4457,-4.4242,-4.4242,-4.3955,-4.3754,-4.3754,-4.3656,-4.359,-4.359,-4.359,-4.359,-4.359,-4.359,-4.359,-4.359,-4.3371,-4.3336,-4.3557,-4.359,-4.3689,-4.3881,-4.3912,-4.3912,-4.3912,-4.3912,-4.4004,-4.4242,-4.4242,-4.4374,-4.4584,-4.4584,-4.4584,-1.7975,0.0,0.0,0.0,0.0,0.0,0.0,0.0,0.0,0.0,0.0,0.0,0.0,0.0,0.0,0.0,0.0,0.0,0.0,0.0,0.0,0.0,0.0,0.0,0.0,0.0,0.0,0.0,0.0,0.0,0.0,-4.5596,-4.5528,-4.54,-4.5258,-4.5192,-4.5192,-4.4991,-4.4895,-4.4895,-4.4895,-4.4895,-4.4895,-4.4895,-4.4895,-4.4895,-4.4895,-4.4895,-4.4895,-4.4895,-4.4895,-4.4895,-4.4895,-4.4895,-4.4895,-4.4895,-4.4895,-4.4895,-4.4895,-4.4895,-4.4895,-4.4895,-4.4895,-4.4895,-4.4895,-4.4895,-4.4895,-4.4895,-4.4895,-4.4895,-4.4895,-4.4895,-4.4895,-4.4895,-4.4895,-4.4895,-4.4895,-4.4636,-4.4402,-4.4402,-4.4125,-4.3912,-4.3912,-4.3623,-4.3406,-4.3406,-4.3105,-4.2882,-4.2882,-4.2882,-4.2882,-4.2882,-4.2882,-4.2882,-4.2882,-4.2882,-4.2882,-4.2882,-4.2882,-4.3213,-4.3849,-4.3881,-4.3881,-4.3881,-4.3881,-4.3881,-4.3912,-4.3912,-4.3912,-4.3912,-4.3912,-4.3912,-1.7972,0.0,0.0,0.0,0.0,0.0,0.0,0.0,0.0,0.0,0.0,0.0,0.0,0.0,0.0,0.0,0.0,0.0,0.0,0.0,0.0,0.0,0.0,0.0,0.0,0.0,0.0,0.0,0.0,0.0,0.0,-4.5456,-4.54,-4.5258,-4.5213,-4.5125,-4.4991,-4.4919,-4.4895,-4.4895,-4.4895,-4.4895,-4.4895,-4.4895,-4.4895,-4.4895,-4.4895,-4.4895,-4.4895,-4.4895,-4.4895,-4.4895,-4.4895,-4.4895,-4.4895,-4.4895,-4.4895,-4.4895,-4.4895,-4.4895,-4.4895,-4.4895,-4.4895,-4.4895,-4.4895,-4.4895,-4.4895,-4.4895,-4.4895,-4.4895,-4.4895,-4.4732,-4.461,-4.4827,-4.4707,-4.4557,-4.4557,-4.427,-4.4065,-4.4065,-4.3786,-4.3557,-4.3557,-4.3266,-4.305,-4.305,-4.2957,-4.2882,-4.2882,-4.2882,-4.2882,-4.2882,-4.2882,-4.2882,-4.2882,-4.2882,-4.2882,-4.2882,-4.2882,-4.2995,-4.3178,-4.3213,-4.3213,-4.3213,-4.3213,-4.3301,-4.3557,-4.3557,-4.3656,-4.3912,-4.3912,-4.3912,0.0,0.0,0.0,0.0,0.0,0.0,0.0,0.0,0.0,0.0,0.0,0.0,0.0,0.0,0.0,0.0,0.0,0.0,0.0,0.0,0.0,0.0,0.0,0.0,0.0,0.0,0.0,0.0,0.0,0.0,0.0,-4.5301,-4.5258,-4.5103,-4.508,-4.5014,-4.4895,-4.4895,-4.4895,-4.4895,-4.4895,-4.4895,-4.4895,-4.4895,-4.4895,-4.4895,-4.4895,-4.4895,-4.4895,-4.4895,-4.4895,-4.4895,-4.4895,-4.4895,-4.4895,-4.4895,-4.4895,-4.4895,-4.4895,-4.4895,-4.4895,-4.4895,-4.4895,-4.4895,-4.4895,-4.4895,-4.4895,-4.4895,-4.4895,-4.4895,-4.4895,-4.4655,-4.4457,-4.4636,-4.4457,-4.4213,-4.4213,-4.3943,-4.3689,-4.3689,-4.344,-4.3213,-4.3213,-4.3014,-4.2882,-4.2882,-4.2882,-4.2882,-4.2882,-4.2882,-4.2882,-4.2882,-4.2882,-4.2882,-4.2882,-4.2882,-4.2882,-4.2882,-4.2882,-4.2882,-4.2882,-4.2882,-4.2882,-4.2882,-4.2882,-4.2976,-4.3213,-4.3213,-4.3301,-4.349,-4.349,-4.349,0.0,0.0,0.0,0.0,0.0,0.0,0.0,0.0,0.0,0.0,0.0,0.0,0.0,0.0,0.0,0.0,0.0,0.0,0.0,0.0,0.0,0.0,0.0,0.0,0.0,0.0,0.0,0.0,0.0,0.0,0.0,-4.517,-4.5103,-4.4914,-4.4895,-4.4895,-4.4895,-4.4895,-4.4895,-4.4895,-4.4895,-4.4895,-4.4895,-4.4895,-4.4895,-4.4895,-4.4895,-4.4895,-4.4895,-4.4895,-4.4895,-4.4895,-4.4895,-4.4895,-4.4895,-4.4895,-4.4895,-4.4895,-4.4895,-4.4895,-4.4895,-4.4895,-4.4895,-4.4895,-4.4895,-4.4895,-4.4895,-4.4895,-4.487,-4.4846,-4.4846,-4.4584,-4.4299,-4.4299,-4.4095,-4.3849,-4.3849,-4.359,-4.3336,-4.3336,-4.3124,-4.2882,-4.2882,-4.2882,-4.2882,-4.2882,-4.2882,-4.2882,-4.2882,-4.2882,-4.2882,-4.2882,-4.2882,-4.2882,-4.2882,-4.2882,-4.2882,-4.2882,-4.2882,-4.2882,-4.2882,-4.2882,-4.2882,-4.2882,-4.2882,-4.2882,-4.2882,-4.2882,-4.2882,-4.2882,-4.2882,-4.2882,0.0,0.0,0.0,0.0,0.0,0.0,0.0,0.0,0.0,0.0,0.0,0.0,0.0,0.0,0.0,0.0,0.0,0.0,0.0,0.0,0.0,0.0,0.0,0.0,0.0,0.0,0.0,0.0,0.0,0.0,-4.4967,-4.4967,-4.4943,-4.4895,-4.4895,-4.4895,-4.4895,-4.4895,-4.4895,-4.4895,-4.4895,-4.4895,-4.4895,-4.4895,-4.4895,-4.4895,-4.4895,-4.4895,-4.4895,-4.4895,-4.4895,-4.4895,-4.4895,-4.4895,-4.4895,-4.4895,-4.4895,-4.4895,-4.4895,-4.4895,-4.4895,-4.4895,-4.4895,-4.4895,-4.4895,-4.4895,-4.4895,-4.4895,-4.4707,-4.4511,-4.4511,-4.4046,-4.3623,-4.3623,-4.3557,-4.3508,-4.3508,-4.3231,-4.3032,-4.3032,-4.2957,-4.2882,-4.2882,-4.2882,-4.2882,-4.2882,-4.2882,-4.2882,-4.2882,-4.2882,-4.2882,-4.2882,-4.2882,-4.2882,-4.2882,-4.2882,-4.2882,-4.2882,-4.2882,-4.2882,-4.2882,-4.2882,-4.2882,-4.2882,-4.2882,-4.2882,-4.2882,-4.2882,-4.2882,-4.2882,-4.2882,-4.2882,0.0,0.0,0.0,0.0,0.0,0.0,0.0,0.0,0.0,0.0,0.0,0.0,0.0,0.0,0.0,0.0,0.0,0.0,0.0,0.0,0.0,0.0,0.0,0.0,0.0,0.0,0.0,0.0,0.0,-4.4592,-4.4876,-4.4895,-4.4895,-4.4895,-4.4895,-4.4895,-4.4895,-4.4895,-4.4895,-4.4895,-4.4895,-4.4895,-4.4895,-4.4895,-4.4895,-4.4895,-4.4895,-4.4895,-4.4895,-4.4895,-4.4895,-4.4895,-4.4895,-4.4895,-4.4895,-4.4895,-4.4895,-4.4895,-4.4895,-4.4895,-4.4895,-4.4895,-4.4895,-4.4895,-4.4895,-4.4895,-4.487,-4.4707,-4.4511,-4.4355,-4.4213,-4.3767,-4.3406,-4.3406,-4.3284,-4.3142,-4.3142,-4.3014,-4.2882,-4.2882,-4.2882,-4.2882,-4.2882,-4.2882,-4.2882,-4.2882,-4.2882,-4.2882,-4.2882,-4.2882,-4.2882,-4.2882,-4.2882,-4.2882,-4.2882,-4.2882,-4.2882,-4.2882,-4.2882,-4.2882,-4.2882,-4.2882,-4.2882,-4.2882,-4.2882,-4.2882,-4.2882,-4.2882,-4.2882,-4.2882,-4.2882,-4.2882,0.0,0.0,0.0,0.0,0.0,0.0,0.0,0.0,0.0,0.0,0.0,0.0,0.0,0.0,0.0,0.0,0.0,0.0,0.0,0.0,0.0,0.0,0.0,0.0,0.0,0.0,0.0,0.0,0.0,-4.3834,-4.4649,-4.4687,-4.4762,-4.4895,-4.4895,-4.4895,-4.4895,-4.4895,-4.4895,-4.4895,-4.4895,-4.4895,-4.4895,-4.4895,-4.4895,-4.4895,-4.4895,-4.4895,-4.4895,-4.4895,-4.4895,-4.4895,-4.4895,-4.4895,-4.4895,-4.4895,-4.4895,-4.4895,-4.4895,-4.4895,-4.4895,-4.4827,-4.4802,-4.4802,-4.4732,-4.4726,-4.4681,-4.4402,-4.427,-4.4165,-4.3881,-4.3557,-4.3301,-4.3301,-4.3105,-4.2882,-4.2882,-4.2882,-4.2882,-4.2882,-4.2882,-4.2882,-4.2882,-4.2882,-4.2882,-4.2882,-4.2882,-4.2882,-4.2882,-4.2882,-4.2882,-4.2882,-4.2882,-4.2882,-4.2882,-4.2882,-4.2882,-4.2882,-4.2882,-4.2882,-4.2882,-4.2882,-4.2882,-4.2882,-4.2882,-4.2882,-4.2882,-4.2882,-4.2882,-4.2882,-4.2882,-4.2882,0.0,0.0,0.0,0.0,0.0,0.0,0.0,0.0,0.0,0.0,0.0,0.0,0.0,0.0,0.0,0.0,0.0,0.0,0.0,0.0,0.0,0.0,0.0,0.0,0.0,0.0,0.0,0.0,-4.2564,-4.2962,-4.3815,-4.3853,-4.4175,-4.4876,-4.4895,-4.4895,-4.4895,-4.4895,-4.4895,-4.4895,-4.4895,-4.4895,-4.4895,-4.4895,-4.4895,-4.4895,-4.4895,-4.4895,-4.4895,-4.4895,-4.4895,-4.4895,-4.4895,-4.4895,-4.4895,-4.4895,-4.4895,-4.4895,-4.4895,-4.4895,-4.4846,-4.4557,-4.4457,-4.443,-4.4125,-4.4035,-4.4035,-4.3974,-4.3754,-4.3523,-4.3456,-4.3213,-4.2957,-4.2957,-4.292,-4.2882,-4.2882,-4.2882,-4.2882,-4.2882,-4.2882,-4.2882,-4.2882,-4.2882,-4.2882,-4.2882,-4.2882,-4.2882,-4.2882,-4.2882,-4.2882,-4.2882,-4.2882,-4.2882,-4.2882,-4.2882,-4.2882,-4.2882,-4.2882,-4.2882,-4.2882,-4.2882,-4.2882,-4.2882,-4.2882,-4.2882,-4.2882,-4.2882,-4.2882,-4.2882,-4.2882,-4.2882,0.0,0.0,0.0,0.0,0.0,0.0,0.0,0.0,0.0,0.0,0.0,0.0,0.0,0.0,0.0,0.0,0.0,0.0,0.0,0.0,0.0,0.0,0.0,0.0,0.0,0.0,0.0,0.0,-4.173,-4.209,-4.2943,-4.2981,-4.336,-4.4194,-4.4232,-4.444,-4.4895,-4.4895,-4.4895,-4.4895,-4.4895,-4.4895,-4.4895,-4.4895,-4.4895,-4.4895,-4.4895,-4.4895,-4.4895,-4.4895,-4.4895,-4.4895,-4.4895,-4.4895,-4.4895,-4.4895,-4.4895,-4.4895,-4.4895,-4.4895,-4.4827,-4.4511,-4.4383,-4.4327,-4.4004,-4.3912,-4.3849,-4.3689,-4.3523,-4.3371,-4.3178,-4.3014,-4.2882,-4.2882,-4.2882,-4.2882,-4.2882,-4.2882,-4.2882,-4.2882,-4.2882,-4.2882,-4.2882,-4.2882,-4.2882,-4.2882,-4.2882,-4.2882,-4.2882,-4.2882,-4.2882,-4.2882,-4.2882,-4.2882,-4.2882,-4.2882,-4.2882,-4.2882,-4.2882,-4.2882,-4.2882,-4.2882,-4.2882,-4.2882,-4.2882,-4.2882,-4.2882,-4.2882,-4.2882,-4.2882,-4.2882,-4.2882,0.0,0.0,0.0,0.0,0.0,0.0,0.0,0.0,0.0,0.0,0.0,0.0,0.0,0.0,0.0,0.0,0.0,0.0,0.0,0.0,0.0,0.0,0.0,0.0,0.0,0.0,0.0,0.0,-4.0877,-4.1237,-4.2052,-4.2109,-4.2488,-4.3341,-4.3587,-4.3985,-4.4592,-4.48,-4.4895,-4.4895,-4.4895,-4.4895,-4.4895,-4.4895,-4.4895,-4.4895,-4.4895,-4.4895,-4.4895,-4.4895,-4.4895,-4.4895,-4.4895,-4.4895,-4.4895,-4.4895,-4.4895,-4.4895,-4.4895,-4.4827,-4.4707,-4.4383,-4.4213,-4.4076,-4.3754,-4.3656,-4.359,-4.3336,-4.3266,-4.3213,-4.2957,-4.2882,-4.2882,-4.2882,-4.2882,-4.2882,-4.2882,-4.2882,-4.2882,-4.2882,-4.2882,-4.2882,-4.2882,-4.2882,-4.2882,-4.2882,-4.2882,-4.2882,-4.2882,-4.2882,-4.2882,-4.2882,-4.2882,-4.2882,-4.2882,-4.2882,-4.2882,-4.2882,-4.2882,-4.2882,-4.2882,-4.2882,-4.2882,-4.2882,-4.2882,-4.2882,-4.2882,-4.2882,-4.2882,-4.2882,-4.2882,-4.2882,0.0,0.0,0.0,0.0,0.0,0.0,0.0,0.0,0.0,0.0,0.0,0.0,0.0,0.0,0.0,0.0,0.0,0.0,0.0,0.0,0.0,0.0,0.0,0.0,0.0,0.0,0.0,0.0,-3.9965,-4.0366,-4.1219,-4.1275,-4.1635,-4.245,-4.3265,-4.372,-4.3758,-4.4516,-4.4895,-4.4895,-4.4895,-4.4895,-4.4895,-4.4895,-4.4895,-4.4895,-4.4895,-4.4895,-4.4895,-4.4895,-4.4895,-4.4895,-4.4895,-4.4895,-4.4895,-4.4895,-4.4895,-4.4895,-4.4895,-4.4681,-4.4355,-4.4035,-4.3721,-4.3406,-4.305,-4.2957,-4.2957,-4.292,-4.292,-4.292,-4.2882,-4.2882,-4.2882,-4.2882,-4.2882,-4.2882,-4.2882,-4.2882,-4.2882,-4.2882,-4.2882,-4.2882,-4.2882,-4.2882,-4.2882,-4.2882,-4.2882,-4.2882,-4.2882,-4.2882,-4.2882,-4.2882,-4.2882,-4.2882,-4.2882,-4.2882,-4.2882,-4.2882,-4.2882,-4.2882,-4.2882,-4.2882,-4.2882,-4.2882,-4.2882,-4.2882,-4.2882,-4.2882,-4.2882,-4.2882,-4.2882,-4.2882,0.0,0.0,0.0,0.0,0.0,0.0,0.0,0.0,0.0,0.0,0.0,0.0,0.0,0.0,0.0,0.0,0.0,0.0,0.0,0.0,0.0,0.0,0.0,0.0,0.0,0.0,0.0,0.0,0.0,-4.0022,-4.0366,-4.0385,-4.0764,-4.1598,-4.1939,-4.2621,-4.3682,-4.3985,-4.4383,-4.4895,-4.4895,-4.4895,-4.4895,-4.4895,-4.4895,-4.4895,-4.4895,-4.4895,-4.4895,-4.4895,-4.4895,-4.4895,-4.4895,-4.4895,-4.4895,-4.4895,-4.4895,-4.4895,-4.4895,-4.4681,-4.4327,-4.4004,-4.3689,-4.3336,-4.2976,-4.2882,-4.2882,-4.2882,-4.2882,-4.2882,-4.2882,-4.2882,-4.2882,-4.2882,-4.2882,-4.2882,-4.2882,-4.2882,-4.2882,-4.2882,-4.2882,-4.2882,-4.2882,-4.2882,-4.2882,-4.2882,-4.2882,-4.2882,-4.2882,-4.2882,-4.2882,-4.2882,-4.2882,-4.2882,-4.2882,-4.2882,-4.2882,-4.2882,-4.2882,-4.2882,-4.2882,-4.2882,-4.2882,-4.2882,-4.2882,-4.2882,-4.2882,-4.2882,-4.2882,-4.2882,-4.2882,-4.2882,0.0,0.0,0.0,0.0,0.0,0.0,0.0,0.0,0.0,0.0,0.0,0.0,0.0,0.0,0.0,0.0,0.0,0.0,0.0,0.0,0.0,0.0,0.0,0.0,0.0,0.0,0.0,0.0,0.0,0.0,-3.9889,-3.9889,-4.0309,-4.1181,-4.12,-4.1863,-4.3246,-4.3549,-4.3966,-4.4497,-4.4762,-4.4895,-4.4895,-4.4895,-4.4895,-4.4895,-4.4895,-4.4895,-4.4895,-4.4895,-4.4895,-4.4895,-4.4895,-4.4895,-4.4895,-4.4895,-4.4827,-4.4732,-4.4732,-4.443,-4.4016,-4.3799,-4.3508,-4.3178,-4.2957,-4.2882,-4.2882,-4.2882,-4.2882,-4.2882,-4.2882,-4.2882,-4.2882,-4.2882,-4.2882,-4.2882,-4.2882,-4.2882,-4.2882,-4.2882,-4.2882,-4.2882,-4.2882,-4.2882,-4.2882,-4.2882,-4.2882,-4.2882,-4.2882,-4.2882,-4.2882,-4.2882,-4.2882,-4.2882,-4.2882,-4.2882,-4.2882,-4.2882,-4.2882,-4.2882,-4.2882,-4.2882,-4.2882,-4.2882,-4.2882,-4.2882,-4.2882,-4.2882,-4.2882,-4.2882,-4.2882,-4.2882,0.0,0.0,0.0,0.0,0.0,0.0,0.0,0.0,0.0,0.0,0.0,0.0,0.0,0.0,0.0,0.0,0.0,0.0,0.0,0.0,0.0,0.0,0.0,0.0,0.0,0.0,0.0,0.0,-3.9832,-3.9851,-3.9851,-3.9889,-4.0309,-4.1143,-4.1162,-4.156,-4.2375,-4.3208,-4.3644,-4.3663,-4.4459,-4.4838,-4.4857,-4.4857,-4.4876,-4.4895,-4.4895,-4.4895,-4.4895,-4.4895,-4.4895,-4.4895,-4.4895,-4.4895,-4.487,-4.487,-4.4681,-4.4402,-4.4402,-4.3955,-4.3406,-4.3406,-4.3178,-4.2882,-4.2882,-4.2882,-4.2882,-4.2882,-4.2882,-4.2882,-4.2882,-4.2882,-4.2882,-4.2882,-4.2882,-4.2882,-4.2882,-4.2882,-4.2882,-4.2882,-4.2882,-4.2882,-4.2882,-4.2882,-4.2882,-4.2882,-4.2882,-4.2882,-4.2882,-4.2882,-4.2882,-4.2882,-4.2882,-4.2882,-4.2882,-4.2882,-4.2882,-4.2882,-4.2882,-4.2882,-4.2882,-4.2882,-4.2882,-4.2882,-4.2882,-4.2882,-4.2882,-4.2882,-4.2882,-4.2882,-4.2882,-4.2882,-1.2707,0.0,0.0,0.0,0.0,0.0,0.0,0.0,0.0,0.0,0.0,0.0,0.0,0.0,0.0,0.0,0.0,0.0,0.0,0.0,0.0,0.0,0.0,0.0,0.0,0.0,0.0,0.0,-3.8679,-3.902,-3.902,-3.9589,-4.0003,-4.0252,-4.0271,-4.0688,-4.1522,-4.1768,-4.2185,-4.2773,-4.3,-4.3417,-4.4023,-4.4023,-4.4345,-4.4895,-4.4895,-4.4895,-4.4895,-4.4895,-4.4895,-4.487,-4.4636,-4.4557,-4.4511,-4.4289,-4.4125,-4.4035,-4.4035,-4.3754,-4.3406,-4.3406,-4.3178,-4.2882,-4.2882,-4.2882,-4.2882,-4.2882,-4.2882,-4.2882,-4.2882,-4.2882,-4.2882,-4.2882,-4.2882,-4.2882,-4.2882,-4.2882,-4.2882,-4.2882,-4.2882,-4.2882,-4.2882,-4.2882,-4.2882,-4.2882,-4.2882,-4.2882,-4.2882,-4.2882,-4.2882,-4.2882,-4.2882,-4.2882,-4.2882,-4.2882,-4.2882,-4.2882,-4.2882,-4.2882,-4.2882,-4.2882,-4.2882,-4.2882,-4.2882,-4.2882,-4.2882,-4.2882,-4.2882,-4.2882,-4.2882,-4.2882,0.0,0.0,0.0,0.0,0.0,0.0,0.0,0.0,0.0,0.0,0.0,0.0,0.0,0.0,0.0,0.0,0.0,0.0,0.0,0.0,0.0,0.0,0.0,0.0,0.0,-3.6898,-3.703,-3.7371,-3.7864,-3.8319,-3.8681,-3.9134,-3.9551,-3.9889,-3.9889,-4.0135,-4.065,-4.1029,-4.1446,-4.1901,-4.2242,-4.2678,-4.317,-4.3531,-4.3966,-4.4421,-4.4743,-4.4895,-4.4895,-4.4751,-4.4681,-4.4655,-4.4327,-4.4184,-4.4184,-4.3974,-4.3818,-4.3689,-4.3689,-4.3456,-4.3178,-4.3178,-4.305,-4.2882,-4.2882,-4.2882,-4.2882,-4.2882,-4.2882,-4.2882,-4.2882,-4.2882,-4.2882,-4.2882,-4.2882,-4.2882,-4.2882,-4.2882,-4.2882,-4.2882,-4.2882,-4.2882,-4.2882,-4.2882,-4.2882,-4.2882,-4.2882,-4.2882,-4.2882,-4.2882,-4.2882,-4.2882,-4.2882,-4.2882,-4.2882,-4.2882,-4.2882,-4.2882,-4.2882,-4.2882,-4.2882,-4.2882,-4.2882,-4.2882,-4.2882,-4.2882,-4.2882,-4.2882,-4.2882,-4.2882,-4.2882,-4.2882,0.0,0.0,0.0,0.0,0.0,0.0,-2.1385,-2.0526,0.0,0.0,0.0,0.0,0.0,0.0,0.0,0.0,0.0,0.0,0.0,0.0,0.0,0.0,0.0,0.0,-3.5836,-3.5912,-3.6253,-3.7049,-3.7201,-3.7637,-3.8529,-3.8662,-3.902,-3.974,-3.9832,-3.9889,-3.9889,-4.0688,-4.1067,-4.1067,-4.1787,-4.2185,-4.2299,-4.3076,-4.3531,-4.3739,-4.4435,-4.4751,-4.4802,-4.4457,-4.4327,-4.4355,-4.4004,-4.3849,-4.3849,-4.3818,-4.359,-4.3336,-4.3336,-4.3142,-4.2882,-4.2882,-4.2882,-4.2882,-4.2882,-4.2882,-4.2882,-4.2882,-4.2882,-4.2882,-4.2882,-4.2882,-4.2882,-4.2882,-4.2882,-4.2882,-4.2882,-4.2882,-4.2882,-4.2882,-4.2882,-4.2882,-4.2882,-4.2882,-4.2882,-4.2882,-4.2882,-4.2882,-4.2882,-4.2882,-4.2882,-4.2882,-4.2882,-4.2882,-4.2882,-4.2882,-4.2882,-4.2882,-4.2882,-4.2882,-4.2882,-4.2882,-4.2882,-4.2882,-4.2882,-4.2882,-4.2882,-4.2882,-4.2882,-4.2882,-4.2882,-4.2882,0.0,0.0,0.0,0.0,0.0,0.0,0.0,-1.9247,0.0,0.0,0.0,0.0,0.0,0.0,0.0,0.0,0.0,0.0,0.0,0.0,0.0,0.0,0.0,0.0,-3.4093,-3.4188,-3.451,-3.5325,-3.6045,-3.6784,-3.7599,-3.8319,-3.8755,-3.8925,-3.957,-3.9889,-3.9889,-4.006,-4.0135,-4.0154,-4.0306,-4.0764,-4.1446,-4.1616,-4.2431,-4.3677,-4.3592,-4.3901,-4.4457,-4.3831,-4.3924,-4.4327,-4.3735,-4.3508,-4.3456,-4.3178,-4.305,-4.2995,-4.2995,-4.2957,-4.2882,-4.2882,-4.2882,-4.2882,-4.2882,-4.2882,-4.2882,-4.2882,-4.2882,-4.2882,-4.2882,-4.2882,-4.2882,-4.2882,-4.2882,-4.2882,-4.2882,-4.2882,-4.2882,-4.2882,-4.2882,-4.2882,-4.2882,-4.2882,-4.2882,-4.2882,-4.2882,-4.2882,-4.2882,-4.2882,-4.2882,-4.2882,-4.2882,-4.2882,-4.2882,-4.2882,-4.2882,-4.2882,-4.2882,-4.2882,-4.2882,-4.2882,-4.2882,-4.2882,-4.2882,-4.2882,-4.2882,-4.2882,-4.2882,-4.2882,-4.2882,-4.2882,0.0,0.0,0.0,-2.1813,0.0,0.0,0.0,0.0,0.0,0.0,0.0,0.0,0.0,0.0,0.0,0.0,0.0,0.0,0.0,0.0,0.0,0.0,0.0,0.0,-3.2406,-3.2823,-3.3411,-3.4245,-3.4699,-3.5495,-3.6727,-3.722,-3.7637,-3.8035,-3.885,-3.9304,-3.9304,-3.9702,-3.9826,-3.9693,-3.9845,-4.0072,-4.0354,-4.0923,-4.1567,-4.2203,-4.2491,-4.2977,-4.3509,-4.3014,-4.3254,-4.3862,-4.3336,-4.3142,-4.3142,-4.2957,-4.2882,-4.2882,-4.2882,-4.2882,-4.2882,-4.2882,-4.2882,-4.2882,-4.2882,-4.2882,-4.2882,-4.2882,-4.2882,-4.2882,-4.2882,-4.2882,-4.2882,-4.2882,-4.2882,-4.2882,-4.2882,-4.2882,-4.2882,-4.2882,-4.2882,-4.2882,-4.2882,-4.2882,-4.2882,-4.2882,-4.2882,-4.2882,-4.2882,-4.2882,-4.2882,-4.2882,-4.2882,-4.2882,-4.2882,-4.2882,-4.2882,-4.2882,-4.2882,-4.2882,-4.2882,-4.2882,-4.2882,-4.2882,-4.2882,-4.2882,-4.2882,-4.2882,-4.2882,-4.2882,-4.2882,-4.2882,0.0,0.0,0.0,0.0,0.0,-2.3448,0.0,0.0,0.0,0.0,0.0,0.0,0.0,0.0,0.0,0.0,0.0,0.0,0.0,0.0,0.0,0.0,0.0,0.0,-3.0928,-3.1553,-3.2349,-3.3373,-3.3164,-3.379,-3.5609,-3.5855,-3.631,-3.7125,-3.7997,-3.8548,-3.87,-3.9342,-3.9607,-3.9483,-3.9735,-3.967,-3.9427,-4.0363,-4.0715,-4.0671,-4.1312,-4.1875,-4.2372,-4.2187,-4.2477,-4.3065,-4.2959,-4.2882,-4.2882,-4.2882,-4.2882,-4.2882,-4.2882,-4.2882,-4.2882,-4.2882,-4.2882,-4.2882,-4.2882,-4.2882,-4.2882,-4.2882,-4.2882,-4.2882,-4.2882,-4.2882,-4.2882,-4.2882,-4.2882,-4.2882,-4.2882,-4.2882,-4.2882,-4.2882,-4.2882,-4.2882,-4.2882,-4.2882,-4.2882,-4.2882,-4.2882,-4.2882,-4.2882,-4.2882,-4.2882,-4.2882,-4.2882,-4.2882,-4.2882,-4.2882,-4.2882,-4.2882,-4.2882,-4.2882,-4.2882,-4.2882,-4.2882,-4.2882,-4.2882,-4.2882,-4.2882,-4.2882,-4.2882,-4.2882,-4.2882,-4.2882,0.0,0.0,0.0,0.0,-2.4965,0.0,0.0,0.0,0.0,0.0,0.0,0.0,0.0,0.0,0.0,0.0,0.0,0.0,0.0,0.0,0.0,0.0,0.0,0.0,0.0,-3.0116,-3.0852,-3.2425,-3.1231,-3.1459,-3.3866,-3.4661,-3.5438,-3.631,-3.7106,-3.7921,-3.87,-3.8774,-3.9063,-3.9502,-3.9526,-3.9364,-3.9063,-3.9202,-3.9649,-4.0328,-4.0129,-4.0473,-4.1213,-4.1594,-4.1796,-4.1941,-4.2648,-4.2882,-4.2882,-4.2882,-4.2882,-4.2882,-4.2882,-4.2882,-4.2882,-4.2882,-4.2882,-4.2882,-4.2882,-4.2882,-4.2882,-4.2882,-4.2882,-4.2882,-4.2882,-4.2882,-4.2882,-4.2882,-4.2882,-4.2882,-4.2882,-4.2882,-4.2882,-4.2882,-4.2882,-4.2882,-4.2882,-4.2882,-4.2882,-4.2882,-4.2882,-4.2882,-4.2882,-4.2882,-4.2882,-4.2882,-4.2882,-4.2882,-4.2882,-4.2882,-4.2882,-4.2882,-4.2882,-4.2882,-4.2882,-4.2882,-4.2882,-4.2882,-4.2882,-4.2882,-4.2882,-4.2882,-4.2882,-4.2882,-4.2882,-4.2882,0.0,0.0,0.0,0.0,0.0,0.0,-2.2795,0.0,-2.3518,0.0,0.0,0.0,0.0,0.0,0.0,0.0,0.0,0.0,0.0,0.0,0.0,0.0,0.0,0.0,0.0,0.0,0.0,0.0,-2.9015,-2.9397,-3.1767,-3.2806,-3.3714,-3.4543,-3.5967,-3.6799,-3.7033,-3.7935,-3.8364,-3.8285,-3.8912,-3.9054,-3.8789,-3.8943,-3.91,-3.9324,-3.9173,-3.9461,-4.0081,-4.0291,-4.0619,-4.1089,-4.1904,-4.2484,-4.2882,-4.2882,-4.2882,-4.2882,-4.2882,-4.2882,-4.2882,-4.2882,-4.2882,-4.2882,-4.2882,-4.2882,-4.2882,-4.2882,-4.2882,-4.2882,-4.2882,-4.2882,-4.2882,-4.2882,-4.2882,-4.2882,-4.2882,-4.2882,-4.2882,-4.2882,-4.2882,-4.2882,-4.2882,-4.2882,-4.2882,-4.2882,-4.2882,-4.2882,-4.2882,-4.2882,-4.2882,-4.2882,-4.2882,-4.2882,-4.2882,-4.2882,-4.2882,-4.2882,-4.2882,-4.2882,-4.2882,-4.2882,-4.2882,-4.2882,-4.2882,-4.2882,-4.2882,-4.2882,-4.2882,-4.2882,-4.2882,-4.2882,-2.5214,0.0,0.0,0.0,0.0,0.0,0.0,0.0,0.0,0.0,0.0,0.0,0.0,0.0,0.0,0.0,0.0,0.0,0.0,0.0,0.0,0.0,0.0,0.0,0.0,0.0,0.0,-2.7577,0.0,-2.7341,-3.0102,-3.0973,-3.2031,-3.3347,-3.4653,-3.5482,-3.5807,-3.6878,-3.7407,-3.7404,-3.819,-3.8538,-3.851,-3.867,-3.867,-3.8478,-3.8478,-3.8715,-3.9079,-3.9297,-3.9713,-4.0293,-4.1071,-4.1868,-4.2592,-4.281,-4.2882,-4.2882,-4.2882,-4.2882,-4.2882,-4.2882,-4.2882,-4.2882,-4.2882,-4.2882,-4.2882,-4.2882,-4.2882,-4.2882,-4.2882,-4.2882,-4.2882,-4.2882,-4.2882,-4.2882,-4.2882,-4.2882,-4.2882,-4.2882,-4.2882,-4.2882,-4.2882,-4.2882,-4.2882,-4.2882,-4.2882,-4.2882,-4.2882,-4.2882,-4.2882,-4.2882,-4.2882,-4.2882,-4.2882,-4.2882,-4.2882,-4.2882,-4.2882,-4.2882,-4.2882,-4.2882,-4.2882,-4.2882,-4.2882,-4.2882,-4.2882,-4.2882,-4.2882,-4.2882,-4.2882,-4.2882,0.0,0.0,0.0,-2.3385,0.0,0.0,0.0,0.0,-2.4707,0.0,0.0,0.0,0.0,0.0,0.0,0.0,0.0,0.0,0.0,0.0,0.0,0.0,0.0,0.0,0.0,0.0,0.0,0.0,-2.4448,-2.5227,-2.9113,-2.9355,-3.0633,-3.3329,-3.3209,-3.3971,-3.5788,-3.5595,-3.6136,-3.7404,-3.7422,-3.7729,-3.8225,-3.8207,-3.8207,-3.8225,-3.8225,-3.8225,-3.8282,-3.9079,-3.9405,-3.9514,-4.0256,-4.1053,-4.185,-4.2611,-4.2882,-4.2882,-4.2882,-4.2882,-4.2882,-4.2882,-4.2882,-4.2882,-4.2882,-4.2882,-4.2882,-4.2882,-4.2882,-4.2882,-4.2882,-4.2882,-4.2882,-4.2882,-4.2882,-4.2882,-4.2882,-4.2882,-4.2882,-4.2882,-4.2882,-4.2882,-4.2882,-4.2882,-4.2882,-4.2882,-4.2882,-4.2882,-4.2882,-4.2882,-4.2882,-4.2882,-4.2882,-4.2882,-4.2882,-4.2882,-4.2882,-4.2882,-4.2882,-4.2882,-4.2882,-4.2882,-4.2882,-4.2882,-4.2882,-4.2882,-4.2882,-4.2882,-4.2882,-4.2882,-4.2882,-4.2882,0.0,0.0,-2.7656,-2.4858,0.0,0.0,0.0,0.0,0.0,0.0,0.0,0.0,0.0,0.0,0.0,0.0,0.0,0.0,0.0,0.0,0.0,0.0,0.0,0.0,0.0,0.0,0.0,0.0,-2.2599,0.0,-2.6292,-2.7638,-2.9222,-3.1214,-3.2395,-3.3467,-3.4463,-3.4895,-3.555,-3.6339,-3.6898,-3.7507,-3.8192,-3.8192,-3.8192,-3.8192,-3.8192,-3.8192,-3.821,-3.8482,-3.8608,-3.8663,-3.946,-4.0238,-4.1017,-4.1814,-4.2448,-4.2882,-4.2882,-4.2882,-4.2882,-4.2882,-4.2882,-4.2882,-4.2882,-4.2882,-4.2882,-4.2882,-4.2882,-4.2882,-4.2882,-4.2882,-4.2882,-4.2882,-4.2882,-4.2882,-4.2882,-4.2882,-4.2882,-4.2882,-4.2882,-4.2882,-4.2882,-4.2882,-4.2882,-4.2882,-4.2882,-4.2882,-4.2882,-4.2882,-4.2882,-4.2882,-4.2882,-4.2882,-4.2882,-4.2882,-4.2882,-4.2882,-4.2882,-4.2882,-4.2882,-4.2882,-4.2882,-4.2882,-4.2882,-4.2882,-4.2882,-4.2882,-4.2882,-4.2882,-4.2882,-4.2882,-2.628,-2.7422,0.0,-2.5963,-2.5427,0.0,-2.331,0.0,0.0,0.0,0.0,0.0,0.0,0.0,0.0,0.0,0.0,0.0,0.0,0.0,0.0,0.0,0.0,0.0,0.0,0.0,-2.0351,-2.1584,-2.142,0.0,0.0,-2.6421,-2.8146,-3.0142,-3.1556,-3.2771,-3.3788,-3.4229,-3.4732,-3.5385,-3.6182,-3.6979,-3.7775,-3.8065,-3.8192,-3.8192,-3.8192,-3.8192,-3.8192,-3.8192,-3.8192,-3.8246,-3.8753,-3.9441,-4.0256,-4.1325,-4.2212,-4.2882,-4.2882,-4.2882,-4.2882,-4.2882,-4.2882,-4.2882,-4.2882,-4.2882,-4.2882,-4.2882,-4.2882,-4.2882,-4.2882,-4.2882,-4.2882,-4.2882,-4.2882,-4.2882,-4.2882,-4.2882,-4.2882,-4.2882,-4.2882,-4.2882,-4.2882,-4.2882,-4.2882,-4.2882,-4.2882,-4.2882,-4.2882,-4.2882,-4.2882,-4.2882,-4.2882,-4.2882,-4.2882,-4.2882,-4.2882,-4.2882,-4.2882,-4.2882,-4.2882,-4.2882,-4.2882,-4.2882,-4.2882,-4.2882,-4.2882,-4.2882,-4.2882,-4.2882,-4.2882,-4.2882]}]]